[[[{"header":{"parameterUnit":"kt","parameterCategory":2,"dx":1,"dy":1,"la1":29.587661999999998,"la2":31.0,"lo1":-88.76705300000003,"lo2":-86.6583820000003,"nx":115,"ny":88,"refTime":"2022-10-20T12:00:00:Z","depth":0,"parameterNumber":1,"parameterNumberName":"U-component_of_WINDS"},"data":[-11.1855,-11.3809,-11.5361,-11.5994,-11.5994,-11.5994,-11.5994,-11.5994,-11.5994,-11.5994,-11.5994,-11.5994,-11.608,-11.5954,-11.3341,-11.2051,-11.1673,-10.9627,-10.8368,-10.7739,-10.7707,-10.7707,-10.7707,-10.7707,-10.7707,-10.7596,-10.7517,-10.7628,-10.7548,-10.7548,-10.6846,-10.5809,-10.5614,-10.5449,-10.5232,-10.4869,-10.4367,-10.4786,-10.4337,-10.3435,-10.3606,-10.3148,-10.2658,-10.2168,-10.1585,-10.0877,-10.0431,-9.9982,-10.1963,-10.4306,-10.6085,-10.5232,-10.4535,-10.4283,-10.4199,-10.3234,-10.2748,-10.2718,-10.2372,-10.179,-10.1291,-10.135,-10.0192,-9.9921,-9.9498,-9.8859,-9.7807,-9.6766,-9.6738,-9.6738,-9.5965,-9.5137,-9.4037,-9.3099,-9.2394,-9.0905,-8.9749,-8.9382,-8.9184,-8.9184,-8.9184,-8.9184,-8.9184,-8.9184,-8.9184,-8.9184,-8.9184,-8.9184,-8.9184,-8.9128,-8.9071,-8.8846,-8.8592,-8.735,-8.6024,-8.6504,-8.6758,-8.5375,-8.4303,-8.3544,-8.2592,-8.153,-8.1252,-8.12,-8.0956,-8.0602,-8.0357,-8.0165,-7.9891,-7.9616,-7.9312,-7.9257,-7.9312,-7.9395,-7.9644,-11.3836,-11.5502,-11.5908,-11.5994,-11.5994,-11.5994,-11.5994,-11.5994,-11.5994,-11.5994,-11.5994,-11.5994,-11.5994,-11.5522,-11.4264,-11.3089,-11.1673,-10.9942,-10.8651,-10.8022,-10.7707,-10.7707,-10.7707,-10.7707,-10.7707,-10.7707,-10.7707,-10.7707,-10.7707,-10.7628,-10.7628,-10.7469,-10.7389,-10.7309,-10.7309,-10.7038,-10.6604,-10.6653,-10.6411,-10.5809,-10.5315,-10.4786,-10.4505,-10.3915,-10.3062,-10.214,-10.1966,-10.214,-10.289,-10.4869,-10.6411,-10.5891,-10.5645,-10.6004,-10.5645,-10.5119,-10.4619,-10.4619,-10.4451,-10.3606,-10.3007,-10.217,-10.0342,-9.956,-9.9225,-9.8428,-9.7434,-9.6898,-9.6842,-9.6436,-9.5494,-9.4497,-9.3078,-9.1949,-9.1385,-9.0421,-8.9833,-8.9241,-8.9184,-8.9184,-8.9184,-8.9184,-8.9184,-8.9184,-8.9184,-8.9184,-8.9184,-8.9184,-8.9128,-8.8959,-8.814,-8.7548,-8.7491,-8.6843,-8.5742,-8.6053,-8.6701,-8.5432,-8.4332,-8.3231,-8.2247,-8.1829,-8.1551,-8.1551,-8.1442,-8.109,-8.0847,-8.0602,-8.022,-7.9864,-7.9644,-7.9561,-7.9644,-7.9726,-7.9973,-11.5243,-11.5994,-11.5994,-11.5994,-11.5994,-11.5994,-11.5994,-11.5994,-11.5994,-11.5994,-11.5994,-11.5994,-11.5994,-11.5774,-11.4516,-11.3215,-11.183,-11.0477,-10.9124,-10.8116,-10.7707,-10.7707,-10.7707,-10.7707,-10.7707,-10.7707,-10.7707,-10.7707,-10.7707,-10.7707,-10.7707,-10.7628,-10.7628,-10.7628,-10.7628,-10.7628,-10.7517,-10.7707,-10.7517,-10.7087,-10.6685,-10.633,-10.6167,-10.5563,-10.4953,-10.4755,-10.4367,-10.383,-10.4869,-10.6248,-10.6217,-10.5973,-10.6765,-10.7198,-10.7118,-10.6653,-10.633,-10.6523,-10.633,-10.6004,-10.5563,-10.5594,-10.4337,-10.1906,-10.1321,-10.055,-9.9469,-9.8665,-9.8578,-9.7276,-9.6293,-9.4457,-9.2908,-9.1432,-9.0716,-9.0115,-8.9608,-8.9184,-8.9184,-8.9184,-8.9184,-8.9184,-8.9184,-8.9184,-8.9184,-8.9184,-8.9156,-8.9156,-8.8846,-8.8592,-8.6984,-8.6024,-8.6137,-8.5686,-8.5488,-8.5911,-8.6391,-8.5658,-8.4642,-8.34,-8.2215,-8.1962,-8.182,-8.174,-8.1631,-8.1442,-8.1252,-8.1009,-8.0628,-8.0274,-8.0028,-7.9891,-8.0001,-8.0165,-8.0602,-11.5994,-11.5994,-11.5994,-11.5994,-11.5994,-11.5994,-11.5994,-11.5994,-11.5994,-11.5994,-11.5994,-11.5994,-11.5994,-11.5931,-11.4925,-11.3562,-11.2177,-11.0918,-10.9344,-10.8179,-10.7707,-10.7707,-10.7707,-10.7707,-10.7707,-10.7707,-10.7707,-10.7707,-10.7707,-10.7707,-10.7707,-10.7707,-10.7707,-10.7707,-10.7707,-10.7707,-10.7707,-10.7707,-10.7707,-10.7517,-10.7358,-10.7358,-10.7278,-10.6685,-10.6442,-10.6411,-10.6136,-10.5614,-10.6492,-10.7278,-10.6136,-10.6411,-10.7548,-10.7628,-10.7707,-10.7676,-10.7437,-10.7358,-10.7278,-10.7198,-10.7007,-10.7278,-10.6523,-10.5066,-10.4,-10.3264,-10.2451,-10.1453,-10.0423,-9.881,-9.72,-9.5015,-9.3046,-9.1516,-9.01,-8.9699,-8.9241,-8.9184,-8.9184,-8.9184,-8.9184,-8.9184,-8.9184,-8.9184,-8.9184,-8.9128,-8.9043,-8.8648,-8.8225,-8.7153,-8.5488,-8.5432,-8.5375,-8.5629,-8.5658,-8.594,-8.6137,-8.5601,-8.4557,-8.3344,-8.2131,-8.1933,-8.182,-8.182,-8.182,-8.1712,-8.1551,-8.1361,-8.1172,-8.0872,-8.0628,-8.0465,-8.0493,-8.0575,-8.1118,-11.5994,-11.5994,-11.5994,-11.5994,-11.5994,-11.5994,-11.5994,-11.5994,-11.5994,-11.5994,-11.5994,-11.5994,-11.5994,-11.5931,-11.5702,-11.4254,-11.2334,-11.1547,-11.0131,-10.7739,-10.7707,-10.7707,-10.7707,-10.7707,-10.7707,-10.7707,-10.7707,-10.7707,-10.7707,-10.7707,-10.7707,-10.7707,-10.7707,-10.7707,-10.7707,-10.7707,-10.7707,-10.7707,-10.7707,-10.7707,-10.7707,-10.7707,-10.7628,-10.7389,-10.7469,-10.7628,-10.7437,-10.7437,-10.7548,-10.7628,-10.7437,-10.7358,-10.7628,-10.7707,-10.7707,-10.7707,-10.7707,-10.7707,-10.7707,-10.7707,-10.7707,-10.7167,-10.6248,-10.5357,-10.4894,-10.447,-10.2957,-10.1961,-10.0945,-9.957,-9.7806,-9.5715,-9.3993,-9.2369,-9.1344,-9.0858,-9.0372,-9.0056,-8.9998,-8.9825,-8.968,-8.9184,-8.9184,-8.9184,-8.9184,-8.8789,-8.8423,-8.7689,-8.6843,-8.5488,-8.4896,-8.515,-8.5545,-8.6024,-8.5996,-8.6024,-8.6109,-8.5375,-8.436,-8.3203,-8.2159,-8.1877,-8.182,-8.182,-8.182,-8.182,-8.182,-8.1712,-8.1523,-8.1252,-8.1062,-8.0953,-8.0981,-8.1062,-8.1361,-11.5994,-11.5994,-11.5994,-11.5994,-11.5994,-11.5994,-11.5994,-11.5994,-11.5994,-11.5994,-11.5994,-11.5994,-11.5994,-11.5994,-11.5954,-11.46,-11.2133,-11.1767,-11.0414,-10.8274,-10.7707,-10.7707,-10.7707,-10.7707,-10.7707,-10.7707,-10.7707,-10.7707,-10.7707,-10.7707,-10.7707,-10.7707,-10.7707,-10.7707,-10.7707,-10.7707,-10.7707,-10.7707,-10.7707,-10.7707,-10.7707,-10.7707,-10.7707,-10.7628,-10.7628,-10.7707,-10.7596,-10.7596,-10.7628,-10.7707,-10.7707,-10.7707,-10.7707,-10.7707,-10.7707,-10.7707,-10.7707,-10.7707,-10.7707,-10.7707,-10.7707,-10.7517,-10.7087,-10.6136,-10.5713,-10.5179,-10.3778,-10.2338,-10.1304,-10.0143,-9.8306,-9.6535,-9.5017,-9.3475,-9.287,-9.226,-9.1645,-9.1196,-9.08,-9.0543,-8.9998,-8.9418,-8.9184,-8.9184,-8.9015,-8.8281,-8.7548,-8.6758,-8.5601,-8.4721,-8.4912,-8.5621,-8.6219,-8.6616,-8.6363,-8.6335,-8.5658,-8.467,-8.3795,-8.3062,-8.2244,-8.182,-8.182,-8.182,-8.182,-8.182,-8.182,-8.182,-8.182,-8.1551,-8.1333,-8.1333,-8.1361,-8.1442,-8.1523,-11.5994,-11.5994,-11.5994,-11.5994,-11.5994,-11.5994,-11.5994,-11.5994,-11.5994,-11.5994,-11.5994,-11.5994,-11.5994,-11.5994,-11.5963,-11.4285,-11.2806,-11.1598,-11.0005,-10.8714,-10.7707,-10.7707,-10.7707,-10.7707,-10.7707,-10.7707,-10.7707,-10.7707,-10.7707,-10.7707,-10.7707,-10.7707,-10.7707,-10.7707,-10.7707,-10.7707,-10.7707,-10.7707,-10.7707,-10.7707,-10.7707,-10.7707,-10.7707,-10.7707,-10.7707,-10.7707,-10.7707,-10.7707,-10.7707,-10.7707,-10.7707,-10.7707,-10.7707,-10.7707,-10.7707,-10.7707,-10.7707,-10.7707,-10.7707,-10.7707,-10.7707,-10.7596,-10.7156,-10.6511,-10.5756,-10.5128,-10.4705,-10.3221,-10.2035,-10.1321,-9.9927,-9.8407,-9.6973,-9.5822,-9.5013,-9.4113,-9.2999,-9.2368,-9.145,-9.097,-8.9825,-8.9331,-8.9043,-8.8959,-8.8225,-8.7407,-8.6589,-8.5714,-8.4949,-8.487,-8.5224,-8.6536,-8.7223,-8.7589,-8.74,-8.6526,-8.5311,-8.4158,-8.3288,-8.2554,-8.2098,-8.1901,-8.182,-8.182,-8.182,-8.182,-8.182,-8.182,-8.182,-8.1631,-8.1631,-8.1631,-8.174,-8.1712,-8.174,-11.5994,-11.5994,-11.5994,-11.5994,-11.5994,-11.5994,-11.5994,-11.5994,-11.5994,-11.5994,-11.5994,-11.5994,-11.5994,-11.5994,-11.5994,-11.4506,-11.2448,-11.2007,-11.0099,-10.8431,-10.7707,-10.7707,-10.7707,-10.7707,-10.7707,-10.7707,-10.7707,-10.7707,-10.7707,-10.7707,-10.7707,-10.7707,-10.7707,-10.7707,-10.7707,-10.7707,-10.7707,-10.7707,-10.7707,-10.7707,-10.7707,-10.7707,-10.7707,-10.7707,-10.7707,-10.7707,-10.7707,-10.7707,-10.7707,-10.7707,-10.7707,-10.7707,-10.7707,-10.7707,-10.7707,-10.7707,-10.7707,-10.7707,-10.7707,-10.7707,-10.7644,-10.6826,-10.6291,-10.5158,-10.4497,-10.4623,-10.3899,-10.2892,-10.2671,-10.208,-10.1722,-10.039,-9.9153,-9.8434,-9.7531,-9.6535,-9.5271,-9.3468,-9.2456,-9.1624,-9.0601,-8.9418,-8.9131,-8.8225,-8.7606,-8.6759,-8.5992,-8.5281,-8.5257,-8.5214,-8.6469,-8.7734,-8.8594,-8.8821,-8.7666,-8.6624,-8.5571,-8.4919,-8.381,-8.2887,-8.2288,-8.1953,-8.1901,-8.182,-8.182,-8.182,-8.182,-8.182,-8.182,-8.182,-8.1712,-8.174,-8.174,-8.182,-8.182,-11.5994,-11.5994,-11.5994,-11.5994,-11.5994,-11.5994,-11.5994,-11.5994,-11.5994,-11.5994,-11.5994,-11.5994,-11.5994,-11.5994,-11.5859,-11.4569,-11.2165,-11.183,-11.0414,-10.8022,-10.7707,-10.7707,-10.7707,-10.7707,-10.7707,-10.7707,-10.7707,-10.7707,-10.7707,-10.7707,-10.7707,-10.7707,-10.7707,-10.7707,-10.7707,-10.7707,-10.7707,-10.7707,-10.7707,-10.7707,-10.7707,-10.7707,-10.7707,-10.7707,-10.7707,-10.7707,-10.7707,-10.7707,-10.7707,-10.7707,-10.7707,-10.7707,-10.7707,-10.7707,-10.7707,-10.7707,-10.7707,-10.7707,-10.7644,-10.7644,-10.6448,-10.541,-10.4749,-10.3678,-10.286,-10.3741,-10.2986,-10.2703,-10.3017,-10.2942,-10.296,-10.2897,-10.2003,-10.1722,-10.1121,-10.0888,-9.9214,-9.519,-9.3682,-9.3326,-9.2432,-9.0456,-8.9043,-8.8086,-8.7437,-8.6551,-8.5632,-8.5548,-8.5533,-8.6662,-8.7977,-8.9583,-9.0653,-9.003,-8.881,-8.725,-8.6158,-8.5619,-8.4729,-8.3828,-8.3264,-8.3008,-8.2273,-8.182,-8.2033,-8.2113,-8.1953,-8.1901,-8.2113,-8.2113,-8.2113,-8.2033,-8.182,-8.182,-8.182,-11.5994,-11.5994,-11.5994,-11.5994,-11.5994,-11.5994,-11.5994,-11.5994,-11.5994,-11.5994,-11.5994,-11.5994,-11.5994,-11.5994,-11.5828,-11.46,-11.2303,-11.1799,-11.0414,-10.799,-10.7707,-10.7707,-10.7707,-10.7707,-10.7707,-10.7707,-10.7707,-10.7707,-10.7707,-10.7707,-10.7707,-10.7707,-10.7707,-10.7707,-10.7707,-10.7707,-10.7707,-10.7707,-10.7707,-10.7707,-10.7707,-10.7707,-10.7707,-10.7707,-10.7707,-10.7707,-10.7707,-10.7707,-10.7707,-10.7707,-10.7707,-10.7707,-10.7707,-10.7707,-10.7707,-10.7707,-10.7707,-10.7707,-10.7644,-10.648,-10.5284,-10.3836,-10.2892,-10.2514,-10.1884,-10.286,-10.2954,-10.2797,-10.3773,-10.4339,-10.4294,-10.4263,-10.4231,-10.4056,-10.3804,-10.3647,-10.2051,-9.8131,-9.5325,-9.5039,-9.2983,-9.0706,-8.9222,-8.8289,-8.8204,-8.7642,-8.7268,-8.7016,-8.825,-8.9409,-9.009,-9.1691,-9.193,-9.1085,-8.9818,-8.7697,-8.6415,-8.6164,-8.558,-8.495,-8.4675,-8.4398,-8.3732,-8.2979,-8.2692,-8.2403,-8.2113,-8.1901,-8.2193,-8.2721,-8.29,-8.2979,-8.2244,-8.1901,-8.1901,-11.5994,-11.5994,-11.5994,-11.5994,-11.5994,-11.5994,-11.5994,-11.5994,-11.5994,-11.5994,-11.5994,-11.5994,-11.5994,-11.5994,-11.5994,-11.4474,-11.2397,-11.1881,-11.0414,-10.8305,-10.7707,-10.7707,-10.7707,-10.7707,-10.7707,-10.7707,-10.7707,-10.7707,-10.7707,-10.7707,-10.7707,-10.7707,-10.7707,-10.7707,-10.7707,-10.7707,-10.7707,-10.7707,-10.7707,-10.7707,-10.7707,-10.7707,-10.7707,-10.7707,-10.7707,-10.7707,-10.7707,-10.7707,-10.7707,-10.7707,-10.7707,-10.7707,-10.7707,-10.7707,-10.7707,-10.7707,-10.7707,-10.7613,-10.7361,-10.5,-10.3395,-10.2073,-10.1947,-10.1947,-10.201,-10.286,-10.3741,-10.3899,-10.4937,-10.5661,-10.5756,-10.5756,-10.5787,-10.563,-10.5378,-10.4908,-10.3347,-10.0481,-9.8308,-9.7072,-9.3826,-9.0631,-8.9627,-8.8794,-8.9028,-8.9319,-8.8925,-8.9875,-9.1588,-9.2516,-9.2918,-9.361,-9.2943,-9.2217,-9.1036,-8.8645,-8.7172,-8.6832,-8.6668,-8.6565,-8.6373,-8.5658,-8.4979,-8.4445,-8.4167,-8.4042,-8.3086,-8.2113,-8.3449,-8.4704,-8.4475,-8.3858,-8.2613,-8.2033,-8.2033,-11.5994,-11.5994,-11.5994,-11.5994,-11.5994,-11.5994,-11.5994,-11.5994,-11.5994,-11.5994,-11.5994,-11.5994,-11.5994,-11.5994,-11.5985,-11.4474,-11.2491,-11.1661,-11.0005,-10.8651,-10.7707,-10.7707,-10.7707,-10.7707,-10.7707,-10.7707,-10.7707,-10.7707,-10.7707,-10.7707,-10.7707,-10.7707,-10.7707,-10.7707,-10.7707,-10.7707,-10.7707,-10.7707,-10.7707,-10.7707,-10.7707,-10.7707,-10.7707,-10.7707,-10.7707,-10.7707,-10.7707,-10.7707,-10.7707,-10.7707,-10.7707,-10.7707,-10.7707,-10.7707,-10.7707,-10.7707,-10.7581,-10.7204,-10.5913,-10.393,-10.1979,-10.1444,-10.1349,-10.201,-10.3017,-10.4276,-10.4969,-10.5189,-10.6259,-10.7141,-10.7141,-10.6952,-10.692,-10.6669,-10.6448,-10.615,-10.4532,-10.2876,-10.0833,-9.8899,-9.5489,-9.2237,-9.1111,-8.9723,-9.0382,-9.1595,-9.1795,-9.3113,-9.438,-9.4772,-9.516,-9.4522,-9.3784,-9.3084,-9.2444,-9.0719,-8.9091,-8.8757,-8.8403,-8.8261,-8.7759,-8.6668,-8.5928,-8.5853,-8.5704,-8.5583,-8.5357,-8.5101,-8.5778,-8.6625,-8.6032,-8.5403,-8.4321,-8.3577,-8.3215,-11.5994,-11.5994,-11.5994,-11.5994,-11.5994,-11.5994,-11.5994,-11.5994,-11.5994,-11.5994,-11.5994,-11.5994,-11.5994,-11.5891,-11.5544,-11.3971,-11.2082,-11.1453,-10.9722,-10.8305,-10.7707,-10.7707,-10.7707,-10.7707,-10.7707,-10.7707,-10.7707,-10.7707,-10.7707,-10.7707,-10.7707,-10.7707,-10.7707,-10.7707,-10.7707,-10.7707,-10.7707,-10.7707,-10.7707,-10.7707,-10.7707,-10.7707,-10.7707,-10.7707,-10.7707,-10.7707,-10.7707,-10.7707,-10.7707,-10.7707,-10.7707,-10.7707,-10.7707,-10.7707,-10.7392,-10.692,-10.6826,-10.6165,-10.478,-10.2954,-10.1223,-10.1035,-10.1349,-10.2325,-10.4371,-10.5126,-10.5787,-10.6574,-10.7235,-10.7487,-10.7676,-10.7676,-10.7676,-10.7518,-10.733,-10.7204,-10.5988,-10.4304,-10.2434,-10.0943,-9.7782,-9.4389,-9.2556,-9.0867,-9.2325,-9.3905,-9.5024,-9.5989,-9.6343,-9.67,-9.6026,-9.5305,-9.4069,-9.3135,-9.2012,-9.1551,-9.1116,-9.0617,-9.0208,-9.0002,-8.9626,-8.8403,-8.7687,-8.7471,-8.7398,-8.6815,-8.6888,-8.7585,-8.8159,-8.8616,-8.8118,-8.718,-8.6299,-8.5554,-8.5055,-11.5994,-11.5994,-11.5994,-11.5994,-11.5994,-11.5994,-11.5994,-11.5994,-11.5994,-11.5994,-11.5994,-11.5994,-11.5994,-11.5765,-11.4758,-11.3373,-11.1913,-11.0446,-10.9092,-10.8179,-10.7707,-10.7707,-10.7707,-10.7707,-10.7707,-10.7707,-10.7707,-10.7707,-10.7707,-10.7707,-10.7707,-10.7707,-10.7707,-10.7707,-10.7707,-10.7707,-10.7707,-10.7707,-10.7707,-10.7707,-10.7707,-10.7707,-10.7707,-10.7707,-10.7707,-10.7707,-10.7707,-10.7707,-10.7707,-10.7707,-10.7707,-10.7676,-10.7267,-10.7235,-10.6574,-10.5913,-10.5598,-10.4686,-10.3301,-10.1695,-10.072,-10.0468,-10.1129,-10.3017,-10.5504,-10.5913,-10.6417,-10.7392,-10.7518,-10.7707,-10.7707,-10.7707,-10.7707,-10.7613,-10.755,-10.7487,-10.6791,-10.5229,-10.4153,-10.2844,-10.0344,-9.7134,-9.4887,-9.3419,-9.4284,-9.5643,-9.6712,-9.7067,-9.7599,-9.7474,-9.6728,-9.5543,-9.4167,-9.2914,-9.1655,-9.1281,-9.1218,-9.0918,-9.0783,-9.0851,-9.0851,-9.0716,-8.9765,-8.9488,-8.8928,-8.8118,-8.7687,-8.8827,-8.9765,-9.0413,-9.0345,-8.9279,-8.8403,-8.7368,-8.6742,-11.5994,-11.5994,-11.5994,-11.5994,-11.5994,-11.5994,-11.5994,-11.5994,-11.5994,-11.5994,-11.5994,-11.5994,-11.5994,-11.5765,-11.4569,-11.3152,-11.1913,-11.0446,-10.9029,-10.8116,-10.7707,-10.7707,-10.7707,-10.7707,-10.7707,-10.7707,-10.7707,-10.7707,-10.7707,-10.7707,-10.7707,-10.7707,-10.7707,-10.7707,-10.7707,-10.7707,-10.7707,-10.7707,-10.7707,-10.7707,-10.7707,-10.7707,-10.7707,-10.7707,-10.7707,-10.7707,-10.7707,-10.7707,-10.7707,-10.7676,-10.7644,-10.7109,-10.648,-10.6259,-10.5535,-10.4497,-10.3962,-10.3017,-10.1412,-10.072,-10.0468,-10.1129,-10.2388,-10.4119,-10.6543,-10.7235,-10.7518,-10.7613,-10.7707,-10.7707,-10.7707,-10.7707,-10.7707,-10.7707,-10.7707,-10.7707,-10.7423,-10.6586,-10.5544,-10.3691,-10.1267,-9.8694,-9.7015,-9.5781,-9.6032,-9.7255,-9.7849,-9.8098,-9.8098,-9.7963,-9.6903,-9.5519,-9.4204,-9.2883,-9.1812,-9.125,-9.1218,-9.112,-9.112,-9.112,-9.1053,-9.0986,-9.0918,-9.0918,-9.0648,-8.9902,-8.9178,-9.0208,-9.112,-9.1053,-9.0851,-9.0481,-9.0071,-8.9038,-8.8189,-11.5994,-11.5994,-11.5994,-11.5994,-11.5994,-11.5994,-11.5994,-11.5994,-11.5994,-11.5994,-11.5994,-11.5994,-11.5994,-11.5607,-11.3908,-11.2649,-11.1642,-10.9753,-10.84,-10.7802,-10.7707,-10.7707,-10.7707,-10.7707,-10.7707,-10.7707,-10.7707,-10.7707,-10.7707,-10.7707,-10.7707,-10.7707,-10.7707,-10.7707,-10.7707,-10.7707,-10.7707,-10.7707,-10.7707,-10.7707,-10.7707,-10.7707,-10.7707,-10.7707,-10.7707,-10.7707,-10.7707,-10.7707,-10.7707,-10.7613,-10.7046,-10.648,-10.5882,-10.5063,-10.4182,-10.286,-10.2262,-10.1223,-9.9933,-10.0216,-10.072,-10.1695,-10.3395,-10.5126,-10.6417,-10.7267,-10.7644,-10.7707,-10.7707,-10.7707,-10.7707,-10.7707,-10.7707,-10.7707,-10.7707,-10.7455,-10.6952,-10.6842,-10.6056,-10.4018,-10.1897,-10.0036,-9.8208,-9.7627,-9.7933,-9.8613,-9.8727,-9.8872,-9.8674,-9.8517,-9.7415,-9.5684,-9.411,-9.2757,-9.1749,-9.1187,-9.1187,-9.1187,-9.1187,-9.1187,-9.1187,-9.1187,-9.112,-9.112,-9.112,-9.112,-9.1053,-9.1187,-9.1187,-9.1187,-9.1187,-9.0986,-9.0716,-8.9934,-8.9735,-11.5994,-11.5994,-11.5994,-11.5994,-11.5994,-11.5994,-11.5994,-11.5994,-11.5994,-11.5994,-11.5994,-11.5994,-11.5994,-11.5544,-11.3436,-11.2145,-11.0949,-10.9155,-10.7865,-10.7739,-10.7707,-10.7707,-10.7707,-10.7707,-10.7707,-10.7707,-10.7707,-10.7707,-10.7707,-10.7707,-10.7707,-10.7707,-10.7707,-10.7707,-10.7707,-10.7818,-10.7786,-10.7786,-10.7786,-10.7786,-10.7818,-10.7707,-10.7707,-10.7707,-10.7707,-10.7707,-10.7707,-10.7361,-10.7298,-10.7204,-10.6196,-10.5472,-10.5063,-10.3917,-10.2734,-10.1381,-10.0436,-9.9817,-10.0122,-10.1035,-10.1947,-10.286,-10.4213,-10.5535,-10.6543,-10.7235,-10.7707,-10.7707,-10.7707,-10.7707,-10.7707,-10.7518,-10.7424,-10.7298,-10.6857,-10.6196,-10.5819,-10.5332,-10.4703,-10.2954,-10.1424,-9.9998,-9.9196,-9.9366,-9.9565,-9.9565,-9.9565,-9.9502,-9.9408,-9.9313,-9.8422,-9.5778,-9.3921,-9.2442,-9.1372,-9.125,-9.1187,-9.1187,-9.1187,-9.1187,-9.1187,-9.1187,-9.1187,-9.1218,-9.1187,-9.1187,-9.1187,-9.1187,-9.1187,-9.1187,-9.1187,-9.1187,-9.125,-9.1435,-9.1416,-11.5994,-11.5994,-11.5994,-11.5994,-11.5994,-11.5994,-11.5994,-11.5994,-11.5994,-11.5994,-11.5994,-11.608,-11.608,-11.5607,-11.416,-11.224,-11.0068,-10.862,-10.777,-10.7707,-10.7707,-10.7707,-10.7707,-10.7707,-10.7707,-10.7707,-10.7707,-10.7707,-10.7707,-10.7707,-10.7707,-10.7707,-10.7707,-10.7707,-10.7786,-10.8165,-10.8275,-10.8322,-10.8322,-10.8322,-10.8165,-10.7865,-10.7707,-10.7707,-10.7707,-10.7581,-10.7267,-10.6637,-10.6196,-10.5756,-10.4843,-10.3615,-10.2545,-10.2073,-10.1286,-10.0311,-10.072,-10.0972,-10.1381,-10.2325,-10.3584,-10.4308,-10.5347,-10.6291,-10.7015,-10.7392,-10.7707,-10.7707,-10.7644,-10.7581,-10.7172,-10.67,-10.6259,-10.5976,-10.5252,-10.4434,-10.4213,-10.3867,-10.3301,-10.2105,-10.0751,-9.9828,-9.9471,-9.9565,-9.9565,-9.9565,-9.9565,-9.9565,-9.9565,-9.9565,-9.8611,-9.5936,-9.4173,-9.2694,-9.1817,-9.179,-9.1659,-9.147,-9.1285,-9.1218,-9.1187,-9.1187,-9.1218,-9.1285,-9.1317,-9.1411,-9.1218,-9.1187,-9.1668,-9.1829,-9.138,-9.1376,-9.179,-9.2073,-9.2546,-11.5994,-11.5994,-11.5994,-11.5994,-11.5994,-11.5994,-11.5994,-11.5994,-11.5994,-11.5994,-11.5994,-11.6048,-11.5733,-11.4978,-11.4138,-11.2428,-11.0068,-10.8368,-10.7739,-10.7707,-10.7707,-10.7707,-10.7707,-10.7707,-10.7707,-10.7707,-10.7707,-10.7707,-10.7707,-10.7707,-10.7707,-10.7707,-10.7976,-10.8055,-10.8165,-10.851,-10.8588,-10.8432,-10.8432,-10.8354,-10.8055,-10.7865,-10.7267,-10.6731,-10.6165,-10.5819,-10.563,-10.4969,-10.478,-10.4497,-10.3364,-10.2325,-10.157,-10.094,-10.0216,-9.9933,-10.0688,-10.1412,-10.1664,-10.3521,-10.4874,-10.5756,-10.6417,-10.7046,-10.7487,-10.7676,-10.7707,-10.755,-10.7313,-10.6511,-10.5882,-10.5126,-10.478,-10.4591,-10.4105,-10.3382,-10.286,-10.2671,-10.179,-10.0657,-9.9996,-9.9786,-9.9565,-9.9565,-9.9565,-9.9565,-9.9565,-9.9565,-9.9565,-9.9345,-9.8894,-9.7006,-9.5999,-9.45,-9.3223,-9.2835,-9.2442,-9.1857,-9.1419,-9.1218,-9.1187,-9.1187,-9.1218,-9.1608,-9.1671,-9.1896,-9.1991,-9.2595,-9.2662,-9.2761,-9.2793,-9.2789,-9.2749,-9.2966,-9.3629,-11.5994,-11.5994,-11.5994,-11.5994,-11.5994,-11.5994,-11.5994,-11.5994,-11.5994,-11.5994,-11.5931,-11.5796,-11.4978,-11.4013,-11.3604,-11.2019,-10.9942,-10.84,-10.7707,-10.7707,-10.7707,-10.7707,-10.7707,-10.7707,-10.7707,-10.7707,-10.7707,-10.7707,-10.7707,-10.7707,-10.7786,-10.7897,-10.8244,-10.8479,-10.8635,-10.8945,-10.885,-10.8173,-10.8064,-10.7577,-10.7013,-10.6699,-10.6384,-10.5719,-10.4668,-10.4196,-10.402,-10.3629,-10.3269,-10.3219,-10.1991,-10.1286,-10.0814,-10.009,-9.9723,-9.9912,-10.1035,-10.2105,-10.2451,-10.4465,-10.5819,-10.6322,-10.6983,-10.7613,-10.7613,-10.7487,-10.7172,-10.692,-10.6102,-10.5,-10.3696,-10.349,-10.3364,-10.3175,-10.286,-10.2262,-10.1444,-10.1097,-10.0688,-9.9964,-9.9786,-9.9565,-9.9565,-9.9565,-9.9565,-9.9565,-9.9565,-9.9565,-9.9565,-9.9313,-9.8872,-9.8107,-9.7455,-9.5838,-9.4276,-9.366,-9.274,-9.19,-9.1583,-9.1419,-9.1352,-9.1285,-9.1703,-9.2381,-9.2704,-9.3021,-9.3628,-9.4302,-9.4429,-9.4393,-9.4429,-9.4464,-9.4742,-9.505,-9.5558,-11.5994,-11.5994,-11.5994,-11.5994,-11.5994,-11.5994,-11.5994,-11.5994,-11.5994,-11.5931,-11.5805,-11.4673,-11.4107,-11.3321,-11.1673,-11.0446,-10.9438,-10.8368,-10.7707,-10.7707,-10.7707,-10.7707,-10.7707,-10.7707,-10.7707,-10.7707,-10.7707,-10.7707,-10.7707,-10.7707,-10.7976,-10.8275,-10.851,-10.8712,-10.9022,-10.9266,-10.8724,-10.745,-10.7259,-10.6522,-10.5285,-10.4987,-10.5045,-10.4645,-10.3806,-10.3572,-10.362,-10.2763,-10.1971,-10.2174,-10.0679,-9.9975,-9.9744,-9.9524,-9.9565,-9.9587,-10.1821,-10.2816,-10.3553,-10.5567,-10.7267,-10.7424,-10.7613,-10.7644,-10.7267,-10.6606,-10.6165,-10.5598,-10.4843,-10.3696,-10.3476,-10.2545,-10.1884,-10.1633,-10.0751,-10.0122,-9.9838,-9.9776,-9.987,-9.9565,-9.9565,-9.9565,-9.9565,-9.9565,-9.9565,-9.9565,-9.9565,-9.9565,-9.9565,-9.9376,-9.8841,-9.8242,-9.7488,-9.6154,-9.4882,-9.4113,-9.2764,-9.2007,-9.1782,-9.1716,-9.1716,-9.1748,-9.207,-9.297,-9.3832,-9.4659,-9.5267,-9.5944,-9.6267,-9.6095,-9.6163,-9.6199,-9.6577,-9.7146,-9.7554,-11.5994,-11.5994,-11.5994,-11.5994,-11.5994,-11.5994,-11.5994,-11.5994,-11.5994,-11.567,-11.4915,-11.4264,-11.3038,-11.1673,-11.0446,-10.9344,-10.8683,-10.7959,-10.7707,-10.7707,-10.7707,-10.7707,-10.7707,-10.7707,-10.7707,-10.7707,-10.7707,-10.7707,-10.7786,-10.7976,-10.8244,-10.8432,-10.8868,-10.9081,-10.9375,-10.8911,-10.8131,-10.6976,-10.6371,-10.552,-10.4498,-10.434,-10.4405,-10.3611,-10.2712,-10.2184,-10.2613,-10.134,-10.0973,-10.0751,-10.0309,-9.9816,-9.9816,-9.9638,-9.9565,-9.9933,-10.2073,-10.3445,-10.42,-10.6008,-10.7392,-10.6731,-10.6637,-10.6291,-10.5458,-10.5063,-10.4623,-10.4339,-10.3395,-10.2136,-10.1475,-10.0688,-10.0531,-10.0279,-9.9838,-9.9628,-9.9597,-9.9565,-9.9565,-9.9565,-9.9565,-9.9565,-9.9565,-9.9565,-9.9565,-9.9565,-9.9565,-9.9711,-9.9711,-9.9794,-9.9153,-9.872,-9.777,-9.661,-9.5531,-9.4298,-9.2972,-9.2302,-9.2046,-9.2046,-9.2366,-9.2495,-9.2722,-9.3299,-9.4067,-9.5153,-9.6977,-9.7693,-9.8213,-9.8109,-9.8041,-9.7972,-9.8164,-9.8447,-9.8926,-11.5994,-11.5994,-11.5994,-11.5994,-11.5994,-11.5994,-11.5994,-11.5963,-11.5733,-11.4893,-11.395,-11.3195,-11.1799,-10.991,-10.947,-10.8809,-10.7865,-10.777,-10.7707,-10.7707,-10.7707,-10.7707,-10.7707,-10.7865,-10.7897,-10.7865,-10.7897,-10.7897,-10.8055,-10.84,-10.8588,-10.8695,-10.8979,-10.92,-10.9019,-10.812,-10.7201,-10.6105,-10.5391,-10.4435,-10.3537,-10.3494,-10.3269,-10.2304,-10.1564,-10.1092,-10.0894,-10.0466,-10.0218,-10.0178,-10.0178,-9.9961,-9.9888,-9.9638,-9.9786,-10.0468,-10.2356,-10.3571,-10.3979,-10.5661,-10.67,-10.5535,-10.5221,-10.4843,-10.3665,-10.349,-10.3206,-10.2954,-10.1884,-10.0751,-9.9996,-9.966,-9.9691,-9.9754,-9.9628,-9.9565,-9.9565,-9.9565,-9.9565,-9.9565,-9.9565,-9.9565,-9.9565,-9.9565,-9.9565,-9.9638,-9.9711,-9.9888,-10.0033,-10.0178,-10.0028,-9.9901,-9.8693,-9.7055,-9.5908,-9.4767,-9.3526,-9.2696,-9.247,-9.2405,-9.3207,-9.3625,-9.4651,-9.4973,-9.4974,-9.6546,-9.863,-9.9477,-9.9866,-9.9999,-10.0063,-9.9926,-9.9789,-9.972,-10.0105,-11.5994,-11.5994,-11.5994,-11.5994,-11.5994,-11.5994,-11.6017,-11.5796,-11.4821,-11.4013,-11.3226,-11.1295,-11.0257,-10.9753,-10.862,-10.7896,-10.7707,-10.7707,-10.7707,-10.7707,-10.7707,-10.7786,-10.7897,-10.8244,-10.8322,-10.8322,-10.8354,-10.8588,-10.8681,-10.8772,-10.9113,-10.8928,-10.812,-10.7928,-10.7831,-10.6852,-10.5356,-10.4161,-10.3816,-10.296,-10.1939,-10.189,-10.1866,-10.138,-10.1381,-10.1629,-10.1457,-10.1003,-10.0577,-10.0648,-10.0322,-9.9961,-9.9638,-9.9565,-9.9996,-10.1223,-10.2451,-10.3445,-10.3822,-10.4969,-10.5347,-10.4182,-10.3867,-10.3665,-10.3238,-10.2294,-10.1727,-10.1727,-10.0468,-9.9943,-9.9565,-9.9565,-9.9565,-9.9565,-9.9565,-9.9565,-9.9565,-9.9565,-9.9565,-9.9565,-9.9565,-9.9565,-9.9565,-9.9565,-9.9638,-9.9784,-10.0033,-10.025,-10.0466,-10.0609,-10.0609,-10.0489,-9.9139,-9.7461,-9.6348,-9.5167,-9.3916,-9.3019,-9.2794,-9.3082,-9.382,-9.5106,-9.6362,-9.7264,-9.726,-9.8352,-9.9931,-10.0642,-10.1259,-10.1392,-10.107,-10.1226,-10.135,-10.096,-10.0794,-11.5994,-11.5994,-11.5994,-11.5994,-11.5994,-11.5994,-11.5576,-11.4736,-11.4075,-11.3069,-11.1547,-11.0225,-10.9375,-10.8589,-10.799,-10.7707,-10.7707,-10.7707,-10.7707,-10.7707,-10.7707,-10.8023,-10.8447,-10.8635,-10.879,-10.8822,-10.8822,-10.8945,-10.8972,-10.8436,-10.8268,-10.8174,-10.7201,-10.6642,-10.6724,-10.5404,-10.4168,-10.3407,-10.2747,-10.2131,-10.117,-10.1419,-10.1457,-10.1527,-10.1667,-10.1875,-10.1806,-10.1317,-10.1035,-10.0894,-10.0466,-10.0033,-9.9857,-9.9638,-10.0122,-10.1381,-10.1979,-10.2829,-10.3553,-10.4119,-10.3836,-10.2734,-10.2388,-10.2042,-10.1349,-10.0783,-10.0311,-10.0342,-9.987,-9.9628,-9.9565,-9.9565,-9.9565,-9.9565,-9.9565,-9.9565,-9.9565,-9.9565,-9.9565,-9.9565,-9.9565,-9.9565,-9.9565,-9.9711,-9.9888,-10.0106,-10.025,-10.0609,-10.0894,-10.0964,-10.0939,-10.0402,-9.9294,-9.7921,-9.6706,-9.5041,-9.3629,-9.3211,-9.3147,-9.3661,-9.4658,-9.604,-9.691,-9.765,-9.8876,-9.981,-10.0228,-10.0776,-10.1521,-10.1875,-10.1875,-10.1741,-10.1709,-10.1447,-10.1548,-11.5994,-11.5994,-11.5994,-11.5994,-11.6048,-11.5639,-11.483,-11.3887,-11.3163,-11.161,-11.0131,-10.947,-10.862,-10.7802,-10.7707,-10.7707,-10.7707,-10.7786,-10.7897,-10.7897,-10.7976,-10.8525,-10.91,-10.9177,-10.9177,-10.9081,-10.873,-10.8711,-10.8736,-10.7619,-10.7095,-10.7031,-10.6007,-10.534,-10.5219,-10.4027,-10.3242,-10.2908,-10.2187,-10.1699,-10.1489,-10.1667,-10.1875,-10.1875,-10.1875,-10.1875,-10.1838,-10.1559,-10.1419,-10.1279,-10.0537,-10.0106,-9.9825,-9.9229,-9.9398,-10.0562,-10.0972,-10.1444,-10.2325,-10.2829,-10.2356,-10.116,-10.0972,-10.0531,-9.9628,-9.9492,-9.9565,-9.9565,-9.9565,-9.9565,-9.9565,-9.9565,-9.9565,-9.9565,-9.9565,-9.9565,-9.9565,-9.9565,-9.9565,-9.9565,-9.9565,-9.9565,-9.9565,-9.9743,-9.9993,-10.025,-10.0537,-10.0791,-10.1247,-10.1387,-10.1387,-10.0725,-9.9793,-9.8381,-9.6807,-9.5044,-9.3853,-9.3564,-9.3531,-9.3854,-9.4851,-9.6075,-9.6848,-9.8103,-9.9456,-10.0586,-10.0909,-10.0937,-10.1328,-10.1875,-10.1875,-10.1875,-10.1875,-10.1263,-10.1166,-11.5994,-11.5994,-11.5994,-11.6048,-11.5796,-11.461,-11.395,-11.3352,-11.1358,-11.0099,-10.9533,-10.8605,-10.7865,-10.7739,-10.7786,-10.7786,-10.7786,-10.8165,-10.8354,-10.851,-10.879,-10.9145,-10.9528,-10.9604,-10.9508,-10.922,-10.8163,-10.78,-10.7895,-10.6651,-10.6016,-10.5855,-10.4632,-10.3931,-10.3738,-10.2643,-10.2096,-10.216,-10.1935,-10.1875,-10.1806,-10.1875,-10.1875,-10.1875,-10.1875,-10.1875,-10.1875,-10.1838,-10.1629,-10.1208,-10.0537,-9.9898,-9.9355,-9.8233,-9.8202,-9.9723,-9.9618,-9.9776,-10.009,-10.1129,-10.1066,-9.9996,-9.9807,-9.9524,-9.9628,-9.9565,-9.9565,-9.9565,-9.9565,-9.9565,-9.9565,-9.9565,-9.9565,-9.9565,-9.9565,-9.9565,-9.9565,-9.9565,-9.9565,-9.9565,-9.9565,-9.9565,-9.9565,-9.9638,-10.0002,-10.0434,-10.0751,-10.1106,-10.1527,-10.1736,-10.1806,-10.1226,-10.0289,-9.8937,-9.7423,-9.5656,-9.4336,-9.3918,-9.3403,-9.3692,-9.4272,-9.527,-9.6107,-9.8361,-10.0232,-10.1134,-10.165,-10.1585,-10.1746,-10.1714,-10.1714,-10.1843,-10.1328,-10.0297,-9.9878,-11.5994,-11.5994,-11.5994,-11.5607,-11.461,-11.4138,-11.2912,-11.1295,-11.0225,-10.9505,-10.8986,-10.8386,-10.8197,-10.8165,-10.8165,-10.8165,-10.8244,-10.8322,-10.8744,-10.9177,-10.9604,-10.98,-10.9983,-10.9951,-10.9598,-10.857,-10.722,-10.6651,-10.6627,-10.538,-10.4639,-10.4414,-10.3223,-10.2579,-10.2482,-10.2101,-10.1875,-10.1875,-10.1875,-10.1875,-10.1875,-10.1875,-10.1875,-10.1875,-10.1875,-10.1875,-10.1875,-10.1875,-10.1667,-10.1279,-10.0751,-9.9671,-9.8211,-9.6974,-9.71,-9.8737,-9.8831,-9.8989,-10.0468,-10.0374,-9.9933,-9.9618,-9.9565,-9.9565,-9.9565,-9.9565,-9.9565,-9.9565,-9.9565,-9.9565,-9.9565,-9.9565,-9.9565,-9.9565,-9.9565,-9.9565,-9.9565,-9.9565,-9.9565,-9.9565,-9.9565,-9.967,-9.9888,-10.0074,-10.0505,-10.0964,-10.1279,-10.1597,-10.1736,-10.1875,-10.1875,-10.1516,-10.0586,-9.9198,-9.7814,-9.6397,-9.498,-9.4079,-9.3338,-9.3531,-9.3886,-9.4787,-9.5656,-9.7846,-9.9266,-10.0007,-10.0582,-10.0973,-10.1005,-10.1392,-10.1231,-10.0171,-9.8596,-9.8013,-9.8045,-11.5828,-11.545,-11.5419,-11.4736,-11.3887,-11.2912,-11.1705,-10.9879,-10.9281,-10.8891,-10.8527,-10.8432,-10.851,-10.8588,-10.8666,-10.8666,-10.8635,-10.879,-10.9177,-10.966,-10.9576,-10.9501,-10.9404,-10.905,-10.8374,-10.727,-10.5919,-10.5243,-10.5058,-10.3899,-10.3223,-10.3062,-10.2289,-10.1907,-10.194,-10.1875,-10.1875,-10.1875,-10.1875,-10.1875,-10.1875,-10.1875,-10.1875,-10.1875,-10.1875,-10.1875,-10.1875,-10.1769,-10.1559,-10.1279,-10.0376,-9.9109,-9.7621,-9.6502,-9.6848,-9.8485,-9.7887,-9.8359,-9.987,-9.9681,-9.9597,-9.9565,-9.9565,-9.9565,-9.9565,-9.9565,-9.9565,-9.9565,-9.9565,-9.9565,-9.9565,-9.9565,-9.9565,-9.9565,-9.9565,-9.9565,-9.9565,-9.9565,-9.9565,-9.9565,-9.967,-9.9816,-10.0106,-10.0434,-10.0823,-10.1208,-10.1419,-10.1699,-10.1838,-10.1875,-10.1875,-10.1746,-10.0522,-9.9266,-9.7814,-9.6397,-9.498,-9.3853,-9.3435,-9.3435,-9.3918,-9.4594,-9.5334,-9.6558,-9.7492,-9.8296,-9.8973,-9.9198,-9.894,-9.9101,-9.9169,-9.7852,-9.5948,-9.5397,-9.5623,-11.5113,-11.3981,-11.3918,-11.3876,-11.3195,-11.1201,-10.9942,-10.955,-10.8368,-10.8244,-10.8542,-10.851,-10.8744,-10.8945,-10.9022,-10.8959,-10.9017,-10.9183,-10.9468,-10.9619,-10.8632,-10.8075,-10.8011,-10.6957,-10.6241,-10.5855,-10.4575,-10.3931,-10.377,-10.2675,-10.2069,-10.1972,-10.194,-10.1875,-10.1875,-10.1875,-10.1875,-10.1875,-10.1875,-10.1875,-10.1875,-10.1875,-10.1875,-10.1875,-10.1875,-10.1843,-10.1779,-10.1431,-10.1125,-10.0792,-9.9209,-9.7874,-9.74,-9.6943,-9.7195,-9.7163,-9.7352,-9.7352,-9.7698,-9.8831,-9.9565,-9.9565,-9.9565,-9.9565,-9.9565,-9.9565,-9.9565,-9.9565,-9.9565,-9.9565,-9.9565,-9.9565,-9.9565,-9.9565,-9.9565,-9.9565,-9.9565,-9.9565,-9.9565,-9.9638,-9.9888,-10.0033,-10.0178,-10.0537,-10.0894,-10.1279,-10.1419,-10.1559,-10.1806,-10.1875,-10.1875,-10.165,-10.0651,-9.9266,-9.7814,-9.6299,-9.4884,-9.3725,-9.3467,-9.337,-9.3789,-9.395,-9.4658,-9.5045,-9.601,-9.6558,-9.7234,-9.8168,-9.7781,-9.7436,-9.6496,-9.5948,-9.4491,-9.3412,-9.3474,-11.3026,-11.2669,-11.2885,-11.2266,-11.1075,-11.0485,-10.9681,-10.8907,-10.8433,-10.8479,-10.8899,-10.9177,-10.9177,-10.91,-10.9298,-10.908,-10.8484,-10.8495,-10.8097,-10.7312,-10.6893,-10.6595,-10.6498,-10.6144,-10.5404,-10.4471,-10.4027,-10.3319,-10.2482,-10.2031,-10.1875,-10.1875,-10.1875,-10.1875,-10.1875,-10.1875,-10.1875,-10.1875,-10.1875,-10.1875,-10.1875,-10.1875,-10.1875,-10.1875,-10.1875,-10.1456,-10.0458,-10.0321,-9.9766,-9.8927,-9.8532,-9.7892,-9.6667,-9.5428,-9.4645,-9.474,-9.5463,-9.6376,-9.7383,-9.8705,-9.9565,-9.9565,-9.9565,-9.9565,-9.9565,-9.9565,-9.9565,-9.9565,-9.9565,-9.9565,-9.9565,-9.9565,-9.9565,-9.9565,-9.9565,-9.9565,-9.9565,-9.9565,-9.9638,-9.9888,-10.0178,-10.0537,-10.0823,-10.0996,-10.1279,-10.1597,-10.1699,-10.1667,-10.1806,-10.1875,-10.1875,-10.1746,-10.0454,-9.894,-9.762,-9.5528,-9.3757,-9.3531,-9.3338,-9.3306,-9.3499,-9.3435,-9.366,-9.3886,-9.4304,-9.4851,-9.5753,-9.6912,-9.7145,-9.6909,-9.6067,-9.4585,-9.2893,-9.1738,-9.1777,-11.1616,-11.219,-11.1897,-11.1201,-11.0235,-10.9809,-10.9302,-10.8666,-10.8635,-10.8868,-10.9253,-10.9528,-10.9604,-10.9419,-10.8623,-10.7959,-10.7367,-10.7303,-10.6788,-10.5983,-10.5444,-10.5187,-10.5154,-10.4671,-10.3931,-10.319,-10.3094,-10.2643,-10.194,-10.1875,-10.1875,-10.1875,-10.1875,-10.1875,-10.1875,-10.1875,-10.1875,-10.1875,-10.1875,-10.1875,-10.1875,-10.1875,-10.1617,-10.1166,-10.0995,-10.0318,-9.904,-9.894,-9.8522,-9.7653,-9.7205,-9.6796,-9.625,-9.446,-9.3512,-9.4047,-9.4834,-9.5613,-9.666,-9.795,-9.8737,-9.8768,-9.9178,-9.9565,-9.9565,-9.9565,-9.9565,-9.9565,-9.9565,-9.9565,-9.9565,-9.9565,-9.9565,-9.9565,-9.9565,-9.9565,-9.9565,-9.9565,-9.9638,-9.9888,-10.025,-10.068,-10.1067,-10.1419,-10.1559,-10.1806,-10.1875,-10.1875,-10.1843,-10.1291,-10.1005,-10.0743,-9.9423,-9.7846,-9.6848,-9.4723,-9.3306,-9.3306,-9.337,-9.337,-9.3306,-9.3306,-9.3464,-9.3754,-9.3531,-9.411,-9.5218,-9.6164,-9.5674,-9.5479,-9.5127,-9.3446,-9.0993,-9.1979,-9.1525,-11.0833,-11.2041,-11.087,-11.0507,-11.0759,-10.9269,-10.8744,-10.91,-10.91,-10.9298,-10.9604,-10.9552,-10.9715,-10.9587,-10.7238,-10.5919,-10.5895,-10.5823,-10.5766,-10.5412,-10.4317,-10.3738,-10.3673,-10.245,-10.194,-10.1999,-10.2101,-10.1972,-10.1907,-10.1875,-10.1875,-10.1875,-10.1875,-10.1875,-10.1875,-10.1875,-10.1875,-10.1875,-10.1875,-10.1875,-10.1875,-10.1714,-10.0876,-9.989,-9.945,-9.8767,-9.7624,-9.7524,-9.7361,-9.7296,-9.5443,-9.4981,-9.5932,-9.4397,-9.3858,-9.4897,-9.5047,-9.511,-9.5267,-9.666,-9.7509,-9.7635,-9.8737,-9.9565,-9.9565,-9.9565,-9.9565,-9.9565,-9.9565,-9.9565,-9.9565,-9.9565,-9.9565,-9.9565,-9.9565,-9.9565,-9.9565,-9.9638,-9.9565,-9.9784,-10.0106,-10.0609,-10.1208,-10.1597,-10.1581,-10.1548,-10.1617,-10.1387,-10.1065,-10.0361,-9.9781,-9.9101,-9.7556,-9.5495,-9.527,-9.4111,-9.3403,-9.337,-9.3464,-9.3527,-9.3401,-9.3401,-9.359,-9.3653,-9.3902,-9.4331,-9.4874,-9.5101,-9.5173,-9.4706,-9.4515,-9.4025,-9.2753,-9.276,-9.2657,-10.9302,-10.9839,-10.9318,-10.9017,-10.9174,-10.9227,-10.9375,-10.9483,-10.9483,-10.956,-10.9584,-10.8816,-10.7969,-10.7045,-10.6346,-10.5308,-10.4439,-10.4343,-10.3931,-10.2965,-10.2546,-10.2353,-10.2353,-10.1967,-10.1875,-10.1875,-10.1875,-10.1875,-10.1875,-10.1875,-10.1875,-10.1875,-10.1875,-10.1875,-10.1875,-10.1875,-10.1875,-10.1843,-10.1875,-10.1875,-10.1516,-9.9842,-9.8989,-9.9319,-9.8508,-9.7436,-9.6139,-9.6043,-9.5429,-9.4173,-9.4259,-9.4337,-9.4385,-9.3786,-9.3481,-9.3827,-9.3858,-9.3858,-9.3821,-9.6061,-9.7415,-9.7509,-9.8705,-9.9565,-9.9565,-9.9565,-9.9565,-9.9439,-9.9565,-9.9471,-9.9565,-9.9565,-9.9565,-9.9565,-9.9565,-9.9638,-9.9794,-9.9961,-10.0011,-10.068,-10.0497,-10.1106,-10.1469,-10.0803,-10.0329,-10.0232,-9.9456,-9.8747,-9.8618,-9.849,-9.8168,-9.8071,-9.6654,-9.5109,-9.4079,-9.3626,-9.3403,-9.3401,-9.4179,-9.4543,-9.4543,-9.5411,-9.5789,-9.5173,-9.5639,-9.6013,-9.6277,-9.7046,-9.7476,-9.6263,-9.5834,-9.5703,-9.4359,-9.4954,-9.4745,-10.8945,-10.9222,-10.9022,-10.9022,-10.9253,-10.9451,-10.936,-10.903,-10.8966,-10.8613,-10.8003,-10.6843,-10.5895,-10.5018,-10.451,-10.3834,-10.3062,-10.3029,-10.2579,-10.194,-10.1875,-10.1875,-10.1875,-10.1875,-10.1875,-10.1875,-10.1875,-10.1875,-10.1875,-10.1875,-10.1875,-10.1843,-10.1263,-10.0937,-10.0973,-10.0458,-10.0099,-10.0099,-10.0099,-10.0099,-9.9878,-9.8311,-9.7565,-9.7627,-9.6979,-9.5915,-9.4755,-9.4594,-9.4047,-9.3115,-9.34,-9.3487,-9.3155,-9.2816,-9.2578,-9.2442,-9.2442,-9.2442,-9.2442,-9.4488,-9.5715,-9.5715,-9.7509,-9.8611,-9.8642,-9.9178,-9.886,-9.7914,-9.8087,-9.8191,-9.7802,-9.7793,-9.7793,-9.7793,-9.7761,-9.7802,-9.8079,-9.8222,-9.8538,-9.8961,-9.931,-9.9587,-9.9665,-9.9259,-9.8908,-9.8715,-9.8232,-9.7781,-9.7588,-9.7073,-9.6815,-9.6624,-9.5948,-9.4781,-9.3754,-9.3996,-9.4486,-9.4393,-9.4994,-9.5756,-9.5814,-9.6448,-9.6811,-9.6754,-9.6642,-9.6754,-9.7299,-9.8207,-9.8595,-9.8032,-9.7531,-9.7159,-9.5761,-9.5852,-9.5892,-10.933,-10.968,-10.9604,-10.9736,-10.9877,-10.9415,-10.8645,-10.7914,-10.7882,-10.7013,-10.5501,-10.415,-10.3641,-10.348,-10.2418,-10.2004,-10.194,-10.1875,-10.1907,-10.1875,-10.1875,-10.1875,-10.1875,-10.1875,-10.1875,-10.1875,-10.1875,-10.1779,-10.1585,-10.1617,-10.1484,-10.1291,-10.02,-9.9523,-9.9359,-9.8296,-9.7685,-9.762,-9.7296,-9.7236,-9.7303,-9.7068,-9.635,-9.54,-9.5078,-9.4393,-9.3466,-9.3306,-9.3306,-9.3242,-9.2922,-9.26,-9.2274,-9.1787,-9.1327,-9.1029,-9.0872,-9.0903,-9.1025,-9.2442,-9.3449,-9.3512,-9.588,-9.7346,-9.7219,-9.8292,-9.7692,-9.5713,-9.6086,-9.6609,-9.5446,-9.5541,-9.5698,-9.5684,-9.5519,-9.5306,-9.5565,-9.5655,-9.5895,-9.5964,-9.7069,-9.712,-9.7476,-9.7645,-9.7653,-9.7492,-9.6976,-9.6719,-9.6654,-9.5882,-9.527,-9.5206,-9.506,-9.4371,-9.3779,-9.5206,-9.5246,-9.4844,-9.5723,-9.6273,-9.6441,-9.6586,-9.6999,-9.7396,-9.7185,-9.7227,-9.8015,-9.8516,-9.8329,-9.7765,-9.7799,-9.7901,-9.679,-9.6103,-9.5274,-10.9756,-11.0059,-10.9724,-10.919,-10.8429,-10.7261,-10.6618,-10.6402,-10.637,-10.5058,-10.2933,-10.2418,-10.2257,-10.2257,-10.1967,-10.1875,-10.1875,-10.1875,-10.1875,-10.1875,-10.1875,-10.1875,-10.1875,-10.1875,-10.1875,-10.1875,-10.1875,-10.1295,-10.0329,-10.0232,-9.9649,-9.8618,-9.8232,-9.8103,-9.8039,-9.7749,-9.762,-9.7492,-9.5399,-9.4718,-9.5585,-9.4675,-9.4513,-9.5033,-9.4218,-9.359,-9.337,-9.3306,-9.3179,-9.2858,-9.2568,-9.2274,-9.1817,-9.0443,-8.9581,-8.942,-8.857,-8.8413,-8.9546,-9.1875,-9.3355,-9.3386,-9.5563,-9.6418,-9.5494,-9.5558,-9.5068,-9.4222,-9.6069,-9.7002,-9.5509,-9.578,-9.6145,-9.5376,-9.5236,-9.5219,-9.563,-9.6039,-9.6413,-9.6718,-9.7155,-9.7391,-9.7455,-9.7554,-9.7039,-9.601,-9.4948,-9.4336,-9.4272,-9.4079,-9.3821,-9.3788,-9.3785,-9.3653,-9.3433,-9.3993,-9.3992,-9.3384,-9.4417,-9.5497,-9.6238,-9.619,-9.6776,-9.8446,-9.7567,-9.6619,-9.774,-9.7306,-9.6532,-9.6394,-9.6346,-9.6304,-9.567,-9.5504,-9.4593,-10.8023,-10.8204,-10.8055,-10.7638,-10.7013,-10.6241,-10.5533,-10.4961,-10.4317,-10.319,-10.194,-10.1875,-10.1521,-10.0941,-10.0909,-10.0554,-9.9906,-9.9906,-9.9874,-9.9906,-9.9874,-9.9906,-9.9906,-9.9874,-9.9874,-9.9874,-9.9874,-9.9488,-9.8779,-9.8715,-9.8329,-9.7685,-9.762,-9.7266,-9.6622,-9.5978,-9.5656,-9.5592,-9.4111,-9.3558,-9.4208,-9.3621,-9.3558,-9.4241,-9.3684,-9.3306,-9.3306,-9.3306,-9.321,-9.3019,-9.2729,-9.2021,-9.1059,-8.9941,-8.8986,-8.8161,-8.6871,-8.643,-8.7123,-8.8035,-8.8986,-9.0008,-9.1504,-9.1673,-9.0186,-9.1728,-9.2129,-9.0695,-9.281,-9.3785,-9.2364,-9.2803,-9.3085,-9.2442,-9.3008,-9.3523,-9.3932,-9.4302,-9.4637,-9.4969,-9.5362,-9.5656,-9.5656,-9.5656,-9.527,-9.4658,-9.3918,-9.337,-9.337,-9.3338,-9.3338,-9.337,-9.3809,-9.4055,-9.4147,-9.4447,-9.462,-9.4501,-9.4882,-9.5392,-9.5892,-9.5359,-9.5598,-9.6836,-9.5449,-9.4339,-9.4755,-9.4339,-9.3922,-9.3784,-9.3784,-9.3448,-9.3007,-9.2788,-9.141,-10.5991,-10.5991,-10.5991,-10.5823,-10.563,-10.5669,-10.4865,-10.3448,-10.2096,-10.142,-10.1226,-10.1328,-10.0518,-9.9427,-9.9427,-9.8715,-9.7653,-9.762,-9.762,-9.762,-9.762,-9.762,-9.762,-9.762,-9.762,-9.762,-9.762,-9.7492,-9.7331,-9.7298,-9.717,-9.7009,-9.7009,-9.6365,-9.5173,-9.3918,-9.3306,-9.3306,-9.3306,-9.3306,-9.3306,-9.3306,-9.3403,-9.3564,-9.3435,-9.3403,-9.3596,-9.3403,-9.3403,-9.3596,-9.3051,-9.2089,-9.0587,-8.9535,-8.8296,-8.662,-8.4982,-8.4257,-8.4507,-8.3283,-8.349,-8.5762,-8.6517,-8.6138,-8.4586,-8.7569,-8.8633,-8.656,-8.8185,-8.8853,-8.7807,-8.8139,-8.842,-8.8256,-8.9231,-9.0088,-9.0418,-9.0934,-9.148,-9.2025,-9.2601,-9.3081,-9.3177,-9.3338,-9.3499,-9.3113,-9.3209,-9.3306,-9.3209,-9.2823,-9.25,-9.2748,-9.3567,-9.4153,-9.3497,-9.4594,-9.4382,-9.5136,-9.4381,-9.3919,-9.4247,-9.3218,-9.2743,-9.3343,-9.2025,-9.1009,-9.1182,-9.0905,-9.0662,-9.0662,-9.0662,-9.0394,-8.9517,-8.8648,-8.7856,-10.5991,-10.5991,-10.5991,-10.5243,-10.4221,-10.4221,-10.3448,-10.2096,-10.0748,0.0,0.0,-9.8361,-9.82,-9.7974,-9.7974,-9.7846,-9.762,-9.762,-9.762,-9.762,-9.762,-9.762,-9.762,-9.762,-9.762,-9.762,-9.762,-9.6942,-9.5882,-9.5817,-9.527,-9.4143,-9.4046,-9.3918,-9.3692,-9.3435,-9.3306,-9.3306,-9.3306,-9.3306,-9.3306,-9.3306,-9.3886,-9.5045,-9.395,-9.3886,-9.5012,-9.395,-9.3853,-9.498,-9.3564,-9.2505,-9.1893,-8.8361,-8.5514,-8.3785,-8.1237,-8.0645,-8.2398,-8.1684,-8.2159,-8.4415,-8.5289,-8.4979,-8.3115,-8.4118,-8.4256,-8.2971,-8.5135,-8.5855,-8.4026,-8.4611,-8.4827,-8.4005,-8.4102,-8.4508,-8.4943,-8.6136,-8.7749,-8.9049,-9.0512,-9.1535,-9.1471,-9.234,-9.292,-9.1954,-9.2179,-9.3306,-9.2887,-9.0277,-8.8702,-8.94,-9.0427,-9.0557,-8.9478,-8.9503,-8.9089,-8.9518,-8.919,-8.9119,-8.9739,-8.8997,-8.9101,-9.1078,-8.9379,-8.8338,-8.9032,-8.8338,-8.7567,-8.7541,-8.7498,-8.7437,-8.7028,-8.5504,-8.4185,-10.3899,-10.3834,-10.3834,-10.348,0.0,-10.2836,-10.1613,-9.9617,-9.894,-9.8264,-9.762,-9.762,-9.7202,-9.6493,-9.6526,-9.6139,-9.5431,-9.5431,-9.5463,-9.5431,-9.5431,-9.5431,-9.5431,-9.5431,-9.5431,-9.5431,-9.5431,-9.5077,-9.4401,-9.4368,-9.4014,-9.3338,-9.3306,-9.3306,-9.3306,-9.3306,-9.3306,-9.3306,-9.3306,-9.3306,-9.3306,-9.3306,-9.3628,-9.4304,-9.3692,0.0,0.0,0.0,0.0,0.0,0.0,0.0,0.0,0.0,0.0,-8.1476,-7.8779,-7.7676,-7.8723,-7.7508,-7.7029,-7.7754,-8.0287,-8.066,-7.7825,-7.8572,-7.9509,-8.0068,-8.057,-8.0482,-7.9513,-8.0067,-8.0593,-8.0761,-8.1545,-8.2479,-8.3443,-8.4505,-8.5474,-8.6537,-8.7359,-8.7961,-8.7961,-8.8605,-8.8637,-8.8122,-8.8513,-8.8895,-8.8766,-8.7531,-8.6718,-8.7336,-8.8186,-8.8729,-8.8568,-8.8077,-8.7638,-8.7964,-8.7515,-8.7289,-8.7767,-8.6631,-8.6007,-8.7298,-8.6049,-8.4627,-8.5356,-8.4974,-8.4454,-8.4454,-8.4536,-8.4617,-8.4634,-8.3866,-8.3089,-10.1033,-10.1001,-10.1001,-10.1001,-10.1033,-10.1001,-9.9552,-9.7202,-9.7202,-9.7041,-9.6815,-9.6783,-9.6139,-9.5077,-9.5045,-9.4401,-9.3338,-9.3306,-9.3306,-9.3306,-9.3306,-9.3306,-9.3306,-9.3306,-9.3306,-9.3306,-9.3306,-9.3306,-9.3306,-9.3306,-9.3306,-9.3306,-9.3306,-9.3306,-9.3306,0.0,0.0,0.0,-9.3306,-9.3306,-9.3306,-9.3306,-9.3435,-9.3692,-9.3435,0.0,-9.3274,-9.1922,-9.1052,-9.0698,-8.7692,0.0,0.0,0.0,0.0,0.0,0.0,0.0,0.0,0.0,0.0,0.0,-7.3977,-7.4974,-7.2024,-7.3639,-7.5464,-7.6878,-7.6035,-7.5186,-7.4858,-7.5365,-7.6203,-7.7164,-7.8439,-7.9864,-8.1289,-8.1991,-8.2573,-8.3107,-8.3654,-8.3944,-8.404,-8.4459,-8.4716,-8.4587,-8.4587,-8.433,-8.3397,-8.4022,-8.4779,-8.5169,-8.5666,-8.6854,-8.8059,-8.6948,-8.634,-8.7318,-8.6604,-8.5869,-8.5695,-8.4759,-8.4142,-8.417,-8.3101,-8.2343,-8.2343,-8.2239,-8.2448,-8.2314,-8.2502,-8.2698,-8.2861,-8.3089,-8.3239,-9.8135,-9.8135,-9.8135,-9.8135,-9.8135,-9.8135,-9.7234,-9.5721,-9.5721,-9.5045,-9.3853,-9.3853,-9.3757,-9.3596,-9.3564,-9.3499,-9.3306,-9.3306,-9.3306,-9.3306,-9.3306,-9.3306,-9.3306,-9.3306,-9.3306,-9.3306,-9.3306,-9.3306,-9.3306,-9.3306,-9.3306,-9.3306,-9.3306,-9.3306,-9.3274,-9.205,-9.205,-9.3306,-9.3306,-9.3306,-9.3306,-9.3306,-9.3918,-9.5045,-9.395,-9.3306,-9.3274,-9.1922,-9.0569,-8.9281,-8.655,-8.4221,-8.249,-7.9106,-7.6185,0.0,-7.3372,0.0,0.0,0.0,0.0,0.0,0.0,0.0,0.0,-7.1769,-7.3662,-7.2462,-7.284,-7.2268,-7.0395,-7.1447,-7.2119,-7.1794,-7.1983,-7.2402,-7.3204,-7.4394,-7.5768,-7.7272,-7.9558,-8.0984,-8.1048,-8.3236,-8.4201,-8.3011,-8.3493,-8.2584,-7.8807,-7.9009,-8.0283,-8.0751,-8.1651,-8.3034,-8.3441,-8.3238,-8.3147,-8.32,-8.3136,-8.2829,-8.2928,-8.272,-8.2546,-8.2512,-8.2373,-8.2239,-8.2239,-8.2239,-8.2279,-8.2507,-8.2446,-8.2532,-8.2806,-8.2998,-8.3355,-9.762,-9.762,-9.762,-9.5753,-9.2855,-9.2823,-9.2469,-9.1889,-9.1889,-9.1535,-9.0923,-9.0923,-9.0923,-9.0891,-9.0086,-9.0151,-9.0923,-9.0923,-9.1342,-9.2082,-9.2115,-9.2565,-9.3306,-9.3306,-9.3306,-9.3306,-9.3306,-9.2887,-9.2147,-9.2115,-9.1696,-9.0923,-9.0923,-9.0956,-9.0891,-9.0279,-9.0666,-9.2082,-9.2115,-9.2501,-9.3274,-9.3306,-9.3596,-9.4207,-9.2887,-9.2115,-9.2115,-8.9217,-8.6963,-8.545,-8.2069,-7.9385,-7.7616,-7.4917,-7.2737,0.0,0.0,0.0,0.0,0.0,0.0,0.0,0.0,0.0,0.0,0.0,-6.883,-6.717,-6.8321,-6.8315,-6.635,-6.7489,-6.8278,-6.8201,-6.831,-6.8631,-6.9291,-7.0077,-7.1105,-7.2636,-7.3891,-7.5276,-7.6853,-7.812,-7.8978,-7.9139,-7.9043,-7.845,-7.7452,-7.8203,-7.9124,-7.9623,-8.0927,-8.1992,-8.2177,-8.2239,-8.2239,-8.2239,-8.2239,-8.2239,-8.2239,-8.2239,-8.2239,-8.2239,-8.2239,-8.2239,-8.2393,-8.2393,-8.2472,-8.2458,-8.1492,-8.0524,-8.0641,-8.075,-8.0822,-9.6397,-9.5978,-9.498,-9.205,-8.8026,-8.8026,-8.8026,-8.7994,-8.8026,-8.8026,-8.7961,-8.7639,-8.7511,-8.7446,-8.6351,-8.6448,-8.7511,-8.7865,-8.8798,-9.0118,-9.0151,-9.0923,-9.2243,-9.2276,-9.2308,-9.2276,-9.2308,-9.1535,-9.0215,-9.0151,-8.9571,-8.8509,-8.7446,-8.7055,-8.7173,-8.7791,-8.8823,-9.0241,-9.0534,-9.1404,-9.2759,-9.3145,-9.3145,-9.2791,-9.1728,-9.0698,-8.9636,-8.6132,-8.3268,-8.1168,-7.7321,-7.4401,-7.2814,-7.0496,0.0,0.0,0.0,0.0,0.0,0.0,0.0,0.0,0.0,-5.6223,-5.7122,0.0,-6.3771,0.0,-6.4944,-6.581,-6.3997,-6.5163,0.0,0.0,-6.6105,-6.6137,-6.7221,-6.7047,-6.7194,-6.8321,-6.903,-7.0285,-7.2507,-7.3294,-7.4052,-7.4696,-7.4213,-7.4386,-7.6089,-7.7076,-7.7582,-7.7642,-7.8842,-8.0138,-7.9994,-8.0494,-8.0788,-8.1085,-8.109,-8.109,-8.109,-8.109,-8.1164,-8.1203,-8.1238,-8.1316,-8.1475,-8.1545,-8.1381,-8.0733,-7.9059,-7.7622,-7.8147,-7.8252,-7.8323,-9.2855,-9.1342,-8.7387,-8.5488,-8.507,-8.507,-8.5038,-8.507,-8.5038,-8.507,-8.4973,-8.3686,-8.3107,-8.3164,-8.2979,0.0,-8.3228,-8.4459,-8.5836,-8.7248,-8.728,-8.7961,-8.9346,-8.9346,-8.9346,-8.9346,-8.9346,-8.8573,-8.7221,-8.7156,-8.7216,-8.6931,-8.3132,-8.1388,-8.1976,-8.4286,-8.6121,-8.7576,-8.8869,-9.0137,-9.131,-9.263,-9.2694,-9.1342,-9.1245,-8.9314,-8.5456,-8.3622,-8.0975,-7.7067,-7.3514,-7.09,-6.9439,0.0,0.0,0.0,0.0,0.0,0.0,0.0,0.0,0.0,0.0,0.0,0.0,0.0,0.0,0.0,-6.4189,0.0,-6.4639,-6.6078,0.0,0.0,0.0,-6.4407,-6.6861,-6.5207,-6.3954,-6.4051,0.0,0.0,-6.8321,-7.064,-7.1814,-7.064,-7.1541,-7.2346,-7.2509,-7.2834,-7.2688,-7.3062,-7.366,-7.4221,-7.5071,-7.6264,-7.7472,-7.7993,-7.7896,-7.793,-7.7896,-7.7933,-7.8041,-7.8226,-7.8263,-7.8338,-7.8489,-7.8386,-7.776,-7.5476,-7.4769,-7.498,-7.621,-7.6492,-7.6774,-8.7092,-8.335,-8.0749,-7.8721,-7.7155,-7.7123,-7.8109,-7.9687,-7.9687,-7.9719,-7.9655,-7.9075,-7.7433,-7.505,-7.5868,0.0,0.0,0.0,-7.9655,-8.19,-8.2649,-8.4259,-8.6384,-8.6448,-8.648,-8.6416,-8.5579,-8.442,-8.3035,-8.2198,-8.0982,-7.9098,0.0,0.0,-7.9485,-8.0845,-8.2536,-8.4658,-8.6146,-8.8233,-9.1084,-9.0859,-9.044,-8.9861,-8.8187,-8.6067,-8.3493,-8.0492,-7.6853,-7.2717,-7.0841,-6.8369,0.0,0.0,0.0,0.0,0.0,0.0,0.0,0.0,0.0,0.0,0.0,-4.6307,-4.6154,0.0,0.0,0.0,-5.6745,-5.8291,-5.8078,-6.1803,0.0,0.0,0.0,0.0,0.0,0.0,0.0,-6.0958,-6.2709,-6.4619,-6.6325,-6.6776,-6.7662,-6.94,-6.9579,-7.0362,-7.2648,0.0,-7.3126,-7.3669,-7.4592,-7.5368,-7.5877,-7.6706,-7.7079,-7.644,-7.554,-7.4881,-7.4847,-7.4847,-7.4919,-7.5098,-7.5168,-7.5205,-7.5521,-7.4118,-7.2567,-7.1638,-7.1423,-7.1599,-7.2197,-7.2373,-7.2514,-8.0073,0.0,0.0,0.0,0.0,-6.9674,-7.0833,-7.2717,-7.2717,-7.2717,-7.2717,-7.2717,0.0,0.0,0.0,0.0,0.0,0.0,-7.3763,-7.6113,-7.7916,-7.9729,-8.1724,-8.2198,-8.2391,-8.2327,-8.1329,-7.9934,-7.8066,-7.5655,-7.3336,-7.1385,0.0,0.0,0.0,0.0,-7.9094,-8.1692,-8.3253,-8.579,-8.9371,-8.9181,-8.9024,-8.9024,-8.5869,-8.3132,-8.091,-7.6757,-7.2831,-6.9228,-6.7594,0.0,0.0,0.0,0.0,0.0,0.0,0.0,0.0,0.0,0.0,0.0,0.0,0.0,0.0,0.0,0.0,0.0,0.0,0.0,-5.4018,-5.7922,-5.9943,0.0,0.0,0.0,0.0,0.0,0.0,0.0,0.0,0.0,-6.3052,-6.2804,-6.3577,0.0,0.0,-6.8225,-7.0875,-7.1829,-7.2542,-7.3192,-7.4161,0.0,-7.5561,-7.5476,-7.493,-7.3968,-7.2552,-7.162,-7.1899,-7.1933,-7.1933,-7.2068,-7.2138,-7.1892,-7.1347,-6.9289,-6.7873,-6.8154,-6.8225,-6.8366,-6.8788,-6.8929,-6.9069,0.0,0.0,0.0,0.0,0.0,0.0,0.0,0.0,-6.4083,-6.4147,0.0,-6.4179,0.0,0.0,0.0,0.0,-6.3975,-6.6679,0.0,0.0,-7.3119,-7.4452,-7.4696,-7.6036,-7.6648,-7.6648,-7.6519,-7.5139,-7.2317,-6.7207,0.0,0.0,0.0,0.0,0.0,0.0,-7.5854,-7.8811,-8.051,-8.2669,-8.537,-8.7754,-8.902,-8.8831,-8.4935,-8.0781,-7.6712,-7.2492,-6.9098,-6.6811,-6.3572,0.0,0.0,0.0,0.0,0.0,0.0,0.0,0.0,0.0,0.0,0.0,0.0,0.0,0.0,0.0,0.0,0.0,0.0,0.0,0.0,-5.5616,0.0,0.0,0.0,0.0,0.0,0.0,0.0,0.0,0.0,0.0,-5.7775,-5.8847,-6.0242,-6.157,0.0,0.0,0.0,0.0,-6.9524,-6.96,-7.0455,-7.1179,-7.1185,-6.995,-6.9225,-6.9898,0.0,0.0,-6.9,-6.9129,-6.9161,-6.9285,-6.9282,-6.8468,-6.5733,-6.4101,-6.3432,-6.477,-6.5016,-6.558,-6.6882,-6.6953,-6.7375,0.0,0.0,0.0,0.0,0.0,0.0,0.0,0.0,0.0,-6.0787,0.0,-6.0746,0.0,0.0,0.0,0.0,0.0,0.0,0.0,0.0,-6.7132,-6.8239,-6.7603,-6.9895,-7.0524,0.0,-6.8867,-6.7245,0.0,0.0,0.0,0.0,0.0,0.0,0.0,0.0,-7.283,-7.5026,-7.7545,-8.1007,-8.5257,-8.5468,-8.584,-8.6573,-8.3405,-7.8644,-7.241,-6.8491,-6.5455,0.0,0.0,0.0,0.0,0.0,0.0,0.0,0.0,0.0,0.0,0.0,0.0,0.0,0.0,0.0,0.0,0.0,0.0,0.0,0.0,0.0,0.0,0.0,-5.0999,0.0,0.0,0.0,0.0,0.0,0.0,0.0,0.0,0.0,-5.4808,-5.6892,-5.8936,-6.025,-6.217,-6.3769,-6.4602,0.0,0.0,0.0,0.0,0.0,0.0,0.0,-6.7844,-6.6992,-6.7055,-6.6984,-6.6094,-6.595,-6.6046,-6.6263,0.0,0.0,-6.2243,-6.1461,-6.1242,-6.1778,-6.1154,-6.0934,-6.2486,-6.2081,-6.1879,0.0,0.0,0.0,0.0,0.0,0.0,0.0,0.0,0.0,-5.4311,-5.4343,0.0,0.0,0.0,0.0,0.0,0.0,0.0,0.0,0.0,0.0,0.0,-6.2712,-6.5433,0.0,0.0,0.0,0.0,0.0,0.0,0.0,0.0,0.0,0.0,0.0,0.0,-6.9336,-7.2521,-7.4884,-7.8572,-8.3484,-8.3169,-8.3483,-8.469,-8.1511,-7.6965,-7.1009,0.0,0.0,0.0,0.0,0.0,0.0,0.0,0.0,0.0,0.0,0.0,0.0,0.0,0.0,0.0,0.0,0.0,0.0,0.0,0.0,0.0,0.0,0.0,0.0,0.0,-4.5625,0.0,0.0,0.0,0.0,0.0,0.0,0.0,0.0,0.0,0.0,0.0,-5.7608,-5.9247,-6.1211,-6.2775,-6.3394,-6.4962,-6.6266,0.0,0.0,0.0,0.0,0.0,0.0,0.0,0.0,0.0,0.0,0.0,0.0,0.0,0.0,-5.9217,-5.8795,-5.8283,-5.8133,-5.8661,0.0,0.0,0.0,0.0,0.0,0.0,0.0,0.0,0.0,0.0,0.0,0.0,0.0,0.0,0.0,-4.4591,0.0,0.0,-4.2877,0.0,0.0,0.0,0.0,0.0,0.0,0.0,0.0,0.0,0.0,0.0,0.0,0.0,0.0,0.0,0.0,0.0,0.0,0.0,0.0,0.0,0.0,-6.5578,-7.1322,-7.2543,-7.5271,-7.9654,-8.0865,-8.2073,-8.3267,-7.934,-7.5628,-7.23,0.0,0.0,0.0,0.0,0.0,0.0,0.0,0.0,0.0,0.0,0.0,0.0,0.0,0.0,0.0,0.0,0.0,0.0,0.0,0.0,0.0,0.0,0.0,0.0,0.0,0.0,-4.1078,-4.2816,-4.5642,0.0,0.0,0.0,0.0,0.0,0.0,0.0,0.0,0.0,-5.8338,-6.1219,-6.2843,-6.2287,-6.4237,-6.5723,-6.5801,-6.7153,-6.8226,-6.8158,-6.6848,-6.6074,0.0,0.0,0.0,0.0,0.0,0.0,0.0,0.0,0.0,0.0,0.0,0.0,0.0,0.0,0.0,0.0,0.0,0.0,0.0,0.0,0.0,0.0,0.0,0.0,0.0,0.0,0.0,0.0,0.0,0.0,0.0,0.0,0.0,0.0,0.0,0.0,0.0,0.0,0.0,0.0,0.0,0.0,0.0,0.0,0.0,0.0,0.0,0.0,0.0,0.0,0.0,0.0,0.0,0.0,-6.4823,-6.9316,-7.1086,-7.4362,-7.9195,-8.0063,-8.0131,-7.9323,-7.622,-7.2517,0.0,0.0,0.0,0.0,0.0,0.0,0.0,0.0,0.0,0.0,0.0,0.0,0.0,0.0,0.0,0.0,0.0,0.0,0.0,0.0,0.0,0.0,0.0,0.0,0.0,0.0,0.0,0.0,-4.4524,-4.4718,-4.4548,0.0,0.0,0.0,0.0,0.0,0.0,0.0,0.0,0.0,0.0,-6.0179,-6.1001,-6.2431,-6.3478,-6.3675,-6.3915,-6.4113,-6.4194,-6.3365,-6.2617,-6.2197,0.0,0.0,0.0,0.0,0.0,0.0,0.0,0.0,0.0,0.0,0.0,0.0,0.0,0.0,0.0,0.0,0.0,0.0,0.0,0.0,0.0,0.0,0.0,0.0,0.0,0.0,0.0,0.0,0.0,0.0,0.0,0.0,0.0,0.0,0.0,0.0,0.0,0.0,0.0,0.0,0.0,0.0,0.0,0.0,0.0,0.0,0.0,0.0,0.0,0.0,0.0,0.0,0.0,-6.323,-6.7808,-6.9192,-7.2453,-7.7568,-7.8249,-7.8187,-7.7743,-7.4367,-7.0737,0.0,0.0,0.0,0.0,0.0,0.0,0.0,0.0,0.0,0.0,0.0,0.0,0.0,0.0,0.0,0.0,0.0,0.0,0.0,0.0,0.0,0.0,0.0,0.0,0.0,0.0,0.0,0.0,-4.2301,-4.2048,-4.0994,0.0,0.0,0.0,0.0,0.0,0.0,0.0,0.0,0.0,0.0,-5.9448,-6.0055,-6.1263,0.0,0.0,-6.2226,-6.2147,-6.1395,-6.1197,-6.0822,-5.9913,-5.9751,0.0,0.0,0.0,0.0,0.0,0.0,0.0,0.0,0.0,0.0,0.0,0.0,0.0,0.0,0.0,0.0,0.0,0.0,0.0,0.0,0.0,0.0,0.0,0.0,0.0,0.0,0.0,0.0,0.0,0.0,0.0,0.0,0.0,0.0,0.0,0.0,0.0,0.0,0.0,0.0,0.0,0.0,0.0,0.0,0.0,0.0,0.0,0.0,0.0,0.0,0.0,0.0,0.0,-6.674,-6.7163,-7.0021,-7.5383,-7.5732,-7.6328,-7.7382,-7.3419,-6.9693,0.0,0.0,0.0,0.0,0.0,0.0,0.0,0.0,0.0,0.0,0.0,0.0,0.0,0.0,0.0,0.0,0.0,0.0,0.0,0.0,0.0,0.0,0.0,0.0,0.0,0.0,0.0,0.0,0.0,0.0,0.0,0.0,0.0,0.0,0.0,0.0,0.0,0.0,0.0,0.0,0.0,-5.9907,-5.933,-6.0501,-6.1327,0.0,-6.1826,-6.1938,-5.9841,-6.0041,-6.0136,-5.9112,0.0,0.0,0.0,0.0,0.0,0.0,0.0,0.0,0.0,0.0,0.0,0.0,0.0,0.0,0.0,0.0,0.0,0.0,0.0,0.0,0.0,0.0,0.0,0.0,0.0,0.0,0.0,0.0,0.0,0.0,0.0,0.0,0.0,0.0,0.0,0.0,0.0,0.0,0.0,0.0,0.0,0.0,0.0,0.0,0.0,0.0,0.0,0.0,0.0,0.0,0.0,0.0,0.0,0.0,-6.6263,-6.7964,-7.0548,-7.4112,-7.4757,-7.4435,-7.3136,-6.9945,0.0,0.0,0.0,0.0,0.0,0.0,0.0,0.0,0.0,0.0,0.0,0.0,0.0,0.0,0.0,0.0,0.0,0.0,0.0,0.0,0.0,0.0,0.0,0.0,0.0,0.0,0.0,-3.2759,0.0,0.0,0.0,0.0,0.0,0.0,0.0,0.0,0.0,0.0,0.0,0.0,0.0,0.0,-5.6954,-5.849,-5.9486,-6.0337,0.0,0.0,-6.0848,-6.031,-5.9388,-5.8098,0.0,0.0,0.0,0.0,0.0,0.0,0.0,0.0,0.0,0.0,0.0,0.0,0.0,0.0,0.0,0.0,0.0,0.0,0.0,0.0,0.0,0.0,0.0,0.0,0.0,0.0,0.0,0.0,0.0,0.0,0.0,0.0,0.0,0.0,0.0,0.0,0.0,0.0,0.0,0.0,0.0,0.0,0.0,0.0,0.0,0.0,0.0,0.0,0.0,0.0,0.0,0.0,0.0,0.0,-6.1386,-6.5478,-6.7145,-6.949,-7.2616,-7.3192,-7.2808,-7.1524,-6.8662,-6.5206,0.0,0.0,0.0,0.0,0.0,0.0,0.0,0.0,0.0,0.0,0.0,0.0,0.0,0.0,0.0,0.0,0.0,0.0,0.0,0.0,0.0,0.0,0.0,0.0,0.0,0.0,0.0,0.0,0.0,0.0,0.0,0.0,0.0,0.0,0.0,0.0,0.0,0.0,0.0,0.0,0.0,0.0,-5.6286,-5.7924,0.0,0.0,0.0,-5.8943,-5.7401,0.0,0.0,0.0,0.0,0.0,0.0,0.0,0.0,0.0,0.0,0.0,0.0,0.0,0.0,0.0,0.0,0.0,0.0,0.0,0.0,0.0,0.0,0.0,0.0,0.0,0.0,0.0,0.0,0.0,0.0,0.0,0.0,0.0,0.0,0.0,0.0,0.0,0.0,0.0,0.0,0.0,0.0,0.0,0.0,0.0,0.0,0.0,0.0,0.0,0.0,0.0,0.0,0.0,0.0,0.0,0.0,0.0,-6.4561,-6.5698,-6.7942,-7.1218,-7.1352,-7.1308,-7.1275,-6.8386,-6.4788,0.0,0.0,0.0,0.0,0.0,0.0,0.0,0.0,0.0,0.0,0.0,0.0,0.0,0.0,0.0,0.0,0.0,0.0,0.0,0.0,0.0,0.0,0.0,0.0,0.0,0.0,0.0,0.0,0.0,0.0,0.0,0.0,0.0,0.0,0.0,0.0,0.0,0.0,0.0,0.0,0.0,-5.2736,-5.3692,-5.6128,-5.7904,0.0,0.0,-5.6849,-5.3636,-5.2744,0.0,0.0,0.0,0.0,0.0,0.0,0.0,0.0,0.0,0.0,0.0,0.0,0.0,0.0,0.0,0.0,0.0,0.0,0.0,0.0,0.0,0.0,0.0,0.0,0.0,0.0,0.0,0.0,0.0,0.0,0.0,0.0,0.0,0.0,0.0,0.0,0.0,0.0,0.0,0.0,0.0,0.0,0.0,0.0,0.0,0.0,0.0,0.0,0.0,0.0,0.0,0.0,0.0,0.0,0.0,0.0,-6.3248,-6.5741,-6.8224,-7.0593,-7.0132,-6.9825,-6.9791,-6.6957,-6.3279,0.0,0.0,0.0,0.0,0.0,0.0,0.0,0.0,0.0,0.0,0.0,0.0,0.0,0.0,0.0,0.0,0.0,0.0,0.0,0.0,0.0,0.0,0.0,0.0,0.0,0.0,0.0,0.0,0.0,0.0,0.0,0.0,0.0,0.0,0.0,0.0,0.0,0.0,0.0,0.0,0.0,-5.0561,-5.327,-5.4353,0.0,0.0,0.0,0.0,-5.4639,-5.2675,0.0,0.0,0.0,0.0,0.0,0.0,0.0,0.0,0.0,0.0,0.0,0.0,0.0,0.0,0.0,0.0,0.0,0.0,0.0,0.0,0.0,0.0,0.0,0.0,0.0,0.0,0.0,0.0,0.0,0.0,0.0,0.0,0.0,0.0,0.0,0.0,0.0,0.0,0.0,0.0,0.0,0.0,0.0,0.0,0.0,0.0,0.0,0.0,0.0,0.0,0.0,0.0,0.0,0.0,0.0,0.0,-6.24,-6.5262,-6.7893,-7.006,-6.9772,-6.9441,-6.8958,-6.6842,-6.3175,0.0,0.0,0.0,0.0,0.0,0.0,0.0,0.0,0.0,0.0,0.0,0.0,0.0,0.0,0.0,0.0,0.0,0.0,0.0,0.0,0.0,0.0,0.0,0.0,0.0,0.0,0.0,0.0,0.0,0.0,0.0,0.0,0.0,0.0,0.0,0.0,0.0,0.0,0.0,0.0,-4.6717,-4.877,-5.0675,0.0,0.0,0.0,0.0,0.0,0.0,-5.0382,-4.8657,0.0,0.0,0.0,0.0,0.0,0.0,0.0,0.0,0.0,0.0,0.0,0.0,0.0,0.0,0.0,0.0,0.0,0.0,0.0,0.0,0.0,0.0,0.0,0.0,0.0,0.0,0.0,0.0,0.0,0.0,0.0,0.0,0.0,0.0,0.0,0.0,0.0,0.0,0.0,0.0,0.0,0.0,0.0,0.0,0.0,0.0,0.0,0.0,0.0,0.0,0.0,0.0,0.0,0.0,0.0,-6.1647,-6.4323,-6.7068,-6.9716,-6.9439,-6.9048,-6.8622,-6.6968,-6.3414,-5.7822,0.0,0.0,0.0,0.0,0.0,0.0,0.0,0.0,0.0,0.0,0.0,0.0,0.0,0.0,0.0,0.0,0.0,0.0,0.0,0.0,0.0,0.0,0.0,0.0,0.0,0.0,0.0,0.0,0.0,0.0,0.0,0.0,0.0,0.0,0.0,0.0,0.0,0.0,0.0,-4.4445,-4.6845,0.0,0.0,0.0,0.0,0.0,0.0,0.0,0.0,-4.5948,0.0,0.0,0.0,0.0,0.0,0.0,0.0,0.0,0.0,0.0,0.0,0.0,0.0,0.0,0.0,0.0,0.0,0.0,0.0,0.0,0.0,0.0,0.0,0.0,0.0,0.0,0.0,0.0,0.0,0.0,0.0,0.0,0.0,0.0,0.0,0.0,0.0,0.0,0.0,0.0,0.0,0.0,0.0,0.0,0.0,0.0,0.0,0.0,0.0,0.0,0.0,0.0,0.0,0.0,0.0,0.0,-6.2639,-6.5568,-6.9674,-6.8001,-6.7587,-6.8672,-6.5991,-6.2788,-5.9214,0.0,0.0,0.0,0.0,0.0,0.0,0.0,0.0,0.0,0.0,0.0,0.0,0.0,0.0,0.0,0.0,0.0,0.0,0.0,0.0,0.0,0.0,0.0,0.0,0.0,0.0,0.0,0.0,0.0,0.0,0.0,0.0,0.0,0.0,0.0,0.0,0.0,0.0,-3.7149,-4.1103,0.0,0.0,0.0,0.0,0.0,0.0,0.0,0.0,-4.4345,0.0,0.0,0.0,0.0,0.0,0.0,0.0,0.0,0.0,0.0,0.0,0.0,0.0,0.0,0.0,0.0,0.0,0.0,0.0,0.0,0.0,0.0,0.0,0.0,0.0,0.0,0.0,0.0,0.0,0.0,0.0,0.0,0.0,0.0,0.0,0.0,0.0,0.0,0.0,0.0,0.0,0.0,0.0,0.0,0.0,0.0,0.0,0.0,0.0,0.0,0.0,0.0,0.0,0.0,0.0,0.0,0.0,0.0,-6.585,-6.8783,-6.7896,-6.7445,-6.7647,-6.4763,-6.2012,0.0,0.0,0.0,0.0,0.0,0.0,0.0,0.0,0.0,0.0,0.0,0.0,0.0,0.0,0.0,0.0,0.0,0.0,0.0,0.0,0.0,0.0,0.0,0.0,0.0,0.0,0.0,0.0,0.0,0.0,0.0,0.0,0.0,0.0,0.0,0.0,0.0,0.0,0.0,0.0,0.0,0.0,0.0,0.0,0.0,0.0,0.0,0.0,0.0,0.0,0.0,0.0,0.0,0.0,0.0,0.0,0.0,0.0,0.0,0.0,0.0,0.0,0.0,0.0,0.0,0.0,0.0,0.0,0.0,0.0,0.0,0.0,0.0,0.0,0.0,0.0,0.0,0.0,0.0,0.0,0.0,0.0,0.0,0.0,0.0,0.0,0.0,0.0,0.0,0.0,0.0,0.0,0.0,0.0,0.0,0.0,0.0,0.0,0.0,0.0,0.0,0.0,0.0,0.0,0.0,0.0,0.0,0.0,-6.5655,-6.7971,-6.7722,-6.7321,-6.6879,-6.3988,-6.1493,0.0,0.0,0.0,0.0,0.0,0.0,0.0,0.0,0.0,0.0,0.0,0.0,0.0,0.0,0.0,0.0,0.0,0.0,0.0,0.0,0.0,0.0,0.0,0.0,0.0,0.0,0.0,0.0,0.0,0.0,0.0,0.0,0.0,0.0,0.0,0.0,0.0,0.0,0.0,0.0,0.0,0.0,0.0,0.0,0.0,0.0,0.0,0.0,-3.7242,0.0,0.0,0.0,0.0,0.0,0.0,0.0,0.0,0.0,0.0,0.0,0.0,0.0,0.0,0.0,0.0,0.0,0.0,0.0,0.0,0.0,0.0,0.0,0.0,0.0,0.0,0.0,0.0,0.0,0.0,0.0,0.0,0.0,0.0,0.0,0.0,0.0,0.0,0.0,0.0,0.0,0.0,0.0,0.0,0.0,0.0,0.0,0.0,0.0,0.0,0.0,0.0,0.0,0.0,0.0,0.0,0.0,0.0,0.0,-6.3585,-6.7873,-6.6678,-6.6221,-6.6769,-6.438,-6.1669,0.0,0.0,0.0,0.0,0.0,0.0,0.0,0.0,0.0,0.0,0.0,0.0,0.0,0.0,0.0,0.0,0.0,0.0,0.0,0.0,0.0,0.0,0.0,0.0,0.0,0.0,0.0,0.0,0.0,0.0,0.0,0.0,0.0,0.0,0.0,0.0,0.0,0.0,0.0,0.0,0.0,0.0,0.0,0.0,0.0,0.0,0.0,0.0,0.0,0.0,0.0,0.0,0.0,0.0,0.0,0.0,0.0,0.0,0.0,0.0,0.0,0.0,0.0,0.0,0.0,0.0,0.0,0.0,0.0,0.0,0.0,0.0,0.0,0.0,0.0,0.0,0.0,0.0,0.0,0.0,0.0,0.0,0.0,0.0,0.0,0.0,0.0,0.0,0.0,0.0,0.0,0.0,0.0,0.0,0.0,0.0,0.0,0.0,0.0,0.0,0.0,0.0,0.0,0.0,0.0,0.0,0.0,0.0,-6.3335,-6.5261,-6.5582,-6.5415,-6.4871,-6.2918,-6.0042,0.0,0.0,0.0,0.0,0.0,0.0,0.0,0.0,0.0,0.0,0.0,0.0,0.0,0.0,0.0,0.0,0.0,0.0,0.0,0.0,0.0,0.0,0.0,0.0,0.0,0.0,0.0,0.0,0.0,0.0,0.0,0.0,0.0,0.0,0.0,0.0,0.0,0.0,0.0,0.0,0.0,0.0,0.0,0.0,0.0,0.0,0.0,0.0,0.0,0.0,0.0,0.0,0.0,0.0,0.0,0.0,0.0,0.0,0.0,0.0,0.0,0.0,0.0,0.0,0.0,0.0,0.0,0.0,0.0,0.0,0.0,0.0,0.0,0.0,0.0,0.0,0.0,0.0,0.0,0.0,0.0,0.0,0.0,0.0,0.0,0.0,0.0,0.0,0.0,0.0,0.0,0.0,0.0,0.0,0.0,0.0,0.0,0.0,0.0,0.0,0.0,0.0,0.0,0.0,0.0,0.0,0.0,0.0,0.0,-6.3335,-6.4074,-6.3931,-6.2765,-6.0863,-5.7997,0.0,0.0,0.0,0.0,0.0,0.0,0.0,0.0,0.0,0.0,0.0,0.0,0.0,0.0,0.0,0.0,0.0,0.0,0.0,0.0,0.0,0.0,0.0,0.0,0.0,0.0,0.0,0.0,0.0,0.0,0.0,0.0,0.0,0.0,0.0,0.0,0.0,0.0,0.0,0.0,0.0,0.0,0.0,0.0,0.0,0.0,0.0,0.0,0.0,0.0,0.0,0.0,0.0,0.0,0.0,0.0,0.0,0.0,0.0,0.0,0.0,0.0,0.0,0.0,0.0,0.0,0.0,0.0,0.0,0.0,0.0,0.0,0.0,0.0,0.0,0.0,0.0,0.0,0.0,0.0,0.0,0.0,0.0,0.0,0.0,0.0,0.0,0.0,0.0,0.0,0.0,0.0,0.0,0.0,0.0,0.0,0.0,0.0,0.0,0.0,0.0,0.0,0.0,0.0,0.0,0.0,0.0,0.0,0.0,-6.3335,-6.2005,-6.128,-6.1113,-5.8295,-5.5811,0.0,0.0,0.0,0.0,0.0,0.0,0.0,0.0,0.0,0.0,0.0,0.0,0.0,0.0,0.0,0.0,0.0,0.0,0.0,0.0,0.0,0.0,0.0,0.0,0.0,0.0,0.0,0.0,0.0,0.0,0.0,0.0,0.0,0.0,0.0,0.0,0.0,0.0,0.0,0.0,0.0,0.0,0.0,0.0,0.0,0.0,0.0,0.0,0.0,0.0,0.0,0.0,0.0,0.0,0.0,0.0,0.0,0.0,0.0,0.0,0.0,0.0,0.0,0.0,0.0,0.0,0.0,0.0,0.0,0.0,0.0,0.0,0.0,0.0,0.0,0.0,0.0,0.0,0.0,0.0,0.0,0.0,0.0,0.0,0.0,0.0,0.0,0.0,0.0,0.0,0.0,0.0,0.0,0.0,0.0,0.0,0.0,0.0,0.0,0.0,0.0,0.0,0.0,0.0,0.0,0.0,0.0,0.0,0.0,-5.8913,-5.9365,-5.9579,-5.9543,-5.8437,-5.5762,-5.1251,0.0,0.0,0.0,0.0,0.0,0.0,0.0,0.0,0.0,0.0,0.0,0.0,0.0,0.0,0.0,0.0,0.0,0.0,0.0,0.0,0.0,0.0,0.0,0.0,0.0,0.0,0.0,0.0,0.0,0.0,0.0,0.0,0.0,0.0,0.0,0.0,0.0,0.0,0.0,0.0,0.0,0.0,0.0,0.0,0.0,0.0,0.0,0.0,0.0,0.0,0.0,0.0,0.0,0.0,0.0,0.0,0.0,0.0,0.0,0.0,0.0,0.0,0.0,0.0,0.0,0.0,0.0,0.0,0.0,0.0,0.0,0.0,0.0,0.0,0.0,0.0,0.0,0.0,0.0,0.0,0.0,0.0,0.0,0.0,0.0,0.0,0.0,0.0,0.0,0.0,0.0,0.0,0.0,0.0,0.0,0.0,0.0,0.0,0.0,0.0,0.0,0.0,0.0,0.0,0.0,0.0,0.0,0.0,-5.4884,-5.5953,-5.6761,-5.7189,-5.6297,-5.3571,0.0,0.0,0.0,0.0,0.0,0.0,0.0,0.0,0.0,0.0,0.0,0.0,0.0,0.0,0.0,0.0,0.0,0.0,0.0,0.0,0.0,0.0,0.0,0.0,0.0,0.0,0.0,0.0,0.0,0.0,0.0,0.0,0.0,0.0,0.0,0.0,0.0,0.0,0.0,0.0,0.0,0.0,0.0,0.0,0.0,0.0,0.0,0.0,0.0,0.0,0.0,0.0,0.0,0.0,0.0,0.0,0.0,0.0,0.0,0.0,0.0,0.0,0.0,0.0,0.0,0.0,0.0,0.0,0.0,0.0,0.0,0.0,0.0,0.0,0.0,0.0,0.0,0.0,0.0,0.0,0.0,0.0,0.0,0.0,0.0,0.0,0.0,0.0,0.0,0.0,0.0,0.0,0.0,0.0,0.0,0.0,0.0,0.0,0.0,0.0,0.0,0.0,0.0,0.0,0.0,0.0,0.0,0.0,-4.7109,-5.148,-5.1873,-5.2801,-5.3964,-5.1394,-4.8896,0.0,0.0,0.0,0.0,0.0,0.0,0.0,0.0,0.0,0.0,0.0,0.0,0.0,0.0,0.0,0.0,0.0,0.0,0.0,0.0,0.0,0.0,0.0,0.0,0.0,0.0,0.0,0.0,0.0,0.0,0.0,0.0,0.0,0.0,0.0,0.0,0.0,0.0,0.0,0.0,0.0,0.0,0.0,0.0,0.0,0.0,0.0,0.0,0.0,0.0,0.0,0.0,0.0,0.0,0.0,0.0,0.0,0.0,0.0,0.0,0.0,0.0,0.0,0.0,0.0,0.0,0.0,0.0,0.0,0.0,0.0,0.0,0.0,0.0,0.0,0.0,0.0,0.0,0.0,0.0,0.0,0.0,0.0,0.0,0.0,0.0,0.0,0.0,0.0,0.0,0.0,0.0,0.0,0.0,0.0,0.0,0.0,0.0,0.0,0.0,0.0,0.0,0.0,0.0,0.0,0.0,0.0,0.0,0.0,-4.7079,0.0,-5.3217,0.0,-5.2619,-5.0883,0.0,0.0,0.0,0.0,0.0,0.0,0.0,0.0,0.0,0.0,0.0,0.0,0.0,0.0,0.0,0.0,0.0,0.0,0.0,0.0,0.0,0.0,0.0,0.0,0.0,0.0,0.0,0.0,0.0,0.0,0.0,0.0,0.0,0.0,0.0,0.0,0.0,0.0,0.0,0.0,0.0,0.0,0.0,0.0,0.0,0.0,0.0,0.0,0.0,0.0,0.0,0.0,0.0,0.0,0.0,0.0,0.0,0.0,0.0,0.0,0.0,0.0,0.0,0.0,0.0,0.0,0.0,0.0,0.0,0.0,0.0,0.0,0.0,0.0,0.0,0.0,0.0,0.0,0.0,0.0,0.0,0.0,0.0,0.0,0.0,0.0,0.0,0.0,0.0,0.0,0.0,0.0,0.0,0.0,0.0,0.0,0.0,0.0,0.0,0.0,0.0,0.0,0.0,0.0,0.0,0.0,0.0,0.0,0.0,-4.4752,-4.8279,-5.0354,-5.0974,-5.0831,-4.9382,0.0,0.0,0.0,0.0,0.0,0.0,0.0,0.0,0.0,0.0,0.0,0.0,0.0,0.0,0.0,0.0,0.0,0.0,0.0,0.0,0.0,0.0,0.0,0.0,0.0,0.0,0.0,0.0,0.0,0.0,0.0,0.0,0.0,0.0,0.0,0.0,0.0,0.0,0.0,0.0,0.0,0.0,0.0,0.0,0.0,0.0,0.0,0.0,0.0,0.0,0.0,0.0,0.0,0.0,0.0,0.0,0.0,0.0,0.0,0.0,0.0,0.0,0.0,0.0,0.0,0.0,0.0,0.0,0.0,0.0,0.0,0.0,0.0,0.0,0.0,0.0,0.0,0.0,0.0,0.0,0.0,0.0,0.0,0.0,0.0,0.0,0.0,0.0,0.0,0.0,0.0,0.0,0.0,0.0,0.0,0.0,0.0,0.0,0.0,0.0,0.0,0.0,0.0,0.0,0.0,0.0,0.0,0.0,0.0,0.0,-4.3166,-4.4541,-4.8934,-4.629,-4.4649,0.0,0.0,0.0,0.0,0.0,0.0,0.0,0.0,0.0,0.0,0.0,0.0,0.0,0.0,0.0,0.0,0.0,0.0,0.0,0.0,0.0,0.0,0.0,0.0,0.0,0.0,0.0,0.0,0.0,0.0,0.0,0.0,0.0,0.0,0.0,0.0,0.0,0.0,0.0,0.0,0.0,0.0,0.0,0.0,0.0,0.0,0.0,0.0,0.0,0.0,0.0,0.0,0.0,0.0,0.0,0.0,0.0,0.0,0.0,0.0,0.0,0.0,0.0,0.0,0.0,0.0,0.0,0.0,0.0,0.0,0.0,0.0,0.0,0.0,0.0,0.0,0.0,0.0,0.0,0.0,0.0,0.0,0.0,0.0,0.0,0.0,0.0,0.0,0.0,0.0,0.0,0.0,0.0,0.0,0.0,0.0,0.0,0.0,0.0,0.0,0.0,0.0,0.0,0.0,0.0,0.0,0.0,0.0,0.0,0.0,-4.1179,0.0,-4.5998,-4.5338,-4.3678,-4.1261,0.0,0.0,0.0,0.0,0.0,0.0,0.0,0.0,0.0,0.0,0.0,0.0,0.0,0.0,0.0,0.0,0.0,0.0,0.0,0.0,0.0,0.0,0.0,0.0,0.0,0.0,0.0,0.0,0.0,0.0,0.0,0.0,0.0,0.0,0.0,0.0,0.0,0.0,0.0,0.0,0.0,0.0,0.0,0.0,0.0,0.0,0.0,0.0,0.0,0.0,0.0,0.0,0.0,0.0,0.0,0.0,0.0,0.0,0.0,0.0,0.0,0.0,0.0,0.0,0.0,0.0,0.0,0.0,0.0,0.0,0.0,0.0,0.0,0.0,0.0,0.0,0.0,0.0,0.0,0.0,0.0,0.0,0.0,0.0,0.0,0.0,0.0,0.0,0.0,0.0,0.0,0.0,0.0,0.0,0.0,0.0,0.0,0.0,0.0,0.0,0.0,0.0,0.0,0.0,0.0,0.0,0.0,0.0,0.0,0.0,0.0,-4.4033,-4.5209,-4.4622,0.0,0.0,0.0,0.0,0.0,0.0,0.0,0.0,0.0,0.0,0.0,0.0,0.0,0.0,0.0,0.0,0.0,0.0,0.0,0.0,0.0,0.0,0.0,0.0,0.0,0.0,0.0,0.0,0.0,0.0,0.0,0.0,0.0,0.0,0.0,0.0,0.0,0.0,0.0,0.0,0.0,0.0,0.0,0.0,0.0,0.0,0.0,0.0,0.0,0.0,0.0,0.0,0.0,0.0,0.0,0.0,0.0,0.0,0.0,0.0,0.0,0.0,0.0,0.0,0.0,0.0,0.0,0.0,0.0,0.0,0.0,0.0,0.0,0.0,0.0,0.0,0.0,0.0,0.0,0.0,0.0,0.0,0.0,0.0,0.0,0.0,0.0,0.0,0.0,0.0,0.0,0.0,0.0,0.0,0.0,0.0,0.0,0.0,0.0,0.0,0.0,0.0,0.0,0.0,0.0,0.0,0.0,0.0,0.0,0.0,0.0,-4.13,-4.2211,-4.5463,0.0,-4.428,0.0,0.0,0.0,0.0,0.0,0.0,0.0,0.0,0.0,0.0,0.0,0.0,0.0,0.0,0.0,0.0,0.0,0.0,0.0,0.0,0.0,0.0,0.0,0.0,0.0,0.0,0.0,0.0,0.0,0.0,0.0,0.0,0.0,0.0,0.0,0.0,0.0,0.0,0.0,0.0,0.0,0.0,0.0,0.0,0.0,0.0,0.0,0.0,0.0,0.0,0.0,0.0,0.0,0.0,0.0,0.0,0.0,0.0,0.0,0.0,0.0,0.0,0.0,0.0,0.0,0.0,0.0,0.0,0.0,0.0,0.0,0.0,0.0,0.0,0.0,0.0,0.0,0.0,0.0,0.0,0.0,0.0,0.0,0.0,0.0,0.0,0.0,0.0,0.0,0.0,0.0,0.0,0.0,0.0,0.0,0.0,0.0,0.0,0.0,0.0,0.0,0.0,0.0,0.0,0.0,0.0,0.0,0.0,0.0,0.0,0.0,0.0,-4.452,-4.4933,-3.9791,0.0,0.0,0.0,0.0,0.0,0.0,0.0,0.0,0.0,0.0,0.0,0.0,0.0,0.0,0.0,0.0,0.0,0.0,0.0,0.0,0.0,0.0,0.0,0.0,0.0,0.0,0.0,0.0,0.0,0.0,0.0,0.0,0.0,0.0,0.0,0.0,0.0,0.0,0.0,0.0,0.0,0.0,0.0,0.0,0.0,0.0,0.0,0.0,0.0,0.0,0.0,0.0,0.0,0.0,0.0,0.0,0.0,0.0,0.0,0.0,0.0,0.0,0.0,0.0,0.0,0.0,0.0,0.0,0.0,0.0,0.0,0.0,0.0,0.0,0.0,0.0,0.0,0.0,0.0,0.0,0.0,0.0,0.0,0.0,0.0,0.0,0.0,0.0,0.0,0.0,0.0,0.0,0.0,0.0,0.0,0.0,0.0,0.0,0.0,0.0,0.0,0.0,0.0,0.0,0.0,0.0,0.0,0.0,0.0,0.0,-4.2825,-3.9669,-4.4666,-4.487,-3.9323,0.0,0.0,0.0,0.0,0.0,0.0,0.0,0.0,0.0,0.0,0.0,0.0,0.0,0.0,0.0,0.0,0.0,0.0,0.0,0.0,0.0,0.0,0.0,0.0,0.0,0.0,0.0,0.0,0.0,0.0,0.0,0.0,0.0,0.0,0.0,0.0,0.0,0.0,0.0,0.0,0.0,0.0,0.0,0.0,0.0,0.0,0.0,0.0,0.0,0.0,0.0,0.0,0.0,0.0,0.0,0.0,0.0,0.0,0.0,0.0,0.0,0.0,0.0,0.0,0.0,0.0,0.0,0.0,0.0,0.0,0.0,0.0,0.0,0.0,0.0,0.0,0.0,0.0,0.0,0.0,0.0,0.0,0.0,0.0,0.0,0.0,0.0,0.0,0.0,0.0,0.0,0.0,0.0,0.0,0.0,0.0,0.0,0.0,0.0,0.0,0.0,0.0,0.0,0.0,0.0,0.0,0.0,0.0,0.0,0.0,0.0,0.0,0.0,0.0,-4.1004,0.0,0.0,0.0,0.0,0.0,0.0,0.0,0.0,0.0,0.0,0.0,0.0,0.0,0.0,0.0,0.0,0.0,0.0,0.0,0.0,0.0,0.0,0.0,0.0,0.0,0.0,0.0,0.0,0.0,0.0,0.0,0.0,0.0,0.0,0.0,0.0,0.0,0.0,0.0,0.0,0.0,0.0,0.0,0.0,0.0,0.0,0.0,0.0,0.0,0.0,0.0,0.0,0.0,0.0,0.0,0.0,0.0,0.0,0.0,0.0,0.0,0.0,0.0,0.0,0.0,0.0,0.0,0.0,0.0,0.0,0.0,0.0,0.0,0.0,0.0,0.0,0.0,0.0,0.0,0.0,0.0,0.0,0.0,0.0,0.0,0.0,0.0,0.0,0.0,0.0,0.0,0.0,0.0,0.0,0.0,0.0,0.0,0.0,0.0,0.0,0.0,0.0,0.0,0.0,0.0,0.0,0.0,0.0,0.0,0.0,0.0,0.0,0.0,0.0,0.0,0.0,0.0,0.0,0.0,0.0,0.0,0.0,0.0,0.0,0.0,0.0,0.0,0.0,0.0,0.0,0.0,0.0,0.0,0.0,0.0,0.0,0.0,0.0,0.0,0.0,0.0,0.0,0.0,0.0,0.0,0.0,0.0,0.0,0.0,0.0,0.0,0.0,0.0,0.0,0.0,0.0,0.0,0.0,0.0,0.0,0.0,0.0,0.0,0.0,0.0,0.0,0.0,0.0,0.0,0.0,0.0,0.0,0.0,0.0,0.0,0.0,0.0,0.0,0.0,0.0,0.0,0.0,0.0,0.0,0.0,0.0,0.0,0.0,0.0,0.0,0.0,0.0,0.0,0.0,0.0,0.0,0.0,0.0,0.0,0.0,0.0,0.0,0.0,0.0,0.0,0.0,0.0,0.0,0.0,0.0,0.0,0.0,0.0,0.0,0.0,0.0,0.0,0.0,0.0,0.0,0.0,0.0,0.0,0.0,0.0,0.0,0.0,0.0,0.0,0.0,0.0,0.0,0.0,0.0,0.0,0.0,0.0,0.0,0.0,0.0,0.0,0.0,0.0,0.0,0.0,0.0,0.0,0.0,0.0,0.0,0.0,0.0,0.0,0.0,0.0,0.0,0.0,0.0,0.0,0.0,0.0,0.0,0.0,0.0,0.0,0.0,0.0,0.0,0.0,0.0,0.0,0.0,0.0,0.0,0.0,0.0,0.0,0.0,0.0,0.0,0.0,0.0,0.0,0.0,0.0,0.0,0.0,0.0,0.0,0.0,0.0,0.0,0.0,0.0,0.0,0.0,0.0,0.0,0.0,0.0,0.0,0.0,0.0,0.0,0.0,0.0,0.0,0.0,0.0,0.0,0.0,0.0,0.0,0.0,0.0,0.0,0.0,0.0,0.0,0.0,0.0,0.0,0.0,0.0,0.0,0.0,0.0,0.0,0.0,0.0,0.0,0.0,0.0,0.0,0.0,0.0,0.0,0.0,0.0,0.0,0.0,0.0,0.0,0.0,0.0,0.0,0.0,0.0,0.0,0.0,0.0,0.0,0.0,0.0,0.0,0.0,0.0,0.0,0.0,0.0,0.0,0.0,0.0,0.0,0.0,0.0,0.0,0.0,0.0,0.0,0.0,0.0,0.0,0.0,0.0,0.0,0.0,0.0,0.0,0.0,0.0,0.0,0.0,0.0,0.0,0.0,0.0,0.0,0.0,0.0,0.0,0.0,0.0,0.0,0.0,0.0,0.0,0.0,0.0,0.0,0.0,0.0,0.0,0.0,0.0,0.0,0.0,0.0,0.0,0.0,0.0,0.0,0.0,0.0,0.0,0.0,0.0,0.0,0.0,0.0,0.0,0.0,0.0,0.0,0.0,0.0,0.0,0.0,0.0,0.0,0.0,0.0,0.0,0.0,0.0,0.0,0.0,0.0,0.0,0.0,0.0,0.0,0.0,0.0,0.0,0.0,0.0,0.0,0.0,0.0,0.0,0.0,0.0,0.0,0.0,0.0,0.0,0.0,0.0,0.0,0.0,0.0,0.0,0.0,0.0,0.0,0.0,0.0,0.0,0.0,0.0,0.0,0.0,0.0,0.0,0.0,0.0,0.0,0.0,0.0,0.0,0.0,0.0,0.0,0.0,0.0,0.0,0.0,0.0,0.0,0.0,0.0,0.0,0.0,0.0,0.0,0.0,0.0,0.0,0.0,0.0,0.0,0.0,0.0,0.0,0.0,0.0,0.0,0.0,0.0,0.0,0.0,0.0,0.0,0.0,0.0,0.0,0.0,0.0,0.0,0.0,0.0,0.0,0.0,0.0,0.0,0.0,0.0,0.0,0.0,0.0,0.0,0.0,0.0,0.0,0.0,0.0,0.0,0.0,0.0,0.0,0.0,0.0,0.0,0.0,0.0,0.0,0.0,0.0,0.0,0.0,0.0,0.0,0.0,0.0,0.0,0.0,0.0,0.0,0.0,0.0,0.0,0.0,0.0,0.0,0.0,0.0,0.0,0.0,0.0,0.0,0.0,0.0,0.0,0.0,0.0,0.0,0.0,0.0,0.0,0.0,0.0,0.0,0.0,0.0,0.0,0.0,0.0,0.0,0.0,0.0,0.0,0.0,0.0,0.0,0.0,0.0,0.0,0.0,0.0,0.0,0.0,0.0,0.0,0.0,0.0,0.0,0.0,0.0,0.0,0.0,0.0,0.0,0.0,0.0,0.0,0.0,0.0,0.0,0.0,0.0,0.0,0.0,0.0,0.0,0.0,0.0,0.0,0.0,0.0,0.0,0.0,0.0,0.0,0.0,0.0,0.0,0.0,0.0,0.0,0.0,0.0,0.0,0.0,0.0,0.0,0.0,0.0,0.0,0.0,0.0,0.0,0.0,0.0,0.0,0.0,0.0,0.0,0.0,0.0,0.0,0.0,0.0,0.0,0.0,0.0,0.0,0.0,0.0,0.0,0.0,0.0,0.0,0.0,0.0,0.0,0.0,0.0,0.0,0.0,0.0,0.0,0.0,0.0,0.0,0.0,0.0,0.0,0.0,0.0,0.0,0.0,0.0,0.0,0.0,0.0,0.0,0.0,0.0,0.0,0.0,0.0,0.0,0.0,0.0,0.0,0.0,0.0,0.0,0.0,0.0,0.0,0.0,0.0,0.0,0.0,0.0,0.0,0.0,0.0,0.0,0.0,0.0,0.0,0.0,0.0,0.0,0.0,0.0,0.0,0.0,0.0,0.0,0.0,0.0,0.0,0.0,0.0,0.0,0.0,0.0,0.0,0.0,0.0,0.0,0.0,0.0,0.0,0.0,0.0,0.0,0.0,0.0,0.0,0.0,0.0,0.0,0.0,0.0,0.0,0.0,0.0,0.0,0.0,0.0,0.0,0.0,0.0,0.0,0.0,0.0,0.0,0.0,0.0,0.0,0.0,0.0,0.0,0.0,0.0,0.0,0.0,0.0,0.0,0.0,0.0,0.0,0.0,0.0,0.0,0.0,0.0,0.0,0.0,0.0,0.0,0.0,0.0,0.0,0.0,0.0,0.0,0.0,0.0,0.0,0.0,0.0,0.0,0.0,0.0,0.0,0.0,0.0,0.0,0.0,0.0,0.0,0.0,0.0,0.0,0.0,0.0,0.0,0.0,0.0,0.0,0.0,0.0,0.0,0.0,0.0,0.0,0.0,0.0,0.0,0.0,0.0,0.0,0.0,0.0,0.0,0.0,0.0,0.0,0.0,0.0,0.0,0.0,0.0,0.0,0.0,0.0,0.0,0.0,0.0,0.0,0.0,0.0,0.0,0.0,0.0,0.0,0.0,0.0,0.0,0.0,0.0,0.0,0.0,0.0,0.0,0.0,0.0,0.0,0.0,0.0,0.0,0.0,0.0,0.0,0.0,0.0,0.0,0.0,0.0,0.0,0.0,0.0,0.0,0.0,0.0,0.0,0.0,0.0,0.0,0.0,0.0,0.0,0.0,0.0,0.0,0.0,0.0,0.0,0.0,0.0,0.0,0.0,0.0,0.0,0.0,0.0,0.0,0.0,0.0,0.0,0.0,0.0,0.0,0.0,0.0,0.0,0.0,0.0,0.0,0.0,0.0,0.0,0.0,0.0,0.0,0.0,0.0,0.0,0.0,0.0,0.0,0.0,0.0,0.0,0.0,0.0,0.0,0.0,0.0,0.0,0.0,0.0,0.0,0.0,0.0,0.0,0.0,0.0,0.0,0.0,0.0,0.0,0.0,0.0,0.0,0.0,0.0,0.0,0.0,0.0,0.0,0.0,0.0,0.0,0.0,0.0,0.0,0.0,0.0,0.0,0.0,0.0,0.0,0.0,0.0,0.0,0.0,0.0,0.0,0.0,0.0,0.0]}],[{"header":{"parameterUnit":"kt","parameterCategory":2,"dx":1,"dy":1,"la1":29.587661999999998,"la2":31.0,"lo1":-88.76705300000003,"lo2":-86.6583820000003,"nx":115,"ny":88,"refTime":"2022-10-20T12:00:00:Z","depth":0,"parameterNumber":2,"parameterNumberName":"V-component_of_WINDS"},"data":[8.3716,8.1366,7.9285,7.8423,7.8423,7.8423,7.8423,7.8423,7.8423,7.8423,7.8423,7.8423,7.8297,7.8212,7.645,7.5579,7.5324,7.3944,7.3095,7.2671,7.2649,7.2649,7.2649,7.2649,7.2649,7.2746,7.2863,7.2767,7.2884,7.2884,7.3777,7.5125,7.5334,7.5564,7.5931,7.6367,7.7052,7.6481,7.7029,7.8298,7.8073,7.8613,7.9129,7.9822,8.0624,8.1507,8.2056,8.2602,8.0021,7.7007,7.48,7.5931,7.6824,7.7165,7.7279,7.8501,7.9198,7.9175,7.9622,8.0425,8.1113,8.0979,8.2408,8.2736,8.3304,8.4061,8.5398,8.6747,8.6722,8.6722,8.6218,8.5662,8.4671,8.4011,8.3375,8.1852,8.081,8.048,8.0302,8.0302,8.0302,8.0302,8.0302,8.0302,8.0302,8.0302,8.0302,8.0302,8.0302,8.0251,8.02,7.9997,7.9768,7.8651,7.7457,7.7889,7.8117,7.6872,7.5907,7.5389,7.4857,7.4219,7.4129,7.4243,7.4508,7.4835,7.5098,7.5247,7.5483,7.5718,7.6091,7.6204,7.6091,7.6005,7.5744,8.1198,7.9012,7.855,7.8423,7.8423,7.8423,7.8423,7.8423,7.8423,7.8423,7.8423,7.8423,7.8423,7.8104,7.7254,7.628,7.5324,7.4157,7.3286,7.2862,7.2649,7.2649,7.2649,7.2649,7.2649,7.2649,7.2649,7.2649,7.2649,7.2767,7.2767,7.3002,7.3119,7.3236,7.3236,7.3565,7.4126,7.3988,7.4337,7.5125,7.5816,7.6481,7.6801,7.7597,7.8726,7.998,8.0203,7.998,7.8951,7.6367,7.4337,7.501,7.5356,7.4916,7.5356,7.6023,7.671,7.671,7.6938,7.8073,7.8861,8.0004,8.2165,8.3171,8.3629,8.4624,8.5824,8.6485,8.6434,8.6262,8.5606,8.4899,8.3808,8.2792,8.2283,8.1595,8.0886,8.0353,8.0302,8.0302,8.0302,8.0302,8.0302,8.0302,8.0302,8.0302,8.0302,8.0302,8.0251,8.0099,7.9362,7.8828,7.8778,7.8193,7.7203,7.7482,7.8066,7.6923,7.5932,7.4942,7.4219,7.4003,7.3913,7.3913,7.3977,7.4306,7.4571,7.4835,7.5134,7.5457,7.5744,7.5831,7.5744,7.5657,7.5396,7.9389,7.8423,7.8423,7.8423,7.8423,7.8423,7.8423,7.8423,7.8423,7.8423,7.8423,7.8423,7.8423,7.8274,7.7424,7.6365,7.5431,7.4518,7.3605,7.2925,7.2649,7.2649,7.2649,7.2649,7.2649,7.2649,7.2649,7.2649,7.2649,7.2649,7.2649,7.2767,7.2767,7.2767,7.2767,7.2767,7.2863,7.2649,7.2863,7.3427,7.401,7.4453,7.4685,7.5471,7.6253,7.6459,7.7052,7.771,7.6367,7.4569,7.4547,7.4894,7.3893,7.3331,7.3448,7.3988,7.4453,7.4242,7.4453,7.4916,7.5471,7.5493,7.7029,8.0156,8.0956,8.197,8.3279,8.3526,8.3453,8.3634,8.2972,8.2654,8.1657,8.1606,8.1324,8.114,8.0683,8.0302,8.0302,8.0302,8.0302,8.0302,8.0302,8.0302,8.0302,8.0302,8.0277,8.0277,7.9997,7.9768,7.832,7.7457,7.7558,7.7152,7.6974,7.7355,7.7787,7.7126,7.6212,7.5094,7.4027,7.3799,7.3671,7.3761,7.3824,7.3977,7.4129,7.4394,7.4695,7.502,7.5283,7.5483,7.5422,7.5247,7.4835,7.8423,7.8423,7.8423,7.8423,7.8423,7.8423,7.8423,7.8423,7.8423,7.8423,7.8423,7.8423,7.8423,7.8381,7.77,7.6598,7.5664,7.4815,7.3753,7.2968,7.2649,7.2649,7.2649,7.2649,7.2649,7.2649,7.2649,7.2649,7.2649,7.2649,7.2649,7.2649,7.2649,7.2649,7.2649,7.2649,7.2649,7.2649,7.2649,7.2863,7.3097,7.3097,7.3214,7.401,7.4358,7.4337,7.4663,7.5334,7.4221,7.3214,7.4663,7.4337,7.2884,7.2767,7.2649,7.2628,7.298,7.3097,7.3214,7.3331,7.3544,7.3214,7.4242,7.616,7.7484,7.8524,7.9148,7.9442,7.9523,7.9837,7.977,7.9551,7.9293,7.9904,8.0418,8.0411,8.0353,8.0302,8.0302,8.0302,8.0302,8.0302,8.0302,8.0302,8.0302,8.0251,8.0175,7.9819,7.9438,7.8473,7.6974,7.6923,7.6872,7.7101,7.7126,7.738,7.7558,7.7076,7.6136,7.5043,7.3951,7.3773,7.3671,7.3671,7.3671,7.3735,7.3913,7.4066,7.4217,7.4431,7.4695,7.4871,7.4897,7.4809,7.4331,7.8423,7.8423,7.8423,7.8423,7.8423,7.8423,7.8423,7.8423,7.8423,7.8423,7.8423,7.8423,7.8423,7.8381,7.8042,7.7065,7.577,7.524,7.4284,7.2671,7.2649,7.2649,7.2649,7.2649,7.2649,7.2649,7.2649,7.2649,7.2649,7.2649,7.2649,7.2649,7.2649,7.2649,7.2649,7.2649,7.2649,7.2649,7.2649,7.2649,7.2649,7.2649,7.2767,7.3119,7.3002,7.2767,7.298,7.298,7.2884,7.2767,7.298,7.3097,7.2767,7.2649,7.2649,7.2649,7.2649,7.2649,7.2649,7.2649,7.2649,7.331,7.4569,7.5498,7.5687,7.6076,7.6532,7.6659,7.6241,7.623,7.6586,7.6476,7.6795,7.7507,7.8187,7.8461,7.8732,7.9151,7.9274,7.947,7.9691,8.0302,8.0302,8.0302,8.0302,7.9946,7.9616,7.8956,7.8193,7.6974,7.6441,7.6669,7.7025,7.7457,7.7431,7.7457,7.7533,7.6872,7.5958,7.4916,7.3976,7.3722,7.3671,7.3671,7.3671,7.3671,7.3671,7.3735,7.3888,7.4129,7.428,7.4343,7.4368,7.428,7.4066,7.8423,7.8423,7.8423,7.8423,7.8423,7.8423,7.8423,7.8423,7.8423,7.8423,7.8423,7.8423,7.8423,7.8423,7.8212,7.7299,7.5457,7.5388,7.4475,7.3032,7.2649,7.2649,7.2649,7.2649,7.2649,7.2649,7.2649,7.2649,7.2649,7.2649,7.2649,7.2649,7.2649,7.2649,7.2649,7.2649,7.2649,7.2649,7.2649,7.2649,7.2649,7.2649,7.2649,7.2767,7.2767,7.2649,7.2746,7.2746,7.2767,7.2649,7.2649,7.2649,7.2649,7.2649,7.2649,7.2649,7.2649,7.2649,7.2649,7.2649,7.2649,7.2863,7.3427,7.3801,7.3678,7.3647,7.3854,7.3843,7.3265,7.2925,7.3242,7.3574,7.4236,7.5022,7.5709,7.6392,7.707,7.7717,7.8238,7.8535,7.9274,7.9984,8.0302,8.0302,8.015,7.9489,7.8828,7.8117,7.7076,7.5783,7.5455,7.6085,7.6784,7.7308,7.7762,7.7736,7.7126,7.6237,7.545,7.4789,7.4053,7.3671,7.3671,7.3671,7.3671,7.3671,7.3671,7.3671,7.3671,7.3913,7.404,7.404,7.4066,7.3977,7.3888,7.8423,7.8423,7.8423,7.8423,7.8423,7.8423,7.8423,7.8423,7.8423,7.8423,7.8423,7.8423,7.8423,7.8423,7.8402,7.7087,7.6089,7.5097,7.4199,7.3329,7.2649,7.2649,7.2649,7.2649,7.2649,7.2649,7.2649,7.2649,7.2649,7.2649,7.2649,7.2649,7.2649,7.2649,7.2649,7.2649,7.2649,7.2649,7.2649,7.2649,7.2649,7.2649,7.2649,7.2649,7.2649,7.2649,7.2649,7.2649,7.2649,7.2649,7.2649,7.2649,7.2649,7.2649,7.2649,7.2649,7.2649,7.2649,7.2649,7.2649,7.2649,7.2746,7.2448,7.1843,7.1333,7.1244,7.1124,7.0942,7.0455,7.0617,7.0949,7.1826,7.2743,7.3693,7.4734,7.5197,7.5309,7.6142,7.7418,7.804,7.947,8.0082,8.0175,8.0099,7.9438,7.8701,7.7965,7.7177,7.6154,7.4757,7.4411,7.539,7.5989,7.5973,7.6479,7.6552,7.5976,7.5444,7.4992,7.4332,7.376,7.3582,7.3671,7.3671,7.3671,7.3671,7.3671,7.3671,7.3671,7.3824,7.3824,7.3824,7.3761,7.3735,7.3761,7.8423,7.8423,7.8423,7.8423,7.8423,7.8423,7.8423,7.8423,7.8423,7.8423,7.8423,7.8423,7.8423,7.8423,7.8423,7.7235,7.5669,7.5372,7.4263,7.3138,7.2649,7.2649,7.2649,7.2649,7.2649,7.2649,7.2649,7.2649,7.2649,7.2649,7.2649,7.2649,7.2649,7.2649,7.2649,7.2649,7.2649,7.2649,7.2649,7.2649,7.2649,7.2649,7.2649,7.2649,7.2649,7.2649,7.2649,7.2649,7.2649,7.2649,7.2649,7.2649,7.2649,7.2649,7.2649,7.2649,7.2649,7.2649,7.2649,7.2649,7.2607,7.2055,7.1694,7.093,7.0484,7.0569,7.0081,6.9401,6.9253,6.9178,6.9098,7.0294,7.138,7.2175,7.3328,7.3574,7.36,7.4848,7.6215,7.7565,7.8932,7.9984,8.0078,7.9438,7.8708,7.7776,7.6582,7.5782,7.4604,7.3263,7.4015,7.4932,7.4504,7.4529,7.4543,7.4476,7.3895,7.2849,7.2855,7.3332,7.3606,7.3467,7.3582,7.3671,7.3671,7.3671,7.3671,7.3671,7.3671,7.3671,7.3735,7.3761,7.3761,7.3671,7.3671,7.8423,7.8423,7.8423,7.8423,7.8423,7.8423,7.8423,7.8423,7.8423,7.8423,7.8423,7.8423,7.8423,7.8423,7.8148,7.7278,7.5478,7.5431,7.4475,7.2862,7.2649,7.2649,7.2649,7.2649,7.2649,7.2649,7.2649,7.2649,7.2649,7.2649,7.2649,7.2649,7.2649,7.2649,7.2649,7.2649,7.2649,7.2649,7.2649,7.2649,7.2649,7.2649,7.2649,7.2649,7.2649,7.2649,7.2649,7.2649,7.2649,7.2649,7.2649,7.2649,7.2649,7.2649,7.2649,7.2649,7.2649,7.2649,7.2607,7.2607,7.18,7.11,7.0654,6.9932,6.938,6.9974,6.9465,6.9274,6.9486,6.9598,6.9775,6.9732,7.0433,7.0239,7.097,7.0971,7.1424,7.3704,7.5188,7.6591,7.7904,7.9328,8.0175,7.9139,7.7528,7.6238,7.5097,7.4038,7.2891,7.3203,7.3822,7.3192,7.2594,7.2096,7.1917,7.2084,7.1498,7.0422,7.0782,7.1438,7.1745,7.2158,7.3109,7.3671,7.3378,7.3289,7.3467,7.3582,7.3289,7.3289,7.3289,7.3378,7.3671,7.3671,7.3671,7.8423,7.8423,7.8423,7.8423,7.8423,7.8423,7.8423,7.8423,7.8423,7.8423,7.8423,7.8423,7.8423,7.8423,7.8127,7.7299,7.5749,7.5409,7.4475,7.284,7.2649,7.2649,7.2649,7.2649,7.2649,7.2649,7.2649,7.2649,7.2649,7.2649,7.2649,7.2649,7.2649,7.2649,7.2649,7.2649,7.2649,7.2649,7.2649,7.2649,7.2649,7.2649,7.2649,7.2649,7.2649,7.2649,7.2649,7.2649,7.2649,7.2649,7.2649,7.2649,7.2649,7.2649,7.2649,7.2649,7.2649,7.2649,7.2607,7.1821,7.1015,7.0038,6.9401,6.9146,6.8722,6.938,6.9444,6.9338,6.9996,7.0378,7.0513,7.0492,7.047,7.0187,7.0017,6.9911,7.0631,7.2779,7.4644,7.6106,7.8369,8.025,7.9634,7.8284,7.5667,7.3867,7.2419,7.1412,7.1943,7.2564,7.2143,7.1155,7.0222,6.9577,6.9232,6.9602,6.92,6.8845,6.9147,6.9562,6.9956,7.0349,7.1199,7.2133,7.2519,7.2904,7.3289,7.3582,7.3199,7.2544,7.2223,7.2133,7.3084,7.3582,7.3582,7.8423,7.8423,7.8423,7.8423,7.8423,7.8423,7.8423,7.8423,7.8423,7.8423,7.8423,7.8423,7.8423,7.8423,7.8423,7.7214,7.5813,7.5287,7.4475,7.3053,7.2649,7.2649,7.2649,7.2649,7.2649,7.2649,7.2649,7.2649,7.2649,7.2649,7.2649,7.2649,7.2649,7.2649,7.2649,7.2649,7.2649,7.2649,7.2649,7.2649,7.2649,7.2649,7.2649,7.2649,7.2649,7.2649,7.2649,7.2649,7.2649,7.2649,7.2649,7.2649,7.2649,7.2649,7.2649,7.2649,7.2649,7.2586,7.2416,7.0824,6.9741,6.8849,6.8764,6.8764,6.8807,6.938,6.9974,7.0081,7.0781,7.1269,7.1333,7.1333,7.1354,7.1248,7.1078,7.1095,7.1694,7.3171,7.4755,7.6354,7.9254,8.1248,7.9121,7.7017,7.4044,7.1526,6.9946,6.9903,7.0915,7.083,6.9543,6.8481,6.7527,6.6846,6.6598,6.6951,6.7192,6.7384,6.7409,6.748,6.7786,6.8748,6.9586,7.0232,7.0625,7.0833,7.2067,7.3289,7.1588,6.998,7.0257,7.0991,7.2609,7.3378,7.3378,7.8423,7.8423,7.8423,7.8423,7.8423,7.8423,7.8423,7.8423,7.8423,7.8423,7.8423,7.8423,7.8423,7.8423,7.8233,7.7214,7.5876,7.5139,7.4199,7.3286,7.2649,7.2649,7.2649,7.2649,7.2649,7.2649,7.2649,7.2649,7.2649,7.2649,7.2649,7.2649,7.2649,7.2649,7.2649,7.2649,7.2649,7.2649,7.2649,7.2649,7.2649,7.2649,7.2649,7.2649,7.2649,7.2649,7.2649,7.2649,7.2649,7.2649,7.2649,7.2649,7.2649,7.2649,7.2649,7.2649,7.2565,7.231,7.1439,7.0102,6.8786,6.8425,6.8361,6.8807,6.9486,7.0335,7.0802,7.0951,7.1673,7.2267,7.2267,7.214,7.2119,7.1949,7.18,7.1767,7.2517,7.355,7.5125,7.6231,7.7844,7.9652,7.7817,7.6461,7.3353,7.0284,6.9016,6.89,6.9678,6.9014,6.7564,6.6493,6.5364,6.4575,6.3832,6.4114,6.4432,6.4634,6.5117,6.531,6.5982,6.7409,6.835,6.8444,6.8631,6.8841,6.9121,6.9376,6.8537,6.7526,6.828,6.9004,7.0441,7.1381,7.1861,7.8423,7.8423,7.8423,7.8423,7.8423,7.8423,7.8423,7.8423,7.8423,7.8423,7.8423,7.8423,7.8423,7.8169,7.7936,7.6874,7.56,7.5176,7.4008,7.3053,7.2649,7.2649,7.2649,7.2649,7.2649,7.2649,7.2649,7.2649,7.2649,7.2649,7.2649,7.2649,7.2649,7.2649,7.2649,7.2649,7.2649,7.2649,7.2649,7.2649,7.2649,7.2649,7.2649,7.2649,7.2649,7.2649,7.2649,7.2649,7.2649,7.2649,7.2649,7.2649,7.2649,7.2649,7.2437,7.2119,7.2055,7.1609,7.0675,6.9444,6.8276,6.8149,6.8361,6.9019,7.0399,7.0909,7.1354,7.1885,7.2331,7.2501,7.2628,7.2628,7.2628,7.2522,7.2395,7.231,7.3014,7.4228,7.5452,7.5549,7.674,7.7808,7.6808,7.5573,7.2132,6.917,6.8407,6.7839,6.7931,6.7553,6.6461,6.5501,6.435,6.3562,6.2649,6.2043,6.1603,6.2134,6.2725,6.302,6.3488,6.5117,6.6077,6.6364,6.6459,6.7219,6.7125,6.615,6.5383,6.4827,6.5502,6.6745,6.788,6.8818,6.9493,7.8423,7.8423,7.8423,7.8423,7.8423,7.8423,7.8423,7.8423,7.8423,7.8423,7.8423,7.8423,7.8423,7.8084,7.7405,7.6471,7.5309,7.4496,7.3584,7.2968,7.2649,7.2649,7.2649,7.2649,7.2649,7.2649,7.2649,7.2649,7.2649,7.2649,7.2649,7.2649,7.2649,7.2649,7.2649,7.2649,7.2649,7.2649,7.2649,7.2649,7.2649,7.2649,7.2649,7.2649,7.2649,7.2649,7.2649,7.2649,7.2649,7.2649,7.2649,7.2628,7.2352,7.2331,7.1885,7.1439,7.1227,7.0611,6.9677,6.8594,6.7936,6.7767,6.8212,6.9486,7.1163,7.1439,7.1779,7.2437,7.2522,7.2649,7.2649,7.2649,7.2649,7.2586,7.2543,7.2501,7.3053,7.4368,7.4635,7.4892,7.5272,7.5719,7.5139,7.2333,6.8974,6.8064,6.7404,6.7025,6.6921,6.6836,6.5706,6.4748,6.3666,6.2671,6.1822,6.1425,6.1383,6.1759,6.1957,6.1858,6.1858,6.2056,6.3293,6.3684,6.4462,6.5502,6.6077,6.4537,6.3293,6.243,6.2528,6.3976,6.5117,6.6436,6.7314,7.8423,7.8423,7.8423,7.8423,7.8423,7.8423,7.8423,7.8423,7.8423,7.8423,7.8423,7.8423,7.8423,7.8084,7.7278,7.6322,7.5309,7.4496,7.3541,7.2925,7.2649,7.2649,7.2649,7.2649,7.2649,7.2649,7.2649,7.2649,7.2649,7.2649,7.2649,7.2649,7.2649,7.2649,7.2649,7.2649,7.2649,7.2649,7.2649,7.2649,7.2649,7.2649,7.2649,7.2649,7.2649,7.2649,7.2649,7.2649,7.2649,7.2628,7.2607,7.2246,7.1821,7.1673,7.1185,7.0484,7.0123,6.9486,6.8403,6.7936,6.7767,6.8212,6.9062,7.0229,7.1864,7.2331,7.2522,7.2586,7.2649,7.2649,7.2649,7.2649,7.2649,7.2649,7.2649,7.2649,7.2799,7.3083,7.3389,7.3452,7.3575,7.3866,7.2116,6.9111,6.7712,6.7154,6.6623,6.6324,6.6324,6.6388,6.5516,6.458,6.3542,6.265,6.1928,6.1404,6.1383,6.1461,6.1461,6.1461,6.1561,6.166,6.1759,6.1759,6.2155,6.3097,6.4051,6.2725,6.1461,6.1561,6.1858,6.2331,6.2922,6.4246,6.5406,7.8423,7.8423,7.8423,7.8423,7.8423,7.8423,7.8423,7.8423,7.8423,7.8423,7.8423,7.8423,7.8423,7.7978,7.6832,7.5983,7.5303,7.4029,7.3116,7.2713,7.2649,7.2649,7.2649,7.2649,7.2649,7.2649,7.2649,7.2649,7.2649,7.2649,7.2649,7.2649,7.2649,7.2649,7.2649,7.2649,7.2649,7.2649,7.2649,7.2649,7.2649,7.2649,7.2649,7.2649,7.2649,7.2649,7.2649,7.2649,7.2649,7.2586,7.2204,7.1821,7.1418,7.0866,7.0272,6.938,6.8977,6.8276,6.7406,6.7597,6.7936,6.8594,6.9741,7.0909,7.1779,7.2352,7.2607,7.2649,7.2649,7.2649,7.2649,7.2649,7.2649,7.2649,7.2649,7.248,7.214,7.2235,7.2042,7.1992,7.1847,7.0862,6.9567,6.7884,6.7307,6.6986,6.6749,6.6533,6.6556,6.645,6.5707,6.454,6.3478,6.2565,6.1886,6.1362,6.1362,6.1362,6.1362,6.1362,6.1362,6.1362,6.1461,6.1461,6.1461,6.1461,6.1561,6.1362,6.1362,6.1362,6.1362,6.166,6.2056,6.3118,6.386,7.8423,7.8423,7.8423,7.8423,7.8423,7.8423,7.8423,7.8423,7.8423,7.8423,7.8423,7.8423,7.8423,7.7936,7.6513,7.5643,7.4836,7.3626,7.2756,7.2671,7.2649,7.2649,7.2649,7.2649,7.2649,7.2649,7.2649,7.2649,7.2649,7.2649,7.2649,7.2649,7.2649,7.2649,7.2649,7.2553,7.2532,7.2532,7.2532,7.2532,7.2553,7.2649,7.2649,7.2649,7.2649,7.2649,7.2649,7.2416,7.2373,7.231,7.163,7.1142,7.0866,7.0258,6.9295,6.8382,6.7745,6.7169,6.7533,6.8149,6.8764,6.938,7.0293,7.1185,7.1864,7.2331,7.2649,7.2649,7.2649,7.2649,7.2649,7.2522,7.2458,7.2373,7.2076,7.163,7.1376,7.1215,7.0789,7.0593,6.987,6.8727,6.8016,6.7498,6.7,6.7,6.7,6.6957,6.6894,6.683,6.6387,6.4603,6.3351,6.2353,6.1631,6.1404,6.1362,6.1362,6.1362,6.1362,6.1362,6.1362,6.1362,6.1383,6.1362,6.1362,6.1362,6.1362,6.1362,6.1362,6.1362,6.1362,6.1404,6.1673,6.2243,7.8423,7.8423,7.8423,7.8423,7.8423,7.8423,7.8423,7.8423,7.8423,7.8423,7.8423,7.8297,7.8297,7.7978,7.7002,7.5707,7.4242,7.3265,7.2692,7.2649,7.2649,7.2649,7.2649,7.2649,7.2649,7.2649,7.2649,7.2649,7.2649,7.2649,7.2649,7.2649,7.2649,7.2649,7.2532,7.2103,7.2006,7.1867,7.1867,7.1867,7.2103,7.2414,7.2649,7.2649,7.2649,7.2565,7.2352,7.1928,7.163,7.1333,7.0717,6.989,6.9168,6.8849,6.8318,6.766,6.7936,6.8106,6.8382,6.9019,6.9868,7.0357,7.1057,7.1694,7.2182,7.2437,7.2649,7.2649,7.2607,7.2565,7.2289,7.197,7.1673,7.1482,7.0993,7.0441,7.0293,7.0059,6.9677,6.887,6.7958,6.7493,6.741,6.7,6.7,6.7,6.7,6.7,6.7,6.7,6.6514,6.4709,6.352,6.2523,6.1786,6.1622,6.168,6.1552,6.1283,6.1383,6.1362,6.1362,6.1383,6.1283,6.1305,6.1368,6.1383,6.1362,6.1395,6.1358,6.1347,6.1489,6.1622,6.1812,6.213,7.8423,7.8423,7.8423,7.8423,7.8423,7.8423,7.8423,7.8423,7.8423,7.8423,7.8423,7.8275,7.8063,7.7554,7.7169,7.5834,7.4242,7.3095,7.2671,7.2649,7.2649,7.2649,7.2649,7.2649,7.2649,7.2649,7.2649,7.2649,7.2649,7.2649,7.2649,7.2649,7.2318,7.22,7.2103,7.1651,7.1533,7.177,7.177,7.1888,7.22,7.2414,7.2352,7.1991,7.1609,7.1376,7.1248,7.0802,7.0675,7.0484,6.972,6.9019,6.851,6.8085,6.7597,6.7406,6.7915,6.8403,6.8573,6.9826,7.0739,7.1333,7.1779,7.2204,7.2501,7.2628,7.2649,7.2543,7.2554,7.1843,7.1418,7.0909,7.0675,7.0548,7.0385,6.9896,6.938,6.9253,6.8658,6.7894,6.7448,6.7148,6.7,6.7,6.7,6.7,6.7,6.7,6.7,6.6851,6.6705,6.5431,6.4752,6.3442,6.2143,6.2177,6.2353,6.1522,6.1084,6.1383,6.1362,6.1362,6.1383,6.1211,6.1253,6.1258,6.1321,6.1578,6.1477,6.1397,6.1418,6.1561,6.1827,6.2118,6.2561,7.8423,7.8423,7.8423,7.8423,7.8423,7.8423,7.8423,7.8423,7.8423,7.8423,7.8381,7.8106,7.7554,7.7084,7.6807,7.5558,7.4157,7.3116,7.2649,7.2649,7.2649,7.2649,7.2649,7.2649,7.2649,7.2649,7.2649,7.2649,7.2649,7.2649,7.2532,7.2435,7.1985,7.163,7.1394,7.0919,7.0857,7.0921,7.1018,7.1204,7.1504,7.1631,7.142,7.0639,7.0434,7.0116,6.9833,6.9734,6.9656,6.9459,6.8632,6.8318,6.8,6.7512,6.7106,6.7233,6.8149,6.887,6.9104,7.0463,7.1376,7.1715,7.2161,7.2586,7.2586,7.2501,7.2289,7.2119,7.1567,7.0824,7.0109,6.9805,6.972,6.9592,6.938,6.8977,6.8425,6.8191,6.7915,6.7427,6.7148,6.7,6.7,6.7,6.7,6.7,6.7,6.7,6.7,6.683,6.6533,6.6174,6.558,6.4037,6.2548,6.2582,6.2113,6.1116,6.0906,6.1084,6.1184,6.1283,6.1274,6.1146,6.1069,6.1278,6.1531,6.168,6.1763,6.1887,6.1763,6.1639,6.2116,6.2615,6.2949,7.8423,7.8423,7.8423,7.8423,7.8423,7.8423,7.8423,7.8423,7.8423,7.8381,7.8296,7.753,7.7147,7.6616,7.5324,7.4496,7.3817,7.3095,7.2649,7.2649,7.2649,7.2649,7.2649,7.2649,7.2649,7.2649,7.2649,7.2649,7.2649,7.2649,7.2318,7.2006,7.1651,7.1275,7.08,7.0283,6.9933,6.9945,6.9821,6.9839,6.9852,6.982,6.9527,6.9099,6.9197,6.9205,6.8585,6.8502,6.8457,6.7948,6.7589,6.7275,6.7278,6.713,6.7,6.7172,6.8679,6.9513,6.9847,7.1206,7.2352,7.2458,7.2586,7.2607,7.2352,7.1906,7.1609,7.1227,7.0717,7.0109,6.996,6.9168,6.8722,6.8552,6.7958,6.7533,6.7342,6.7299,6.7363,6.7,6.7,6.7,6.7,6.7,6.7,6.7,6.7,6.7,6.7,6.6873,6.6512,6.611,6.4985,6.3492,6.2801,6.2587,6.1254,6.061,6.0605,6.0706,6.0706,6.0727,6.0652,6.0664,6.1081,6.1619,6.1867,6.201,6.207,6.2405,6.23,6.2174,6.2568,6.3087,6.3504,7.8423,7.8423,7.8423,7.8423,7.8423,7.8423,7.8423,7.8423,7.8423,7.8021,7.7511,7.7254,7.6424,7.5324,7.4496,7.3753,7.3308,7.2819,7.2649,7.2649,7.2649,7.2649,7.2649,7.2649,7.2649,7.2649,7.2649,7.2649,7.2532,7.2318,7.1985,7.177,7.1038,7.05,7.0184,6.9217,6.8887,6.914,6.8748,6.8525,6.8839,6.8734,6.8288,6.7769,6.7341,6.7314,6.6797,6.7076,6.715,6.7002,6.6708,6.6695,6.6695,6.6891,6.7,6.7406,6.8849,6.9939,7.0449,7.1503,7.2437,7.1991,7.1928,7.1694,7.13,7.0866,7.0569,7.0378,6.9741,6.8892,6.8446,6.7915,6.7809,6.7639,6.7342,6.7042,6.7021,6.7,6.7,6.7,6.7,6.7,6.7,6.7,6.7,6.7,6.7,6.6782,6.6782,6.6523,6.6252,6.5807,6.4559,6.3491,6.2782,6.1824,6.0521,6.0228,6.0204,6.0204,6.027,6.0211,6.0071,6.0156,6.0506,6.1205,6.2228,6.2237,6.2268,6.2502,6.2609,6.2716,6.2839,6.3172,6.3479,7.8423,7.8423,7.8423,7.8423,7.8423,7.8423,7.8423,7.8402,7.8063,7.7679,7.7041,7.6531,7.5409,7.4136,7.3838,7.3392,7.2756,7.2692,7.2649,7.2649,7.2649,7.2649,7.2649,7.2414,7.2435,7.2414,7.2435,7.2435,7.22,7.1749,7.1533,7.1094,7.0098,6.94,6.9119,6.8054,6.7802,6.8249,6.7465,6.7336,6.7882,6.7531,6.6903,6.6437,6.5485,6.5025,6.5053,6.5712,6.6019,6.6149,6.6149,6.6477,6.6586,6.6891,6.7148,6.7767,6.904,7.0024,7.03,7.1269,7.197,7.1185,7.0972,7.0717,7.0088,6.9805,6.9614,6.9444,6.8722,6.7958,6.7448,6.7063,6.7085,6.7127,6.7042,6.7,6.7,6.7,6.7,6.7,6.7,6.7,6.7,6.7,6.7,6.6891,6.6782,6.6586,6.6368,6.6149,6.5894,6.581,6.4399,6.2878,6.2135,6.1103,6.0014,5.9481,5.9621,5.9722,5.9809,5.9789,6.0299,6.0359,6.0215,6.1211,6.2532,6.2613,6.2707,6.2638,6.2678,6.2897,6.3114,6.3223,6.3467,7.8423,7.8423,7.8423,7.8423,7.8423,7.8423,7.8254,7.8106,7.7447,7.7084,7.6552,7.507,7.4369,7.4029,7.3265,7.2777,7.2649,7.2649,7.2649,7.2649,7.2649,7.2532,7.2435,7.1985,7.1867,7.1867,7.1888,7.1533,7.1254,7.0975,7.0521,6.9897,6.9046,6.8427,6.7872,6.6931,6.6314,6.6358,6.5979,6.5909,6.5884,6.5538,6.5365,6.521,6.4432,6.3968,6.417,6.4812,6.5472,6.5362,6.5931,6.6477,6.6891,6.7,6.7448,6.8276,6.9104,6.9939,7.0194,7.0802,7.1057,7.0272,7.0059,7.0088,6.9635,6.8998,6.8616,6.8616,6.7767,6.7254,6.7,6.7,6.7,6.7,6.7,6.7,6.7,6.7,6.7,6.7,6.7,6.7,6.7,6.7,6.6891,6.6674,6.6368,6.604,6.5712,6.5492,6.5492,6.5258,6.3921,6.2389,6.138,6.0336,5.9544,5.8974,5.9116,5.93,5.9483,6.0007,6.0506,6.0925,6.1218,6.1906,6.2747,6.3041,6.3273,6.3203,6.3002,6.3253,6.3485,6.3393,6.3443,7.8423,7.8423,7.8423,7.8423,7.8423,7.8423,7.7957,7.7573,7.7126,7.6446,7.524,7.4348,7.3775,7.3244,7.284,7.2649,7.2649,7.2649,7.2649,7.2649,7.2649,7.2179,7.1609,7.1394,7.1156,7.1177,7.1177,7.0919,7.0598,6.9749,6.9307,6.8749,6.7802,6.7123,6.685,6.6024,6.5566,6.5561,6.4829,6.4596,6.4763,6.4301,6.417,6.4059,6.3837,6.3504,6.3615,6.4391,6.4832,6.5053,6.5712,6.6368,6.6565,6.6891,6.7533,6.8382,6.8786,6.9359,6.9847,7.0229,7.0038,6.9295,6.9062,6.8828,6.8361,6.7979,6.766,6.7682,6.7363,6.7042,6.7,6.7,6.7,6.7,6.7,6.7,6.7,6.7,6.7,6.7,6.7,6.7,6.7,6.6782,6.6586,6.6259,6.604,6.5492,6.5053,6.4943,6.4771,6.4272,6.3257,6.2232,6.1312,5.9967,5.8933,5.867,5.8771,5.8953,5.9436,6.0304,6.0703,6.1167,6.1785,6.2368,6.263,6.2972,6.3283,6.3504,6.3504,6.3575,6.3555,6.3545,6.3454,7.8423,7.8423,7.8423,7.8423,7.8275,7.7999,7.7636,7.6998,7.6509,7.5282,7.4284,7.3838,7.3265,7.2713,7.2649,7.2649,7.2649,7.2532,7.2435,7.2435,7.2318,7.1491,7.0681,7.0562,7.0562,7.05,7.0273,7.0093,6.9774,6.8561,6.7899,6.7858,6.6563,6.5984,6.5748,6.5004,6.4827,6.493,6.4009,6.3858,6.419,6.3837,6.3504,6.3504,6.3504,6.3504,6.3635,6.4079,6.4301,6.4522,6.5602,6.6259,6.6544,6.6616,6.7045,6.783,6.8106,6.8425,6.9019,6.9359,6.904,6.8234,6.8106,6.7809,6.7042,6.7108,6.7,6.7,6.7,6.7,6.7,6.7,6.7,6.7,6.7,6.7,6.7,6.7,6.7,6.7,6.7,6.7,6.7,6.6804,6.6498,6.604,6.5602,6.5142,6.4501,6.428,6.428,6.3553,6.2965,6.2074,6.1081,5.9534,5.8646,5.8465,5.8445,5.8789,5.927,6.0034,6.0517,6.1302,6.2147,6.2701,6.2902,6.3072,6.3163,6.3504,6.3504,6.3504,6.3504,6.3123,6.3062,7.8423,7.8423,7.8423,7.8275,7.8106,7.7488,7.7041,7.6637,7.5112,7.4263,7.3881,7.3083,7.2756,7.2671,7.2532,7.2532,7.2532,7.2103,7.1888,7.1651,7.1156,7.0541,6.9945,6.9825,6.9764,6.9581,6.8908,6.8346,6.7912,6.6967,6.6407,6.6306,6.554,6.4943,6.4823,6.4138,6.3796,6.3837,6.3696,6.3504,6.3615,6.3504,6.3504,6.3504,6.3504,6.3504,6.3504,6.3635,6.3968,6.4632,6.5602,6.6435,6.6701,6.6259,6.6238,6.7106,6.7193,6.7299,6.7512,6.8212,6.817,6.7448,6.7321,6.713,6.7042,6.7,6.7,6.7,6.7,6.7,6.7,6.7,6.7,6.7,6.7,6.7,6.7,6.7,6.7,6.7,6.7,6.7,6.7,6.6891,6.6347,6.5691,6.5273,6.4722,6.4059,6.3726,6.3615,6.3253,6.2819,6.1973,6.1172,5.9773,5.8948,5.8686,5.8364,5.8545,5.8908,5.9531,6.0054,6.1463,6.248,6.3042,6.3364,6.3324,6.3424,6.3404,6.3404,6.3484,6.3163,6.252,6.2259,7.8423,7.8423,7.8423,7.7978,7.7488,7.7169,7.6339,7.507,7.4348,7.3515,7.2651,7.225,7.2124,7.2103,7.2103,7.2103,7.1985,7.1867,7.1296,7.0562,6.9825,6.9446,6.9227,6.9206,6.8984,6.8337,6.7487,6.6967,6.679,6.5849,6.5386,6.5245,6.4501,6.4098,6.4038,6.3645,6.3504,6.3504,6.3504,6.3504,6.3504,6.3504,6.3504,6.3504,6.3504,6.3504,6.3504,6.3504,6.3837,6.4522,6.5273,6.5815,6.6088,6.541,6.5495,6.6599,6.6663,6.6769,6.7767,6.7703,6.7406,6.7193,6.7,6.7,6.7,6.7,6.7,6.7,6.7,6.7,6.7,6.7,6.7,6.7,6.7,6.7,6.7,6.7,6.7,6.7,6.7,6.6912,6.6586,6.6238,6.5581,6.4943,6.4522,6.3948,6.3726,6.3504,6.3504,6.3434,6.2701,6.1986,6.1121,6.0235,5.935,5.8787,5.8324,5.8445,5.8666,5.923,5.9773,6.1141,6.1878,6.2339,6.2851,6.2942,6.2962,6.3203,6.3103,6.229,6.1013,6.08,6.082,7.8127,7.7872,7.7851,7.7573,7.6998,7.6339,7.5346,7.4114,7.3711,7.293,7.1832,7.177,7.1651,7.1533,7.1414,7.1414,7.1394,7.1156,7.0562,6.9525,6.8804,6.8424,6.8363,6.8142,6.772,6.7193,6.6346,6.5923,6.5647,6.4923,6.4501,6.44,6.3917,6.3524,6.3544,6.3504,6.3504,6.3504,6.3504,6.3504,6.3504,6.3504,6.3504,6.3504,6.3504,6.3504,6.3504,6.3747,6.4079,6.4522,6.4874,6.5288,6.5537,6.5092,6.5325,6.6429,6.6026,6.6344,6.7363,6.7236,6.7021,6.7,6.7,6.7,6.7,6.7,6.7,6.7,6.7,6.7,6.7,6.7,6.7,6.7,6.7,6.7,6.7,6.7,6.7,6.7,6.6912,6.6695,6.6259,6.5691,6.5163,6.4632,6.4301,6.3858,6.3635,6.3504,6.3504,6.3424,6.2661,6.1878,6.1121,6.0235,5.935,5.8646,5.8385,5.8385,5.8686,5.9109,5.9572,6.0336,6.0919,6.1422,6.1845,6.1986,6.1825,6.1925,6.1817,6.07,5.8941,5.846,5.8455,7.7828,7.7062,7.702,7.6811,7.6531,7.5006,7.4157,7.3719,7.3095,7.2326,7.1672,7.1651,7.1296,7.0919,7.08,7.0759,7.0459,7.0061,6.9403,6.8664,6.7881,6.7697,6.7656,6.6834,6.6548,6.6306,6.5346,6.4943,6.4843,6.4159,6.3625,6.3565,6.3544,6.3504,6.3504,6.3504,6.3504,6.3504,6.3504,6.3504,6.3504,6.3504,6.3504,6.3504,6.3504,6.3484,6.3444,6.3998,6.4269,6.4367,6.4581,6.5089,6.5389,6.5389,6.5559,6.5537,6.5665,6.5665,6.5898,6.6663,6.7,6.7,6.7,6.7,6.7,6.7,6.7,6.7,6.7,6.7,6.7,6.7,6.7,6.7,6.7,6.7,6.7,6.7,6.7,6.6891,6.6586,6.6368,6.6149,6.5602,6.5053,6.4522,6.4301,6.4079,6.3615,6.3504,6.3504,6.3364,6.2741,6.1878,6.1121,6.032,5.929,5.8566,5.8405,5.8344,5.8606,5.8706,5.9149,5.939,5.9994,6.0336,6.0759,6.1342,6.1101,5.9855,6.0005,5.9519,5.7904,5.6684,5.6582,7.6237,7.5817,7.5427,7.5191,7.4921,7.3824,7.3114,7.2426,7.2111,7.163,7.1058,7.0562,7.0562,7.0681,7.0303,6.9659,6.8614,6.8455,6.7875,6.7056,6.6794,6.677,6.6709,6.6487,6.6024,6.5439,6.5004,6.4561,6.4038,6.3756,6.3504,6.3504,6.3504,6.3504,6.3504,6.3504,6.3504,6.3504,6.3504,6.3504,6.3504,6.3504,6.3504,6.3504,6.3504,6.3243,6.2621,6.284,6.2795,6.2418,6.353,6.4028,6.368,6.3763,6.3839,6.3903,6.4391,6.5007,6.5686,6.6578,6.7,6.7,6.7,6.7,6.7,6.7,6.7,6.7,6.7,6.7,6.7,6.7,6.7,6.7,6.7,6.7,6.7,6.7,6.6891,6.6586,6.6149,6.5602,6.5163,6.4963,6.4522,6.3948,6.3858,6.3837,6.3615,6.3504,6.3504,6.3424,6.277,6.1825,6.1,5.9692,5.8586,5.8445,5.8324,5.8304,5.8425,5.8385,5.8525,5.8666,5.8928,5.927,5.9833,6.0557,5.9676,5.7942,5.7723,5.7678,5.6369,5.5122,5.3792,7.4932,7.4963,7.4239,7.3777,7.3309,7.2853,7.2174,7.1414,7.1394,7.1038,7.0443,6.9945,6.9825,7.0044,6.9034,6.7953,6.7253,6.7213,6.6891,6.6387,6.5889,6.5728,6.5708,6.5406,6.4943,6.448,6.442,6.4138,6.3544,6.3504,6.3504,6.3504,6.3504,6.3504,6.3504,6.3504,6.3504,6.3504,6.3504,6.3504,6.3504,6.3504,6.3344,6.3062,6.2041,6.1475,6.1737,6.1825,6.1563,6.102,6.2225,6.286,6.2655,6.2819,6.3075,6.3436,6.3966,6.4644,6.5198,6.6068,6.6599,6.662,6.6896,6.7,6.7,6.7,6.7,6.7,6.7,6.7,6.7,6.7,6.7,6.7,6.7,6.7,6.7,6.7,6.6891,6.6586,6.604,6.5382,6.4853,6.4301,6.4079,6.3615,6.3504,6.3504,6.3484,6.3293,6.2962,6.2951,6.2127,6.1141,6.0517,5.9189,5.8304,5.8304,5.8202,5.8202,5.8304,5.8304,5.7978,5.8158,5.8445,5.8521,5.7071,5.7781,5.7345,5.5961,5.6034,5.5595,5.4001,5.2304,5.0864,7.4056,7.4158,7.3383,7.2624,7.2099,7.1811,7.1296,7.0681,7.0681,7.0303,6.9825,6.9624,6.9225,6.8644,6.7173,6.6346,6.617,6.6286,6.609,6.5869,6.5185,6.4823,6.4782,6.4018,6.3544,6.3736,6.3645,6.3565,6.3524,6.3504,6.3504,6.3504,6.3504,6.3504,6.3504,6.3504,6.3504,6.3504,6.3504,6.3504,6.3504,6.3404,6.2882,6.1663,5.9314,5.9052,6.0707,6.094,6.0985,6.0945,6.1244,6.1681,6.2448,6.2777,6.3308,6.4009,6.4261,6.4304,6.441,6.5198,6.5771,6.5856,6.6599,6.7,6.7,6.7,6.7,6.7,6.7,6.7,6.7,6.7,6.7,6.7,6.7,6.7,6.7,6.6891,6.7,6.6674,6.6259,6.5492,6.4632,6.3948,6.3475,6.3454,6.3344,6.3354,6.3153,6.256,6.2199,6.1925,6.096,5.9672,5.9531,5.8807,5.8364,5.8202,5.7978,5.7876,5.808,5.808,5.7774,5.7672,5.7121,5.6261,5.519,5.4492,5.3983,5.4266,5.4294,5.3468,5.1546,4.9711,4.8363,7.2174,7.1842,7.2013,7.1986,7.1748,7.0764,7.0184,7.0085,7.0085,6.9965,6.9645,6.8658,6.7794,6.7052,6.6452,6.5963,6.5419,6.5359,6.4943,6.434,6.4078,6.3957,6.3957,6.3716,6.3504,6.3504,6.3504,6.3504,6.3504,6.3504,6.3504,6.3504,6.3504,6.3504,6.3504,6.3504,6.3504,6.3484,6.3504,6.3504,6.3434,6.2388,6.0809,5.9089,5.9629,6.0001,6.0074,6.0014,5.9921,5.9706,6.0629,6.1556,6.2176,6.2666,6.3053,6.3287,6.3308,6.3308,6.3432,6.4794,6.5707,6.5771,6.6578,6.7,6.7,6.7,6.7,6.6915,6.7,6.6936,6.7,6.7,6.7,6.7,6.7,6.6891,6.6523,6.6477,6.6196,6.5382,6.5107,6.4722,6.3867,6.3142,6.254,6.248,6.2147,6.1704,6.1624,6.1543,6.1342,6.1282,6.0396,5.9431,5.8787,5.8221,5.8364,5.808,5.6589,5.5829,5.5829,5.4256,5.3507,5.4672,5.3698,5.2947,5.2546,5.1193,5.0203,5.1454,5.2169,5.1693,4.9776,4.8382,4.7109,7.0919,7.0422,7.08,7.08,7.0443,7.0064,6.9502,6.8959,6.8918,6.8695,6.831,6.7088,6.617,6.5782,6.5305,6.4883,6.44,6.438,6.4098,6.3544,6.3504,6.3504,6.3504,6.3504,6.3504,6.3504,6.3504,6.3504,6.3504,6.3504,6.3504,6.3484,6.3123,6.3072,6.2942,6.2621,6.2549,6.2549,6.2549,6.2549,6.2259,6.0245,5.8768,5.8516,5.8415,5.8633,5.9066,5.9109,5.9053,5.8893,5.9789,6.0566,6.1075,6.1725,6.2151,6.2353,6.2353,6.2353,6.2353,6.3733,6.4561,6.4561,6.5771,6.6514,6.6535,6.6896,6.6212,6.4961,6.4769,6.5299,6.5813,6.5962,6.5962,6.5962,6.5941,6.5813,6.5535,6.532,6.4912,6.4266,6.3725,6.3291,6.2884,6.2175,6.1805,6.1684,6.1382,6.1101,6.098,6.0658,6.0497,6.0231,5.8797,5.794,5.8158,5.7038,5.6074,5.6158,5.4983,5.3489,5.3384,5.2231,5.1475,5.1581,5.1792,5.1581,5.0381,4.9098,4.8488,4.9278,5.0097,4.9906,4.9056,4.7009,4.5353,7.0324,6.9706,6.9825,6.9406,6.8825,6.9203,6.8716,6.7596,6.7576,6.7032,6.6084,6.5238,6.4762,6.4662,6.3998,6.3585,6.3544,6.3504,6.3524,6.3504,6.3504,6.3504,6.3504,6.3504,6.3504,6.3504,6.3504,6.3444,6.3324,6.3344,6.3414,6.3293,6.246,6.2038,6.2086,6.1422,6.104,6.1,6.0945,6.0612,6.036,5.7749,5.7322,5.9179,5.6565,5.6158,5.8262,5.8304,5.8304,5.8406,5.8913,5.9419,5.9924,6.0322,6.0879,6.1256,6.115,6.1171,6.1397,6.2353,6.3032,6.3075,6.452,6.5198,6.5113,6.5832,6.4815,6.2157,6.1509,6.2589,6.4077,6.414,6.4246,6.454,6.458,6.4285,6.4308,6.3764,6.3472,6.3367,6.2437,6.1723,6.18,6.1461,6.102,6.0919,6.0598,6.0437,6.0396,5.9914,5.9531,5.9059,5.7259,5.6564,5.7468,5.4691,5.4162,5.4483,5.2924,5.1594,5.0875,5.0682,5.0629,4.9358,5.0188,4.9273,4.8203,4.7784,4.756,4.7419,4.7436,4.7485,4.6556,4.4814,4.2793,6.9586,6.9107,6.9566,6.9061,6.7918,6.735,6.6946,6.6649,6.6629,6.5647,6.432,6.3998,6.3897,6.3897,6.3716,6.3504,6.3504,6.3504,6.3504,6.3504,6.3504,6.3504,6.3504,6.3504,6.3504,6.3504,6.3504,6.3143,6.254,6.248,6.2267,6.1624,6.1382,6.1302,6.1261,6.108,6.1,6.0919,5.9612,5.8043,5.6304,5.7309,5.7211,5.6119,5.6892,5.7774,5.8202,5.8304,5.8507,5.8873,5.9399,5.9924,6.0484,6.0289,6.0281,6.0315,5.9742,5.9635,6.04,6.1971,6.2968,6.299,6.2803,6.2465,6.1867,6.1908,6.2033,6.2216,6.0615,6.1056,6.3366,6.3095,6.2885,6.4181,6.4389,6.4075,6.3597,6.3116,6.2612,6.2211,6.1597,6.1152,6.1193,6.1106,6.0784,5.9994,5.933,5.8948,5.8908,5.8787,5.8626,5.8463,5.8036,5.7672,5.81,5.6896,5.5642,5.4051,5.2067,4.9978,4.8113,4.6138,4.5256,4.6168,4.5626,4.5054,4.4801,4.4473,4.4247,4.4184,4.4289,4.4015,4.3851,4.3022,4.1992,6.7993,6.7777,6.8013,6.775,6.7032,6.6548,6.6105,6.5587,6.5185,6.448,6.3544,6.3504,6.3283,6.2922,6.2902,6.2681,6.2428,6.2428,6.2408,6.2428,6.2408,6.2428,6.2428,6.2408,6.2408,6.2408,6.2408,6.2167,6.1724,6.1684,6.1443,6.104,6.1,6.0779,6.0376,5.9974,5.9773,5.9732,5.8807,5.7754,5.6466,5.7652,5.7754,5.6486,5.755,5.8304,5.8304,5.8304,5.8386,5.869,5.9217,5.9616,5.9701,5.9672,5.9599,5.9466,5.8595,5.8298,5.8765,5.9381,5.9599,5.9434,5.9993,5.8966,5.5266,5.4844,5.5357,5.6535,5.7014,5.8036,6.0412,6.0989,6.132,6.2353,6.2735,6.2786,6.2172,6.168,6.1165,6.0648,6.0169,5.9773,5.9773,5.9773,5.9531,5.9149,5.8686,5.8344,5.8344,5.8324,5.8324,5.8202,5.7346,5.6794,5.6569,5.4942,5.2719,5.1043,4.8606,4.6655,4.5353,4.3709,4.2813,4.3114,4.2496,4.2002,4.2188,4.2002,4.1817,4.1755,4.1755,4.1483,4.1166,4.1191,4.0459,6.6231,6.6231,6.6231,6.6286,6.6165,6.603,6.5527,6.4641,6.3796,6.3374,6.3253,6.3163,6.2811,6.1978,6.1978,6.1684,6.102,6.1,6.1,6.1,6.1,6.1,6.1,6.1,6.1,6.1,6.1,6.0919,6.0819,6.0799,6.0718,6.0618,6.0618,6.0215,5.9471,5.8686,5.8304,5.8304,5.8304,5.8304,5.8304,5.8304,5.8364,5.8465,5.8385,5.8364,5.8485,5.8364,5.8364,5.8485,5.8853,5.895,5.8688,5.8841,5.8719,5.8288,5.7321,5.6699,5.6599,5.6175,5.5523,5.5032,5.6588,5.5008,4.8713,4.8291,4.8877,4.9849,5.2334,5.4316,5.6344,5.8062,5.908,5.9529,6.0187,6.0479,5.9846,5.9477,5.9124,5.8768,5.8285,5.8163,5.8224,5.8324,5.8425,5.8183,5.8244,5.8304,5.8244,5.8002,5.766,5.7115,5.5391,5.4086,5.3168,4.99,4.7831,4.6658,4.4639,4.3297,4.2579,4.1625,4.1292,4.1437,4.0852,4.052,4.0597,4.0474,4.0365,4.0365,4.0365,4.0128,3.9388,3.9006,3.8543,6.6231,6.6231,6.6231,6.5923,6.5124,6.5124,6.4641,6.3796,6.2801,0.0,0.0,6.1463,6.1362,6.1221,6.1221,6.1141,6.1,6.1,6.1,6.1,6.1,6.1,6.1,6.1,6.1,6.1,6.1,6.0723,5.9914,5.9873,5.9531,5.8827,5.8767,5.8686,5.8545,5.8385,5.8304,5.8304,5.8304,5.8304,5.8304,5.8304,5.8666,5.939,5.8706,5.8666,5.937,5.8706,5.8646,5.935,5.9177,5.9216,5.9534,5.7932,5.6869,5.6381,5.4795,5.3631,5.3382,5.4194,5.4509,5.4037,5.3294,5.1187,4.7384,4.8688,5.0251,5.1846,5.1661,5.2741,5.5747,5.5342,5.5219,5.6529,5.6861,5.6734,5.6356,5.6339,5.6713,5.6867,5.6971,5.7198,5.7157,5.77,5.8063,5.7459,5.76,5.8304,5.8042,5.6274,5.449,5.3188,5.1422,4.9553,4.8836,4.7589,4.6501,4.4146,4.326,4.2269,4.066,3.9624,3.9671,4.0551,3.9794,3.9331,3.964,3.9331,3.9102,3.8976,3.9071,3.8929,3.8634,3.7289,3.5843,6.4923,6.4883,6.4883,6.4662,0.0,6.4259,6.3495,6.2247,6.1825,6.1402,6.1,6.1,6.0738,6.0296,6.0316,6.0074,5.9632,5.9632,5.9652,5.9632,5.9632,5.9632,5.9632,5.9632,5.9632,5.9632,5.9632,5.9411,5.8988,5.8968,5.8747,5.8324,5.8304,5.8304,5.8304,5.8304,5.8304,5.8304,5.8304,5.8304,5.8304,5.8304,5.8505,5.8928,5.8545,0.0,0.0,0.0,0.0,0.0,0.0,0.0,0.0,0.0,0.0,5.3545,5.1773,5.0685,5.0394,4.9616,4.9309,4.9654,4.86,4.7157,4.5386,4.6514,4.7538,4.8229,4.9012,5.0169,5.176,5.237,5.3091,5.4346,5.4745,5.4851,5.4838,5.4878,5.4847,5.4733,5.4853,5.4964,5.4964,5.5367,5.5387,5.5065,5.5443,5.5548,5.5467,5.3639,5.1977,5.0933,4.9134,4.7427,4.6105,4.5484,4.4173,4.1957,4.1042,4.0356,3.9306,3.8684,3.8405,3.8868,3.8312,3.7679,3.8003,3.7833,3.7601,3.7601,3.7417,3.7232,3.691,3.5815,3.4629,6.3133,6.3112,6.3112,6.3112,6.3133,6.3112,6.2207,6.0738,6.0738,6.0638,6.0497,6.0477,6.0074,5.9411,5.939,5.8988,5.8324,5.8304,5.8304,5.8304,5.8304,5.8304,5.8304,5.8304,5.8304,5.8304,5.8304,5.8304,5.8304,5.8304,5.8304,5.8304,5.8304,5.8304,5.8304,0.0,0.0,0.0,5.8304,5.8304,5.8304,5.8304,5.8385,5.8545,5.8385,0.0,5.8284,5.7439,5.6896,5.6674,5.5464,0.0,0.0,0.0,0.0,0.0,0.0,0.0,0.0,0.0,0.0,0.0,4.3467,4.296,4.2743,4.3593,4.4009,4.3606,4.58,4.7324,4.7346,4.9294,5.0917,5.1803,5.2287,5.2611,5.279,5.2612,5.2478,5.2057,5.24,5.2581,5.2642,5.2904,5.3065,5.2984,5.2984,5.2823,5.2239,5.0861,4.9814,4.9296,4.773,4.5696,4.3068,4.2056,4.0951,3.9563,3.8559,3.8344,3.8266,3.7848,3.7462,3.7585,3.6999,3.6554,3.6554,3.6508,3.66,3.6434,3.6194,3.5744,3.5172,3.4629,3.4266,6.1322,6.1322,6.1322,6.1322,6.1322,6.1322,6.0759,5.9813,5.9813,5.939,5.8646,5.8646,5.8586,5.8485,5.8465,5.8425,5.8304,5.8304,5.8304,5.8304,5.8304,5.8304,5.8304,5.8304,5.8304,5.8304,5.8304,5.8304,5.8304,5.8304,5.8304,5.8304,5.8304,5.8304,5.8284,5.7519,5.7519,5.8304,5.8304,5.8304,5.8304,5.8304,5.8686,5.939,5.8706,5.8304,5.8284,5.7439,5.6594,5.5789,5.4214,5.3139,5.2678,4.9791,4.8302,0.0,4.6071,0.0,0.0,0.0,0.0,0.0,0.0,0.0,0.0,4.0916,4.1888,4.1311,4.3228,4.4612,4.4954,4.5846,4.6835,4.7745,4.7871,4.7582,4.6974,4.7509,4.8037,4.8285,4.9713,5.0727,5.0767,5.2138,5.2743,5.1997,5.2299,5.1605,4.9124,4.8654,4.8239,4.6622,4.5027,4.2422,3.8909,3.7715,3.7455,3.7152,3.7014,3.677,3.6922,3.6829,3.6752,3.6737,3.6675,3.6508,3.6508,3.6508,3.6418,3.6089,3.5849,3.5459,3.4617,3.3955,3.3783,6.1,6.1,6.1,5.9833,5.8022,5.8002,5.7781,5.7419,5.7419,5.7198,5.6815,5.6815,5.6815,5.6795,5.6292,5.6332,5.6815,5.6815,5.7077,5.754,5.756,5.7841,5.8304,5.8304,5.8304,5.8304,5.8304,5.8042,5.758,5.756,5.7298,5.6815,5.6815,5.6835,5.6795,5.6413,5.6654,5.754,5.756,5.7801,5.8284,5.8304,5.8485,5.8867,5.8042,5.756,5.756,5.5749,5.4341,5.3395,5.1283,4.9846,4.9447,4.6247,4.4792,0.0,0.0,0.0,0.0,0.0,0.0,0.0,0.0,0.0,0.0,0.0,3.8942,4.0061,4.2692,4.3626,4.1762,4.2377,4.2976,4.324,4.2996,4.3198,4.4143,4.4322,4.4756,4.5388,4.6172,4.7038,4.8023,4.8933,4.9351,4.9452,4.9391,4.8547,4.6538,4.5492,4.488,4.3909,4.1457,3.8779,3.7018,3.6508,3.6508,3.6508,3.6508,3.6508,3.6508,3.6508,3.6508,3.6508,3.6508,3.6508,3.6254,3.6254,3.6074,3.5534,3.4801,3.3973,3.3197,3.283,3.2654,6.0235,5.9974,5.935,5.7519,5.5005,5.5005,5.5005,5.4984,5.5005,5.5005,5.4964,5.4763,5.4683,5.4642,5.3958,5.4019,5.4683,5.4904,5.5487,5.6312,5.6332,5.6815,5.764,5.766,5.768,5.766,5.768,5.7198,5.6373,5.6332,5.597,5.5306,5.4642,5.4266,5.4076,5.4592,5.5233,5.6116,5.6435,5.6977,5.7962,5.8203,5.8203,5.7982,5.7318,5.6674,5.6011,5.3952,5.2158,5.0719,4.7847,4.5928,4.5389,4.2045,0.0,0.0,0.0,0.0,0.0,0.0,0.0,0.0,0.0,3.2461,3.0773,0.0,3.5622,0.0,4.0287,4.1123,3.9218,3.9639,0.0,0.0,3.9917,4.0231,4.1801,4.1794,4.1988,4.2692,4.3135,4.3919,4.5307,4.591,4.6273,4.6675,4.6374,4.5807,4.5044,4.3719,4.2894,4.2706,4.028,3.7903,3.7941,3.7322,3.6498,3.6207,3.6103,3.6103,3.6103,3.6103,3.603,3.5942,3.5957,3.578,3.5321,3.5351,3.4964,3.4062,3.295,3.1954,3.1673,3.1616,3.1744,5.8022,5.7077,5.4738,5.3549,5.3287,5.3287,5.3267,5.3287,5.3267,5.3287,5.3226,5.242,5.2057,5.1967,5.1977,0.0,5.2007,5.2904,5.3636,5.4386,5.4406,5.4964,5.5829,5.5829,5.5829,5.5829,5.5829,5.5347,5.4502,5.4461,5.4366,5.4321,5.1947,5.0365,4.9622,5.1524,5.3034,5.393,5.4726,5.5779,5.7057,5.7882,5.7922,5.7077,5.7016,5.5809,5.3529,5.238,5.0599,4.804,4.4172,4.1659,4.0699,0.0,0.0,0.0,0.0,0.0,0.0,0.0,0.0,0.0,0.0,0.0,0.0,0.0,0.0,0.0,3.3326,0.0,3.8076,3.8247,0.0,0.0,0.0,3.9856,3.909,3.9568,3.9866,3.9926,0.0,0.0,4.2692,4.414,4.4983,4.414,4.4704,4.5207,4.5089,4.4852,4.4871,4.4553,4.2957,4.1672,4.076,3.8649,3.6435,3.5031,3.4783,3.4799,3.4783,3.4698,3.4644,3.4318,3.4233,3.4062,3.3519,3.3374,3.2807,3.0782,3.0304,3.0389,3.0791,3.0905,3.1019,5.4421,5.1956,5.0458,4.919,4.8329,4.8309,4.8808,4.9794,4.9794,4.9814,4.9774,4.9412,4.8386,4.6897,4.7523,0.0,0.0,0.0,4.9774,5.1052,5.1645,5.2651,5.3979,5.4019,5.4039,5.3999,5.3476,5.2751,5.1886,5.1363,4.9504,4.6592,0.0,0.0,4.6006,4.8337,5.0455,5.2006,5.292,5.46,5.6916,5.6775,5.6513,5.6151,5.5105,5.3911,5.2299,5.0297,4.8023,4.5329,4.2355,3.9972,0.0,0.0,0.0,0.0,0.0,0.0,0.0,0.0,0.0,0.0,0.0,2.4428,2.2635,0.0,0.0,0.0,2.9618,3.1403,3.3955,3.4082,0.0,0.0,0.0,0.0,0.0,0.0,0.0,3.7998,3.928,4.0378,4.1445,4.1726,4.1667,4.1288,4.2534,4.3435,4.3328,0.0,4.2967,4.2106,4.029,3.8817,3.7728,3.6279,3.5025,3.4133,3.3633,3.3339,3.3324,3.3324,3.316,3.2848,3.2782,3.2603,3.1863,3.089,2.9873,2.9035,2.8857,2.8928,2.917,2.9241,2.9298,5.0035,0.0,0.0,0.0,0.0,4.3537,4.4261,4.5329,4.5329,4.5329,4.5329,4.5329,0.0,0.0,0.0,0.0,0.0,0.0,4.6092,4.7561,4.8687,4.9941,5.1191,5.1363,5.1484,5.1444,5.082,4.9827,4.8663,4.6931,4.4174,4.0593,0.0,0.0,0.0,0.0,4.6823,4.8843,5.0519,5.2701,5.5574,5.5591,5.5628,5.5628,5.3657,5.1947,5.0558,4.7963,4.5289,4.2527,3.9717,0.0,0.0,0.0,0.0,0.0,0.0,0.0,0.0,0.0,0.0,0.0,0.0,0.0,0.0,0.0,0.0,0.0,0.0,0.0,2.9329,3.0072,3.0542,0.0,0.0,0.0,0.0,0.0,0.0,0.0,0.0,0.0,3.9304,3.9054,3.896,0.0,0.0,4.1911,4.1853,4.1575,4.0938,3.9844,3.8093,0.0,3.5235,3.4695,3.4246,3.3612,3.2873,3.2169,3.1636,3.1558,3.1464,3.1056,3.1086,3.0794,2.9644,2.8259,2.7509,2.7623,2.7651,2.7708,2.7879,2.7936,2.7993,0.0,0.0,0.0,0.0,0.0,0.0,0.0,0.0,3.9946,3.9986,0.0,4.0006,0.0,0.0,0.0,0.0,3.9976,4.1666,0.0,0.0,4.569,4.6636,4.6675,4.7397,4.7779,4.7779,4.7699,4.6611,4.4533,4.0883,0.0,0.0,0.0,0.0,0.0,0.0,4.1938,4.3573,4.7188,5.0165,5.2443,5.4436,5.5491,5.5508,5.3073,5.0478,4.7819,4.5188,4.2447,3.9551,3.5511,0.0,0.0,0.0,0.0,0.0,0.0,0.0,0.0,0.0,0.0,0.0,0.0,0.0,0.0,0.0,0.0,0.0,0.0,0.0,0.0,2.6527,0.0,0.0,0.0,0.0,0.0,0.0,0.0,0.0,0.0,0.0,3.5927,3.6504,3.7279,3.838,0.0,0.0,0.0,0.0,3.9335,3.9277,3.756,3.617,3.6075,3.5738,3.4987,3.3621,0.0,0.0,2.9734,2.9433,2.9357,2.8965,2.8875,2.836,2.6725,2.5899,2.5628,2.6169,2.6268,2.6496,2.7022,2.7051,2.7221,0.0,0.0,0.0,0.0,0.0,0.0,0.0,0.0,0.0,3.7984,0.0,3.805,0.0,0.0,0.0,0.0,0.0,0.0,0.0,0.0,4.1441,4.2537,4.1834,4.3252,4.3535,0.0,4.2098,4.0305,0.0,0.0,0.0,0.0,0.0,0.0,0.0,0.0,4.0267,4.3098,4.5564,4.8434,5.1608,5.1991,5.2474,5.3312,5.1362,4.8667,4.5247,4.1766,3.9524,0.0,0.0,0.0,0.0,0.0,0.0,0.0,0.0,0.0,0.0,0.0,0.0,0.0,0.0,0.0,0.0,0.0,0.0,0.0,0.0,0.0,0.0,0.0,2.6266,0.0,0.0,0.0,0.0,0.0,0.0,0.0,0.0,0.0,3.3504,3.4608,3.5851,3.6831,3.7912,3.8791,3.9394,0.0,0.0,0.0,0.0,0.0,0.0,0.0,3.2724,3.2043,3.047,2.9039,2.8226,2.8079,2.795,2.7532,0.0,0.0,2.5227,2.4832,2.4666,2.496,2.4475,2.431,2.4929,2.4611,2.4297,0.0,0.0,0.0,0.0,0.0,0.0,0.0,0.0,0.0,3.402,3.404,0.0,0.0,0.0,0.0,0.0,0.0,0.0,0.0,0.0,0.0,0.0,3.8336,3.9999,0.0,0.0,0.0,0.0,0.0,0.0,0.0,0.0,0.0,0.0,0.0,0.0,3.7158,4.051,4.3344,4.6514,4.9915,4.985,5.0286,5.1517,4.9584,4.7049,4.4049,0.0,0.0,0.0,0.0,0.0,0.0,0.0,0.0,0.0,0.0,0.0,0.0,0.0,0.0,0.0,0.0,0.0,0.0,0.0,0.0,0.0,0.0,0.0,0.0,0.0,2.3435,0.0,0.0,0.0,0.0,0.0,0.0,0.0,0.0,0.0,0.0,0.0,3.3176,3.4812,3.5966,3.6977,3.8091,3.8648,3.8452,0.0,0.0,0.0,0.0,0.0,0.0,0.0,0.0,0.0,0.0,0.0,0.0,0.0,0.0,2.4302,2.3829,2.3474,2.334,2.3552,0.0,0.0,0.0,0.0,0.0,0.0,0.0,0.0,0.0,0.0,0.0,0.0,0.0,0.0,0.0,2.7796,0.0,0.0,2.6598,0.0,0.0,0.0,0.0,0.0,0.0,0.0,0.0,0.0,0.0,0.0,0.0,0.0,0.0,0.0,0.0,0.0,0.0,0.0,0.0,0.0,0.0,3.2518,3.5463,4.0626,4.4338,4.692,4.8229,4.9315,4.9908,4.7672,4.5667,4.4197,0.0,0.0,0.0,0.0,0.0,0.0,0.0,0.0,0.0,0.0,0.0,0.0,0.0,0.0,0.0,0.0,0.0,0.0,0.0,0.0,0.0,0.0,0.0,0.0,0.0,0.0,1.9703,2.1757,2.3318,0.0,0.0,0.0,0.0,0.0,0.0,0.0,0.0,0.0,3.2504,3.4197,3.5645,3.7057,3.6343,3.5778,3.5634,3.2843,3.0644,3.0703,3.0376,2.9505,0.0,0.0,0.0,0.0,0.0,0.0,0.0,0.0,0.0,0.0,0.0,0.0,0.0,0.0,0.0,0.0,0.0,0.0,0.0,0.0,0.0,0.0,0.0,0.0,0.0,0.0,0.0,0.0,0.0,0.0,0.0,0.0,0.0,0.0,0.0,0.0,0.0,0.0,0.0,0.0,0.0,0.0,0.0,0.0,0.0,0.0,0.0,0.0,0.0,0.0,0.0,0.0,0.0,0.0,3.2585,3.5892,3.981,4.2501,4.3899,4.5992,4.7083,4.6958,4.5121,4.325,0.0,0.0,0.0,0.0,0.0,0.0,0.0,0.0,0.0,0.0,0.0,0.0,0.0,0.0,0.0,0.0,0.0,0.0,0.0,0.0,0.0,0.0,0.0,0.0,0.0,0.0,0.0,0.0,2.1297,2.2113,2.2029,0.0,0.0,0.0,0.0,0.0,0.0,0.0,0.0,0.0,0.0,3.4569,3.5575,3.6135,3.6372,3.6026,3.552,3.5083,3.4854,3.3426,3.1647,2.975,0.0,0.0,0.0,0.0,0.0,0.0,0.0,0.0,0.0,0.0,0.0,0.0,0.0,0.0,0.0,0.0,0.0,0.0,0.0,0.0,0.0,0.0,0.0,0.0,0.0,0.0,0.0,0.0,0.0,0.0,0.0,0.0,0.0,0.0,0.0,0.0,0.0,0.0,0.0,0.0,0.0,0.0,0.0,0.0,0.0,0.0,0.0,0.0,0.0,0.0,0.0,0.0,0.0,3.1698,3.4923,3.8452,4.1096,4.2997,4.4497,4.5369,4.5452,4.3478,4.1563,0.0,0.0,0.0,0.0,0.0,0.0,0.0,0.0,0.0,0.0,0.0,0.0,0.0,0.0,0.0,0.0,0.0,0.0,0.0,0.0,0.0,0.0,0.0,0.0,0.0,0.0,0.0,0.0,1.9781,2.0225,2.005,0.0,0.0,0.0,0.0,0.0,0.0,0.0,0.0,0.0,0.0,3.2614,3.3633,3.4661,0.0,0.0,3.5116,3.4715,3.4736,3.3054,3.099,2.8979,2.7545,0.0,0.0,0.0,0.0,0.0,0.0,0.0,0.0,0.0,0.0,0.0,0.0,0.0,0.0,0.0,0.0,0.0,0.0,0.0,0.0,0.0,0.0,0.0,0.0,0.0,0.0,0.0,0.0,0.0,0.0,0.0,0.0,0.0,0.0,0.0,0.0,0.0,0.0,0.0,0.0,0.0,0.0,0.0,0.0,0.0,0.0,0.0,0.0,0.0,0.0,0.0,0.0,0.0,3.2822,3.6467,3.9919,4.3085,4.3394,4.3957,4.4789,4.2389,4.0339,0.0,0.0,0.0,0.0,0.0,0.0,0.0,0.0,0.0,0.0,0.0,0.0,0.0,0.0,0.0,0.0,0.0,0.0,0.0,0.0,0.0,0.0,0.0,0.0,0.0,0.0,0.0,0.0,0.0,0.0,0.0,0.0,0.0,0.0,0.0,0.0,0.0,0.0,0.0,0.0,0.0,3.0277,3.1796,3.2424,3.3212,0.0,3.2356,3.0629,3.1318,3.0263,2.8603,2.6473,0.0,0.0,0.0,0.0,0.0,0.0,0.0,0.0,0.0,0.0,0.0,0.0,0.0,0.0,0.0,0.0,0.0,0.0,0.0,0.0,0.0,0.0,0.0,0.0,0.0,0.0,0.0,0.0,0.0,0.0,0.0,0.0,0.0,0.0,0.0,0.0,0.0,0.0,0.0,0.0,0.0,0.0,0.0,0.0,0.0,0.0,0.0,0.0,0.0,0.0,0.0,0.0,0.0,0.0,3.0285,3.3516,3.6237,3.8272,4.0063,4.1366,4.2119,4.0281,0.0,0.0,0.0,0.0,0.0,0.0,0.0,0.0,0.0,0.0,0.0,0.0,0.0,0.0,0.0,0.0,0.0,0.0,0.0,0.0,0.0,0.0,0.0,0.0,0.0,0.0,0.0,1.5538,0.0,0.0,0.0,0.0,0.0,0.0,0.0,0.0,0.0,0.0,0.0,0.0,0.0,0.0,3.0363,3.3008,3.2466,3.2166,0.0,0.0,3.0007,3.0152,2.9448,2.8023,0.0,0.0,0.0,0.0,0.0,0.0,0.0,0.0,0.0,0.0,0.0,0.0,0.0,0.0,0.0,0.0,0.0,0.0,0.0,0.0,0.0,0.0,0.0,0.0,0.0,0.0,0.0,0.0,0.0,0.0,0.0,0.0,0.0,0.0,0.0,0.0,0.0,0.0,0.0,0.0,0.0,0.0,0.0,0.0,0.0,0.0,0.0,0.0,0.0,0.0,0.0,0.0,0.0,0.0,2.7895,3.0446,3.3203,3.5886,3.8509,3.9844,4.0775,4.1191,3.9542,3.7174,0.0,0.0,0.0,0.0,0.0,0.0,0.0,0.0,0.0,0.0,0.0,0.0,0.0,0.0,0.0,0.0,0.0,0.0,0.0,0.0,0.0,0.0,0.0,0.0,0.0,0.0,0.0,0.0,0.0,0.0,0.0,0.0,0.0,0.0,0.0,0.0,0.0,0.0,0.0,0.0,0.0,0.0,3.0402,3.0314,0.0,0.0,0.0,2.9148,2.909,0.0,0.0,0.0,0.0,0.0,0.0,0.0,0.0,0.0,0.0,0.0,0.0,0.0,0.0,0.0,0.0,0.0,0.0,0.0,0.0,0.0,0.0,0.0,0.0,0.0,0.0,0.0,0.0,0.0,0.0,0.0,0.0,0.0,0.0,0.0,0.0,0.0,0.0,0.0,0.0,0.0,0.0,0.0,0.0,0.0,0.0,0.0,0.0,0.0,0.0,0.0,0.0,0.0,0.0,0.0,0.0,0.0,3.1054,3.3295,3.6221,3.9884,4.0266,4.0344,4.0325,3.9185,3.7217,0.0,0.0,0.0,0.0,0.0,0.0,0.0,0.0,0.0,0.0,0.0,0.0,0.0,0.0,0.0,0.0,0.0,0.0,0.0,0.0,0.0,0.0,0.0,0.0,0.0,0.0,0.0,0.0,0.0,0.0,0.0,0.0,0.0,0.0,0.0,0.0,0.0,0.0,0.0,0.0,0.0,2.7453,2.6405,2.73,2.8163,0.0,0.0,2.7727,2.7698,2.7603,0.0,0.0,0.0,0.0,0.0,0.0,0.0,0.0,0.0,0.0,0.0,0.0,0.0,0.0,0.0,0.0,0.0,0.0,0.0,0.0,0.0,0.0,0.0,0.0,0.0,0.0,0.0,0.0,0.0,0.0,0.0,0.0,0.0,0.0,0.0,0.0,0.0,0.0,0.0,0.0,0.0,0.0,0.0,0.0,0.0,0.0,0.0,0.0,0.0,0.0,0.0,0.0,0.0,0.0,0.0,0.0,2.6279,2.799,3.0464,3.3577,3.4871,3.5482,3.5465,3.6924,3.5257,0.0,0.0,0.0,0.0,0.0,0.0,0.0,0.0,0.0,0.0,0.0,0.0,0.0,0.0,0.0,0.0,0.0,0.0,0.0,0.0,0.0,0.0,0.0,0.0,0.0,0.0,0.0,0.0,0.0,0.0,0.0,0.0,0.0,0.0,0.0,0.0,0.0,0.0,0.0,0.0,0.0,2.604,2.6487,2.6436,0.0,0.0,0.0,0.0,2.4757,2.3384,0.0,0.0,0.0,0.0,0.0,0.0,0.0,0.0,0.0,0.0,0.0,0.0,0.0,0.0,0.0,0.0,0.0,0.0,0.0,0.0,0.0,0.0,0.0,0.0,0.0,0.0,0.0,0.0,0.0,0.0,0.0,0.0,0.0,0.0,0.0,0.0,0.0,0.0,0.0,0.0,0.0,0.0,0.0,0.0,0.0,0.0,0.0,0.0,0.0,0.0,0.0,0.0,0.0,0.0,0.0,0.0,2.5847,2.7367,2.9521,3.2206,3.3093,3.3869,3.4758,3.5541,3.3945,0.0,0.0,0.0,0.0,0.0,0.0,0.0,0.0,0.0,0.0,0.0,0.0,0.0,0.0,0.0,0.0,0.0,0.0,0.0,0.0,0.0,0.0,0.0,0.0,0.0,0.0,0.0,0.0,0.0,0.0,0.0,0.0,0.0,0.0,0.0,0.0,0.0,0.0,0.0,0.0,2.3038,2.3853,2.3832,0.0,0.0,0.0,0.0,0.0,0.0,2.1516,2.0528,0.0,0.0,0.0,0.0,0.0,0.0,0.0,0.0,0.0,0.0,0.0,0.0,0.0,0.0,0.0,0.0,0.0,0.0,0.0,0.0,0.0,0.0,0.0,0.0,0.0,0.0,0.0,0.0,0.0,0.0,0.0,0.0,0.0,0.0,0.0,0.0,0.0,0.0,0.0,0.0,0.0,0.0,0.0,0.0,0.0,0.0,0.0,0.0,0.0,0.0,0.0,0.0,0.0,0.0,0.0,2.6168,2.7635,2.9511,3.1772,3.2012,3.2934,3.4495,3.4398,3.2923,3.01,0.0,0.0,0.0,0.0,0.0,0.0,0.0,0.0,0.0,0.0,0.0,0.0,0.0,0.0,0.0,0.0,0.0,0.0,0.0,0.0,0.0,0.0,0.0,0.0,0.0,0.0,0.0,0.0,0.0,0.0,0.0,0.0,0.0,0.0,0.0,0.0,0.0,0.0,0.0,2.1021,2.1534,0.0,0.0,0.0,0.0,0.0,0.0,0.0,0.0,1.9622,0.0,0.0,0.0,0.0,0.0,0.0,0.0,0.0,0.0,0.0,0.0,0.0,0.0,0.0,0.0,0.0,0.0,0.0,0.0,0.0,0.0,0.0,0.0,0.0,0.0,0.0,0.0,0.0,0.0,0.0,0.0,0.0,0.0,0.0,0.0,0.0,0.0,0.0,0.0,0.0,0.0,0.0,0.0,0.0,0.0,0.0,0.0,0.0,0.0,0.0,0.0,0.0,0.0,0.0,0.0,0.0,2.4438,2.5911,2.7709,2.869,2.9651,3.0485,3.2454,3.1476,2.6985,0.0,0.0,0.0,0.0,0.0,0.0,0.0,0.0,0.0,0.0,0.0,0.0,0.0,0.0,0.0,0.0,0.0,0.0,0.0,0.0,0.0,0.0,0.0,0.0,0.0,0.0,0.0,0.0,0.0,0.0,0.0,0.0,0.0,0.0,0.0,0.0,0.0,0.0,1.6249,1.857,0.0,0.0,0.0,0.0,0.0,0.0,0.0,0.0,1.8142,0.0,0.0,0.0,0.0,0.0,0.0,0.0,0.0,0.0,0.0,0.0,0.0,0.0,0.0,0.0,0.0,0.0,0.0,0.0,0.0,0.0,0.0,0.0,0.0,0.0,0.0,0.0,0.0,0.0,0.0,0.0,0.0,0.0,0.0,0.0,0.0,0.0,0.0,0.0,0.0,0.0,0.0,0.0,0.0,0.0,0.0,0.0,0.0,0.0,0.0,0.0,0.0,0.0,0.0,0.0,0.0,0.0,0.0,2.4866,2.5803,2.6318,2.725,2.8454,2.9089,2.8261,0.0,0.0,0.0,0.0,0.0,0.0,0.0,0.0,0.0,0.0,0.0,0.0,0.0,0.0,0.0,0.0,0.0,0.0,0.0,0.0,0.0,0.0,0.0,0.0,0.0,0.0,0.0,0.0,0.0,0.0,0.0,0.0,0.0,0.0,0.0,0.0,0.0,0.0,0.0,0.0,0.0,0.0,0.0,0.0,0.0,0.0,0.0,0.0,0.0,0.0,0.0,0.0,0.0,0.0,0.0,0.0,0.0,0.0,0.0,0.0,0.0,0.0,0.0,0.0,0.0,0.0,0.0,0.0,0.0,0.0,0.0,0.0,0.0,0.0,0.0,0.0,0.0,0.0,0.0,0.0,0.0,0.0,0.0,0.0,0.0,0.0,0.0,0.0,0.0,0.0,0.0,0.0,0.0,0.0,0.0,0.0,0.0,0.0,0.0,0.0,0.0,0.0,0.0,0.0,0.0,0.0,0.0,0.0,2.4303,2.4824,2.4732,2.559,2.7532,2.6178,2.5157,0.0,0.0,0.0,0.0,0.0,0.0,0.0,0.0,0.0,0.0,0.0,0.0,0.0,0.0,0.0,0.0,0.0,0.0,0.0,0.0,0.0,0.0,0.0,0.0,0.0,0.0,0.0,0.0,0.0,0.0,0.0,0.0,0.0,0.0,0.0,0.0,0.0,0.0,0.0,0.0,0.0,0.0,0.0,0.0,0.0,0.0,0.0,0.0,1.3786,0.0,0.0,0.0,0.0,0.0,0.0,0.0,0.0,0.0,0.0,0.0,0.0,0.0,0.0,0.0,0.0,0.0,0.0,0.0,0.0,0.0,0.0,0.0,0.0,0.0,0.0,0.0,0.0,0.0,0.0,0.0,0.0,0.0,0.0,0.0,0.0,0.0,0.0,0.0,0.0,0.0,0.0,0.0,0.0,0.0,0.0,0.0,0.0,0.0,0.0,0.0,0.0,0.0,0.0,0.0,0.0,0.0,0.0,0.0,2.3222,2.4872,2.4269,2.5172,2.7401,2.5198,2.3364,0.0,0.0,0.0,0.0,0.0,0.0,0.0,0.0,0.0,0.0,0.0,0.0,0.0,0.0,0.0,0.0,0.0,0.0,0.0,0.0,0.0,0.0,0.0,0.0,0.0,0.0,0.0,0.0,0.0,0.0,0.0,0.0,0.0,0.0,0.0,0.0,0.0,0.0,0.0,0.0,0.0,0.0,0.0,0.0,0.0,0.0,0.0,0.0,0.0,0.0,0.0,0.0,0.0,0.0,0.0,0.0,0.0,0.0,0.0,0.0,0.0,0.0,0.0,0.0,0.0,0.0,0.0,0.0,0.0,0.0,0.0,0.0,0.0,0.0,0.0,0.0,0.0,0.0,0.0,0.0,0.0,0.0,0.0,0.0,0.0,0.0,0.0,0.0,0.0,0.0,0.0,0.0,0.0,0.0,0.0,0.0,0.0,0.0,0.0,0.0,0.0,0.0,0.0,0.0,0.0,0.0,0.0,0.0,2.313,2.3834,2.3951,2.4295,2.4983,2.3602,2.2076,0.0,0.0,0.0,0.0,0.0,0.0,0.0,0.0,0.0,0.0,0.0,0.0,0.0,0.0,0.0,0.0,0.0,0.0,0.0,0.0,0.0,0.0,0.0,0.0,0.0,0.0,0.0,0.0,0.0,0.0,0.0,0.0,0.0,0.0,0.0,0.0,0.0,0.0,0.0,0.0,0.0,0.0,0.0,0.0,0.0,0.0,0.0,0.0,0.0,0.0,0.0,0.0,0.0,0.0,0.0,0.0,0.0,0.0,0.0,0.0,0.0,0.0,0.0,0.0,0.0,0.0,0.0,0.0,0.0,0.0,0.0,0.0,0.0,0.0,0.0,0.0,0.0,0.0,0.0,0.0,0.0,0.0,0.0,0.0,0.0,0.0,0.0,0.0,0.0,0.0,0.0,0.0,0.0,0.0,0.0,0.0,0.0,0.0,0.0,0.0,0.0,0.0,0.0,0.0,0.0,0.0,0.0,0.0,0.0,2.313,2.3321,2.3269,2.2922,2.2152,2.1037,0.0,0.0,0.0,0.0,0.0,0.0,0.0,0.0,0.0,0.0,0.0,0.0,0.0,0.0,0.0,0.0,0.0,0.0,0.0,0.0,0.0,0.0,0.0,0.0,0.0,0.0,0.0,0.0,0.0,0.0,0.0,0.0,0.0,0.0,0.0,0.0,0.0,0.0,0.0,0.0,0.0,0.0,0.0,0.0,0.0,0.0,0.0,0.0,0.0,0.0,0.0,0.0,0.0,0.0,0.0,0.0,0.0,0.0,0.0,0.0,0.0,0.0,0.0,0.0,0.0,0.0,0.0,0.0,0.0,0.0,0.0,0.0,0.0,0.0,0.0,0.0,0.0,0.0,0.0,0.0,0.0,0.0,0.0,0.0,0.0,0.0,0.0,0.0,0.0,0.0,0.0,0.0,0.0,0.0,0.0,0.0,0.0,0.0,0.0,0.0,0.0,0.0,0.0,0.0,0.0,0.0,0.0,0.0,0.0,2.313,2.2568,2.2228,2.2243,2.1218,2.0382,0.0,0.0,0.0,0.0,0.0,0.0,0.0,0.0,0.0,0.0,0.0,0.0,0.0,0.0,0.0,0.0,0.0,0.0,0.0,0.0,0.0,0.0,0.0,0.0,0.0,0.0,0.0,0.0,0.0,0.0,0.0,0.0,0.0,0.0,0.0,0.0,0.0,0.0,0.0,0.0,0.0,0.0,0.0,0.0,0.0,0.0,0.0,0.0,0.0,0.0,0.0,0.0,0.0,0.0,0.0,0.0,0.0,0.0,0.0,0.0,0.0,0.0,0.0,0.0,0.0,0.0,0.0,0.0,0.0,0.0,0.0,0.0,0.0,0.0,0.0,0.0,0.0,0.0,0.0,0.0,0.0,0.0,0.0,0.0,0.0,0.0,0.0,0.0,0.0,0.0,0.0,0.0,0.0,0.0,0.0,0.0,0.0,0.0,0.0,0.0,0.0,0.0,0.0,0.0,0.0,0.0,0.0,0.0,0.0,2.1516,2.1607,2.1685,2.1672,2.1269,2.0296,1.8591,0.0,0.0,0.0,0.0,0.0,0.0,0.0,0.0,0.0,0.0,0.0,0.0,0.0,0.0,0.0,0.0,0.0,0.0,0.0,0.0,0.0,0.0,0.0,0.0,0.0,0.0,0.0,0.0,0.0,0.0,0.0,0.0,0.0,0.0,0.0,0.0,0.0,0.0,0.0,0.0,0.0,0.0,0.0,0.0,0.0,0.0,0.0,0.0,0.0,0.0,0.0,0.0,0.0,0.0,0.0,0.0,0.0,0.0,0.0,0.0,0.0,0.0,0.0,0.0,0.0,0.0,0.0,0.0,0.0,0.0,0.0,0.0,0.0,0.0,0.0,0.0,0.0,0.0,0.0,0.0,0.0,0.0,0.0,0.0,0.0,0.0,0.0,0.0,0.0,0.0,0.0,0.0,0.0,0.0,0.0,0.0,0.0,0.0,0.0,0.0,0.0,0.0,0.0,0.0,0.0,0.0,0.0,0.0,2.0044,2.0435,2.0659,2.0815,2.049,1.9432,0.0,0.0,0.0,0.0,0.0,0.0,0.0,0.0,0.0,0.0,0.0,0.0,0.0,0.0,0.0,0.0,0.0,0.0,0.0,0.0,0.0,0.0,0.0,0.0,0.0,0.0,0.0,0.0,0.0,0.0,0.0,0.0,0.0,0.0,0.0,0.0,0.0,0.0,0.0,0.0,0.0,0.0,0.0,0.0,0.0,0.0,0.0,0.0,0.0,0.0,0.0,0.0,0.0,0.0,0.0,0.0,0.0,0.0,0.0,0.0,0.0,0.0,0.0,0.0,0.0,0.0,0.0,0.0,0.0,0.0,0.0,0.0,0.0,0.0,0.0,0.0,0.0,0.0,0.0,0.0,0.0,0.0,0.0,0.0,0.0,0.0,0.0,0.0,0.0,0.0,0.0,0.0,0.0,0.0,0.0,0.0,0.0,0.0,0.0,0.0,0.0,0.0,0.0,0.0,0.0,0.0,0.0,0.0,1.7205,1.8737,1.888,1.9218,1.9574,1.8642,1.7736,0.0,0.0,0.0,0.0,0.0,0.0,0.0,0.0,0.0,0.0,0.0,0.0,0.0,0.0,0.0,0.0,0.0,0.0,0.0,0.0,0.0,0.0,0.0,0.0,0.0,0.0,0.0,0.0,0.0,0.0,0.0,0.0,0.0,0.0,0.0,0.0,0.0,0.0,0.0,0.0,0.0,0.0,0.0,0.0,0.0,0.0,0.0,0.0,0.0,0.0,0.0,0.0,0.0,0.0,0.0,0.0,0.0,0.0,0.0,0.0,0.0,0.0,0.0,0.0,0.0,0.0,0.0,0.0,0.0,0.0,0.0,0.0,0.0,0.0,0.0,0.0,0.0,0.0,0.0,0.0,0.0,0.0,0.0,0.0,0.0,0.0,0.0,0.0,0.0,0.0,0.0,0.0,0.0,0.0,0.0,0.0,0.0,0.0,0.0,0.0,0.0,0.0,0.0,0.0,0.0,0.0,0.0,0.0,0.0,1.6614,0.0,1.8845,0.0,1.8827,1.8269,0.0,0.0,0.0,0.0,0.0,0.0,0.0,0.0,0.0,0.0,0.0,0.0,0.0,0.0,0.0,0.0,0.0,0.0,0.0,0.0,0.0,0.0,0.0,0.0,0.0,0.0,0.0,0.0,0.0,0.0,0.0,0.0,0.0,0.0,0.0,0.0,0.0,0.0,0.0,0.0,0.0,0.0,0.0,0.0,0.0,0.0,0.0,0.0,0.0,0.0,0.0,0.0,0.0,0.0,0.0,0.0,0.0,0.0,0.0,0.0,0.0,0.0,0.0,0.0,0.0,0.0,0.0,0.0,0.0,0.0,0.0,0.0,0.0,0.0,0.0,0.0,0.0,0.0,0.0,0.0,0.0,0.0,0.0,0.0,0.0,0.0,0.0,0.0,0.0,0.0,0.0,0.0,0.0,0.0,0.0,0.0,0.0,0.0,0.0,0.0,0.0,0.0,0.0,0.0,0.0,0.0,0.0,0.0,0.0,1.5793,1.6978,1.7831,1.8239,1.8188,1.773,0.0,0.0,0.0,0.0,0.0,0.0,0.0,0.0,0.0,0.0,0.0,0.0,0.0,0.0,0.0,0.0,0.0,0.0,0.0,0.0,0.0,0.0,0.0,0.0,0.0,0.0,0.0,0.0,0.0,0.0,0.0,0.0,0.0,0.0,0.0,0.0,0.0,0.0,0.0,0.0,0.0,0.0,0.0,0.0,0.0,0.0,0.0,0.0,0.0,0.0,0.0,0.0,0.0,0.0,0.0,0.0,0.0,0.0,0.0,0.0,0.0,0.0,0.0,0.0,0.0,0.0,0.0,0.0,0.0,0.0,0.0,0.0,0.0,0.0,0.0,0.0,0.0,0.0,0.0,0.0,0.0,0.0,0.0,0.0,0.0,0.0,0.0,0.0,0.0,0.0,0.0,0.0,0.0,0.0,0.0,0.0,0.0,0.0,0.0,0.0,0.0,0.0,0.0,0.0,0.0,0.0,0.0,0.0,0.0,0.0,1.5605,1.6047,1.7629,1.6791,1.6306,0.0,0.0,0.0,0.0,0.0,0.0,0.0,0.0,0.0,0.0,0.0,0.0,0.0,0.0,0.0,0.0,0.0,0.0,0.0,0.0,0.0,0.0,0.0,0.0,0.0,0.0,0.0,0.0,0.0,0.0,0.0,0.0,0.0,0.0,0.0,0.0,0.0,0.0,0.0,0.0,0.0,0.0,0.0,0.0,0.0,0.0,0.0,0.0,0.0,0.0,0.0,0.0,0.0,0.0,0.0,0.0,0.0,0.0,0.0,0.0,0.0,0.0,0.0,0.0,0.0,0.0,0.0,0.0,0.0,0.0,0.0,0.0,0.0,0.0,0.0,0.0,0.0,0.0,0.0,0.0,0.0,0.0,0.0,0.0,0.0,0.0,0.0,0.0,0.0,0.0,0.0,0.0,0.0,0.0,0.0,0.0,0.0,0.0,0.0,0.0,0.0,0.0,0.0,0.0,0.0,0.0,0.0,0.0,0.0,0.0,1.3928,0.0,1.5558,1.5611,1.5414,1.5069,0.0,0.0,0.0,0.0,0.0,0.0,0.0,0.0,0.0,0.0,0.0,0.0,0.0,0.0,0.0,0.0,0.0,0.0,0.0,0.0,0.0,0.0,0.0,0.0,0.0,0.0,0.0,0.0,0.0,0.0,0.0,0.0,0.0,0.0,0.0,0.0,0.0,0.0,0.0,0.0,0.0,0.0,0.0,0.0,0.0,0.0,0.0,0.0,0.0,0.0,0.0,0.0,0.0,0.0,0.0,0.0,0.0,0.0,0.0,0.0,0.0,0.0,0.0,0.0,0.0,0.0,0.0,0.0,0.0,0.0,0.0,0.0,0.0,0.0,0.0,0.0,0.0,0.0,0.0,0.0,0.0,0.0,0.0,0.0,0.0,0.0,0.0,0.0,0.0,0.0,0.0,0.0,0.0,0.0,0.0,0.0,0.0,0.0,0.0,0.0,0.0,0.0,0.0,0.0,0.0,0.0,0.0,0.0,0.0,0.0,0.0,1.4733,1.5402,1.5474,0.0,0.0,0.0,0.0,0.0,0.0,0.0,0.0,0.0,0.0,0.0,0.0,0.0,0.0,0.0,0.0,0.0,0.0,0.0,0.0,0.0,0.0,0.0,0.0,0.0,0.0,0.0,0.0,0.0,0.0,0.0,0.0,0.0,0.0,0.0,0.0,0.0,0.0,0.0,0.0,0.0,0.0,0.0,0.0,0.0,0.0,0.0,0.0,0.0,0.0,0.0,0.0,0.0,0.0,0.0,0.0,0.0,0.0,0.0,0.0,0.0,0.0,0.0,0.0,0.0,0.0,0.0,0.0,0.0,0.0,0.0,0.0,0.0,0.0,0.0,0.0,0.0,0.0,0.0,0.0,0.0,0.0,0.0,0.0,0.0,0.0,0.0,0.0,0.0,0.0,0.0,0.0,0.0,0.0,0.0,0.0,0.0,0.0,0.0,0.0,0.0,0.0,0.0,0.0,0.0,0.0,0.0,0.0,0.0,0.0,0.0,1.3071,1.4431,1.5599,0.0,1.5301,0.0,0.0,0.0,0.0,0.0,0.0,0.0,0.0,0.0,0.0,0.0,0.0,0.0,0.0,0.0,0.0,0.0,0.0,0.0,0.0,0.0,0.0,0.0,0.0,0.0,0.0,0.0,0.0,0.0,0.0,0.0,0.0,0.0,0.0,0.0,0.0,0.0,0.0,0.0,0.0,0.0,0.0,0.0,0.0,0.0,0.0,0.0,0.0,0.0,0.0,0.0,0.0,0.0,0.0,0.0,0.0,0.0,0.0,0.0,0.0,0.0,0.0,0.0,0.0,0.0,0.0,0.0,0.0,0.0,0.0,0.0,0.0,0.0,0.0,0.0,0.0,0.0,0.0,0.0,0.0,0.0,0.0,0.0,0.0,0.0,0.0,0.0,0.0,0.0,0.0,0.0,0.0,0.0,0.0,0.0,0.0,0.0,0.0,0.0,0.0,0.0,0.0,0.0,0.0,0.0,0.0,0.0,0.0,0.0,0.0,0.0,0.0,1.4466,1.5034,1.341,0.0,0.0,0.0,0.0,0.0,0.0,0.0,0.0,0.0,0.0,0.0,0.0,0.0,0.0,0.0,0.0,0.0,0.0,0.0,0.0,0.0,0.0,0.0,0.0,0.0,0.0,0.0,0.0,0.0,0.0,0.0,0.0,0.0,0.0,0.0,0.0,0.0,0.0,0.0,0.0,0.0,0.0,0.0,0.0,0.0,0.0,0.0,0.0,0.0,0.0,0.0,0.0,0.0,0.0,0.0,0.0,0.0,0.0,0.0,0.0,0.0,0.0,0.0,0.0,0.0,0.0,0.0,0.0,0.0,0.0,0.0,0.0,0.0,0.0,0.0,0.0,0.0,0.0,0.0,0.0,0.0,0.0,0.0,0.0,0.0,0.0,0.0,0.0,0.0,0.0,0.0,0.0,0.0,0.0,0.0,0.0,0.0,0.0,0.0,0.0,0.0,0.0,0.0,0.0,0.0,0.0,0.0,0.0,0.0,0.0,1.2078,1.1516,1.4137,1.4742,1.3014,0.0,0.0,0.0,0.0,0.0,0.0,0.0,0.0,0.0,0.0,0.0,0.0,0.0,0.0,0.0,0.0,0.0,0.0,0.0,0.0,0.0,0.0,0.0,0.0,0.0,0.0,0.0,0.0,0.0,0.0,0.0,0.0,0.0,0.0,0.0,0.0,0.0,0.0,0.0,0.0,0.0,0.0,0.0,0.0,0.0,0.0,0.0,0.0,0.0,0.0,0.0,0.0,0.0,0.0,0.0,0.0,0.0,0.0,0.0,0.0,0.0,0.0,0.0,0.0,0.0,0.0,0.0,0.0,0.0,0.0,0.0,0.0,0.0,0.0,0.0,0.0,0.0,0.0,0.0,0.0,0.0,0.0,0.0,0.0,0.0,0.0,0.0,0.0,0.0,0.0,0.0,0.0,0.0,0.0,0.0,0.0,0.0,0.0,0.0,0.0,0.0,0.0,0.0,0.0,0.0,0.0,0.0,0.0,0.0,0.0,0.0,0.0,0.0,0.0,1.3372,0.0,0.0,0.0,0.0,0.0,0.0,0.0,0.0,0.0,0.0,0.0,0.0,0.0,0.0,0.0,0.0,0.0,0.0,0.0,0.0,0.0,0.0,0.0,0.0,0.0,0.0,0.0,0.0,0.0,0.0,0.0,0.0,0.0,0.0,0.0,0.0,0.0,0.0,0.0,0.0,0.0,0.0,0.0,0.0,0.0,0.0,0.0,0.0,0.0,0.0,0.0,0.0,0.0,0.0,0.0,0.0,0.0,0.0,0.0,0.0,0.0,0.0,0.0,0.0,0.0,0.0,0.0,0.0,0.0,0.0,0.0,0.0,0.0,0.0,0.0,0.0,0.0,0.0,0.0,0.0,0.0,0.0,0.0,0.0,0.0,0.0,0.0,0.0,0.0,0.0,0.0,0.0,0.0,0.0,0.0,0.0,0.0,0.0,0.0,0.0,0.0,0.0,0.0,0.0,0.0,0.0,0.0,0.0,0.0,0.0,0.0,0.0,0.0,0.0,0.0,0.0,0.0,0.0,0.0,0.0,0.0,0.0,0.0,0.0,0.0,0.0,0.0,0.0,0.0,0.0,0.0,0.0,0.0,0.0,0.0,0.0,0.0,0.0,0.0,0.0,0.0,0.0,0.0,0.0,0.0,0.0,0.0,0.0,0.0,0.0,0.0,0.0,0.0,0.0,0.0,0.0,0.0,0.0,0.0,0.0,0.0,0.0,0.0,0.0,0.0,0.0,0.0,0.0,0.0,0.0,0.0,0.0,0.0,0.0,0.0,0.0,0.0,0.0,0.0,0.0,0.0,0.0,0.0,0.0,0.0,0.0,0.0,0.0,0.0,0.0,0.0,0.0,0.0,0.0,0.0,0.0,0.0,0.0,0.0,0.0,0.0,0.0,0.0,0.0,0.0,0.0,0.0,0.0,0.0,0.0,0.0,0.0,0.0,0.0,0.0,0.0,0.0,0.0,0.0,0.0,0.0,0.0,0.0,0.0,0.0,0.0,0.0,0.0,0.0,0.0,0.0,0.0,0.0,0.0,0.0,0.0,0.0,0.0,0.0,0.0,0.0,0.0,0.0,0.0,0.0,0.0,0.0,0.0,0.0,0.0,0.0,0.0,0.0,0.0,0.0,0.0,0.0,0.0,0.0,0.0,0.0,0.0,0.0,0.0,0.0,0.0,0.0,0.0,0.0,0.0,0.0,0.0,0.0,0.0,0.0,0.0,0.0,0.0,0.0,0.0,0.0,0.0,0.0,0.0,0.0,0.0,0.0,0.0,0.0,0.0,0.0,0.0,0.0,0.0,0.0,0.0,0.0,0.0,0.0,0.0,0.0,0.0,0.0,0.0,0.0,0.0,0.0,0.0,0.0,0.0,0.0,0.0,0.0,0.0,0.0,0.0,0.0,0.0,0.0,0.0,0.0,0.0,0.0,0.0,0.0,0.0,0.0,0.0,0.0,0.0,0.0,0.0,0.0,0.0,0.0,0.0,0.0,0.0,0.0,0.0,0.0,0.0,0.0,0.0,0.0,0.0,0.0,0.0,0.0,0.0,0.0,0.0,0.0,0.0,0.0,0.0,0.0,0.0,0.0,0.0,0.0,0.0,0.0,0.0,0.0,0.0,0.0,0.0,0.0,0.0,0.0,0.0,0.0,0.0,0.0,0.0,0.0,0.0,0.0,0.0,0.0,0.0,0.0,0.0,0.0,0.0,0.0,0.0,0.0,0.0,0.0,0.0,0.0,0.0,0.0,0.0,0.0,0.0,0.0,0.0,0.0,0.0,0.0,0.0,0.0,0.0,0.0,0.0,0.0,0.0,0.0,0.0,0.0,0.0,0.0,0.0,0.0,0.0,0.0,0.0,0.0,0.0,0.0,0.0,0.0,0.0,0.0,0.0,0.0,0.0,0.0,0.0,0.0,0.0,0.0,0.0,0.0,0.0,0.0,0.0,0.0,0.0,0.0,0.0,0.0,0.0,0.0,0.0,0.0,0.0,0.0,0.0,0.0,0.0,0.0,0.0,0.0,0.0,0.0,0.0,0.0,0.0,0.0,0.0,0.0,0.0,0.0,0.0,0.0,0.0,0.0,0.0,0.0,0.0,0.0,0.0,0.0,0.0,0.0,0.0,0.0,0.0,0.0,0.0,0.0,0.0,0.0,0.0,0.0,0.0,0.0,0.0,0.0,0.0,0.0,0.0,0.0,0.0,0.0,0.0,0.0,0.0,0.0,0.0,0.0,0.0,0.0,0.0,0.0,0.0,0.0,0.0,0.0,0.0,0.0,0.0,0.0,0.0,0.0,0.0,0.0,0.0,0.0,0.0,0.0,0.0,0.0,0.0,0.0,0.0,0.0,0.0,0.0,0.0,0.0,0.0,0.0,0.0,0.0,0.0,0.0,0.0,0.0,0.0,0.0,0.0,0.0,0.0,0.0,0.0,0.0,0.0,0.0,0.0,0.0,0.0,0.0,0.0,0.0,0.0,0.0,0.0,0.0,0.0,0.0,0.0,0.0,0.0,0.0,0.0,0.0,0.0,0.0,0.0,0.0,0.0,0.0,0.0,0.0,0.0,0.0,0.0,0.0,0.0,0.0,0.0,0.0,0.0,0.0,0.0,0.0,0.0,0.0,0.0,0.0,0.0,0.0,0.0,0.0,0.0,0.0,0.0,0.0,0.0,0.0,0.0,0.0,0.0,0.0,0.0,0.0,0.0,0.0,0.0,0.0,0.0,0.0,0.0,0.0,0.0,0.0,0.0,0.0,0.0,0.0,0.0,0.0,0.0,0.0,0.0,0.0,0.0,0.0,0.0,0.0,0.0,0.0,0.0,0.0,0.0,0.0,0.0,0.0,0.0,0.0,0.0,0.0,0.0,0.0,0.0,0.0,0.0,0.0,0.0,0.0,0.0,0.0,0.0,0.0,0.0,0.0,0.0,0.0,0.0,0.0,0.0,0.0,0.0,0.0,0.0,0.0,0.0,0.0,0.0,0.0,0.0,0.0,0.0,0.0,0.0,0.0,0.0,0.0,0.0,0.0,0.0,0.0,0.0,0.0,0.0,0.0,0.0,0.0,0.0,0.0,0.0,0.0,0.0,0.0,0.0,0.0,0.0,0.0,0.0,0.0,0.0,0.0,0.0,0.0,0.0,0.0,0.0,0.0,0.0,0.0,0.0,0.0,0.0,0.0,0.0,0.0,0.0,0.0,0.0,0.0,0.0,0.0,0.0,0.0,0.0,0.0,0.0,0.0,0.0,0.0,0.0,0.0,0.0,0.0,0.0,0.0,0.0,0.0,0.0,0.0,0.0,0.0,0.0,0.0,0.0,0.0,0.0,0.0,0.0,0.0,0.0,0.0,0.0,0.0,0.0,0.0,0.0,0.0,0.0,0.0,0.0,0.0,0.0,0.0,0.0,0.0,0.0,0.0,0.0,0.0,0.0,0.0,0.0,0.0,0.0,0.0,0.0,0.0,0.0,0.0,0.0,0.0,0.0,0.0,0.0,0.0,0.0,0.0,0.0,0.0,0.0,0.0,0.0,0.0,0.0,0.0,0.0,0.0,0.0,0.0,0.0,0.0,0.0,0.0,0.0,0.0,0.0,0.0,0.0,0.0,0.0,0.0,0.0,0.0,0.0,0.0,0.0,0.0,0.0,0.0,0.0,0.0,0.0,0.0,0.0,0.0,0.0,0.0,0.0,0.0,0.0,0.0,0.0,0.0,0.0,0.0,0.0,0.0,0.0,0.0,0.0,0.0,0.0,0.0,0.0,0.0,0.0,0.0,0.0,0.0,0.0,0.0,0.0,0.0,0.0,0.0,0.0,0.0,0.0,0.0,0.0,0.0,0.0,0.0,0.0,0.0,0.0,0.0,0.0,0.0,0.0,0.0,0.0,0.0,0.0,0.0,0.0,0.0,0.0,0.0,0.0,0.0,0.0,0.0,0.0,0.0,0.0,0.0,0.0,0.0,0.0,0.0,0.0,0.0,0.0,0.0,0.0,0.0,0.0,0.0,0.0,0.0,0.0,0.0,0.0,0.0,0.0,0.0,0.0,0.0,0.0,0.0,0.0,0.0,0.0,0.0,0.0,0.0,0.0,0.0,0.0,0.0,0.0,0.0,0.0,0.0,0.0,0.0,0.0,0.0,0.0,0.0,0.0,0.0,0.0,0.0,0.0,0.0,0.0,0.0,0.0,0.0,0.0,0.0,0.0,0.0,0.0,0.0,0.0,0.0,0.0,0.0,0.0,0.0,0.0,0.0,0.0,0.0,0.0,0.0,0.0,0.0,0.0,0.0,0.0,0.0,0.0,0.0,0.0,0.0,0.0,0.0,0.0,0.0,0.0,0.0,0.0,0.0,0.0,0.0,0.0,0.0,0.0]}]]]